[[{"header":{"parameterUnit":"m.s-1","parameterCategory":1,"la1":30.6,"la2":28.766,"lo1":-90.7593,"lo2":-88.6598,"dx":0.0162,"dy":0.0183,"nx":116,"ny":114,"refTime":"2022-11-13T18:00:00:Z","depth":0,"parameterNumber":2,"parameterNumberName":"U-component_of_WINDS"},"data":[0.0,0.0,0.0,0.0,0.0,0.0,0.0,0.0,0.0,0.0,0.0,0.0,0.0,0.0,0.0,0.0,0.0,0.0,0.0,0.0,0.0,0.0,0.0,0.0,0.0,0.0,0.0,0.0,0.0,0.0,0.0,0.0,0.0,0.0,0.0,0.0,0.0,0.0,0.0,0.0,0.0,0.0,0.0,0.0,0.0,0.0,0.0,0.0,0.0,0.0,0.0,0.0,0.0,0.0,0.0,0.0,0.0,0.0,0.0,0.0,0.0,0.0,0.0,0.0,0.0,0.0,0.0,0.0,0.0,0.0,0.0,0.0,0.0,0.0,0.0,0.0,0.0,0.0,0.0,0.0,0.0,0.0,0.0,0.0,0.0,0.0,0.0,0.0,0.0,0.0,0.0,0.0,0.0,0.0,0.0,0.0,0.0,0.0,0.0,0.0,0.0,0.0,0.0,0.0,0.0,0.0,0.0,0.0,0.0,0.0,0.0,0.0,0.0,0.0,0.0,0.0,0.0,0.0,0.0,0.0,0.0,0.0,0.0,0.0,0.0,0.0,0.0,0.0,0.0,0.0,0.0,0.0,0.0,0.0,0.0,0.0,0.0,0.0,0.0,0.0,0.0,0.0,0.0,0.0,0.0,0.0,0.0,0.0,0.0,0.0,0.0,0.0,0.0,0.0,0.0,0.0,0.0,0.0,0.0,0.0,0.0,0.0,0.0,0.0,0.0,0.0,0.0,0.0,0.0,0.0,0.0,0.0,0.0,0.0,0.0,0.0,0.0,0.0,0.0,0.0,0.0,0.0,0.0,0.0,0.0,0.0,0.0,0.0,0.0,0.0,0.0,0.0,0.0,0.0,0.0,0.0,0.0,0.0,0.0,0.0,0.0,0.0,0.0,0.0,0.0,0.0,0.0,0.0,0.0,0.0,0.0,0.0,0.0,0.0,0.0,0.0,0.0,0.0,0.0,0.0,0.0,0.0,0.0,0.0,0.0,0.0,0.0,0.0,0.0,0.0,0.0,0.0,0.0,0.0,0.0,0.0,0.0,0.0,0.0,0.0,0.0,0.0,0.0,0.0,0.0,0.0,0.0,0.0,0.0,0.0,0.0,0.0,0.0,0.0,0.0,0.0,0.0,0.0,0.0,0.0,0.0,0.0,0.0,0.0,0.0,0.0,0.0,0.0,0.0,0.0,0.0,0.0,0.0,0.0,0.0,0.0,0.0,0.0,0.0,0.0,0.0,0.0,0.0,0.0,0.0,0.0,0.0,0.0,0.0,0.0,0.0,0.0,0.0,0.0,0.0,0.0,0.0,0.0,0.0,0.0,0.0,0.0,0.0,0.0,0.0,0.0,0.0,0.0,0.0,0.0,0.0,0.0,0.0,0.0,0.0,0.0,0.0,0.0,0.0,0.0,0.0,0.0,0.0,0.0,0.0,0.0,0.0,0.0,0.0,0.0,0.0,0.0,0.0,0.0,0.0,0.0,0.0,0.0,0.0,0.0,0.0,0.0,0.0,0.0,0.0,0.0,0.0,0.0,0.0,0.0,0.0,0.0,0.0,0.0,0.0,0.0,0.0,0.0,0.0,0.0,0.0,0.0,0.0,0.0,0.0,0.0,0.0,0.0,0.0,0.0,0.0,0.0,0.0,0.0,0.0,0.0,0.0,0.0,0.0,0.0,0.0,0.0,0.0,0.0,0.0,0.0,0.0,0.0,0.0,0.0,0.0,0.0,0.0,0.0,0.0,0.0,0.0,0.0,0.0,0.0,0.0,0.0,0.0,0.0,0.0,0.0,0.0,0.0,0.0,0.0,0.0,0.0,0.0,0.0,0.0,0.0,0.0,0.0,0.0,0.0,0.0,0.0,0.0,0.0,0.0,0.0,0.0,0.0,0.0,0.0,0.0,0.0,0.0,0.0,0.0,0.0,0.0,0.0,0.0,0.0,0.0,0.0,0.0,0.0,0.0,0.0,0.0,0.0,0.0,0.0,0.0,0.0,0.0,0.0,0.0,0.0,0.0,0.0,0.0,0.0,0.0,0.0,0.0,0.0,0.0,0.0,0.0,0.0,0.0,0.0,0.0,0.0,0.0,0.0,0.0,0.0,0.0,0.0,0.0,0.0,0.0,0.0,0.0,0.0,0.0,0.0,0.0,0.0,0.0,0.0,0.0,0.0,0.0,0.0,0.0,0.0,0.0,0.0,0.0,0.0,0.0,0.0,0.0,0.0,0.0,0.0,0.0,0.0,0.0,0.0,0.0,0.0,0.0,0.0,0.0,0.0,0.0,0.0,0.0,0.0,0.0,0.0,0.0,0.0,0.0,0.0,0.0,0.0,0.0,0.0,0.0,0.0,0.0,0.0,0.0,0.0,0.0,0.0,0.0,0.0,0.0,0.0,0.0,0.0,0.0,0.0,0.0,0.0,0.0,0.0,0.0,0.0,0.0,0.0,0.0,0.0,0.0,0.0,0.0,0.0,0.0,0.0,0.0,0.0,0.0,0.0,0.0,0.0,0.0,0.0,0.0,0.0,0.0,0.0,0.0,0.0,0.0,0.0,0.0,0.0,0.0,0.0,0.0,0.0,0.0,0.0,0.0,0.0,0.0,0.0,0.0,0.0,0.0,0.0,0.0,0.0,0.0,0.0,0.0,0.0,0.0,0.0,0.0,0.0,0.0,0.0,0.0,0.0,0.0,0.0,0.0,0.0,0.0,0.0,0.0,0.0,0.0,0.0,0.0,0.0,0.0,0.0,0.0,0.0,0.0,0.0,0.0,0.0,0.0,0.0,0.0,0.0,0.0,0.0,0.0,0.0,0.0,0.0,0.0,0.0,0.0,0.0,0.0,0.0,0.0,0.0,0.0,0.0,0.0,0.0,0.0,0.0,0.0,0.0,0.0,0.0,0.0,0.0,0.0,0.0,0.0,0.0,0.0,0.0,0.0,0.0,0.0,0.0,0.0,0.0,0.0,0.0,0.0,0.0,0.0,0.0,0.0,0.0,0.0,0.0,0.0,0.0,0.0,0.0,0.0,0.0,0.0,0.0,0.0,0.0,0.0,0.0,0.0,0.0,0.0,0.0,0.0,0.0,0.0,0.0,0.0,0.0,0.0,0.0,0.0,0.0,0.0,0.0,0.0,0.0,0.0,0.0,0.0,0.0,0.0,0.0,0.0,0.0,0.0,0.0,0.0,0.0,0.0,0.0,0.0,0.0,0.0,0.0,0.0,0.0,0.0,0.0,0.0,0.0,0.0,0.0,0.0,0.0,0.0,0.0,0.0,0.0,0.0,0.0,0.0,0.0,0.0,0.0,0.0,0.0,0.0,0.0,0.0,0.0,0.0,0.0,0.0,0.0,0.0,0.0,0.0,0.0,0.0,0.0,0.0,0.0,0.0,0.0,0.0,0.0,0.0,0.0,0.0,0.0,0.0,0.0,0.0,0.0,0.0,0.0,0.0,0.0,0.0,0.0,0.0,0.0,0.0,0.0,0.0,0.0,0.0,0.0,0.0,0.0,0.0,0.0,0.0,0.0,0.0,0.0,0.0,0.0,0.0,0.0,0.0,0.0,0.0,0.0,0.0,0.0,0.0,0.0,0.0,0.0,0.0,0.0,0.0,0.0,0.0,0.0,0.0,0.0,0.0,0.0,0.0,0.0,0.0,0.0,0.0,0.0,0.0,0.0,0.0,0.0,0.0,0.0,0.0,0.0,0.0,0.0,0.0,0.0,0.0,0.0,0.0,0.0,0.0,0.0,0.0,0.0,0.0,0.0,0.0,0.0,0.0,0.0,0.0,0.0,0.0,0.0,0.0,0.0,0.0,0.0,0.0,0.0,0.0,0.0,0.0,0.0,0.0,0.0,0.0,0.0,0.0,0.0,0.0,0.0,0.0,0.0,0.0,0.0,0.0,0.0,0.0,0.0,0.0,0.0,0.0,0.0,0.0,0.0,0.0,0.0,0.0,0.0,0.0,0.0,0.0,0.0,0.0,0.0,0.0,0.0,0.0,0.0,0.0,0.0,0.0,0.0,0.0,0.0,0.0,0.0,0.0,0.0,0.0,0.0,0.0,0.0,0.0,0.0,0.0,0.0,0.0,0.0,0.0,0.0,0.0,0.0,0.0,0.0,0.0,0.0,0.0,0.0,0.0,0.0,0.0,0.0,0.0,0.0,0.0,0.0,0.0,0.0,0.0,0.0,0.0,0.0,0.0,0.0,0.0,0.0,0.0,0.0,0.0,0.0,0.0,0.0,0.0,0.0,0.0,0.0,0.0,0.0,0.0,0.0,0.0,0.0,0.0,0.0,0.0,0.0,0.0,0.0,0.0,0.0,0.0,0.0,0.0,0.0,0.0,0.0,0.0,0.0,0.0,0.0,0.0,0.0,0.0,0.0,0.0,0.0,0.0,0.0,0.0,0.0,0.0,0.0,0.0,0.0,0.0,0.0,0.0,0.0,0.0,0.0,0.0,0.0,0.0,0.0,0.0,0.0,0.0,0.0,0.0,0.0,0.0,0.0,0.0,0.0,0.0,0.0,0.0,0.0,0.0,0.0,0.0,0.0,0.0,0.0,0.0,0.0,0.0,0.0,0.0,0.0,0.0,0.0,0.0,0.0,0.0,0.0,0.0,0.0,0.0,0.0,0.0,0.0,0.0,0.0,0.0,0.0,0.0,0.0,0.0,0.0,0.0,0.0,0.0,0.0,0.0,0.0,0.0,0.0,0.0,0.0,0.0,0.0,0.0,0.0,0.0,0.0,0.0,0.0,0.0,0.0,0.0,0.0,0.0,0.0,0.0,0.0,0.0,0.0,0.0,0.0,0.0,0.0,0.0,0.0,0.0,0.0,0.0,0.0,0.0,0.0,0.0,0.0,0.0,0.0,0.0,0.0,0.0,0.0,0.0,0.0,0.0,0.0,0.0,0.0,0.0,0.0,0.0,0.0,0.0,0.0,0.0,0.0,0.0,0.0,0.0,0.0,0.0,0.0,0.0,0.0,0.0,0.0,0.0,0.0,0.0,0.0,0.0,0.0,0.0,0.0,0.0,0.0,0.0,0.0,0.0,0.0,0.0,0.0,0.0,0.0,0.0,0.0,0.0,0.0,0.0,0.0,0.0,0.0,0.0,0.0,0.0,0.0,0.0,0.0,0.0,0.0,0.0,0.0,0.0,0.0,0.0,0.0,0.0,0.0,0.0,0.0,0.0,0.0,0.0,0.0,0.0,0.0,0.0,0.0,0.0,0.0,0.0,0.0,0.0,0.0,0.0,0.0,0.0,0.0,0.0,0.0,0.0,0.0,0.0,0.0,0.0,0.0,0.0,0.0,0.0,0.0,0.0,0.0,0.0,0.0,0.0,0.0,0.0,0.0,0.0,0.0,0.0,0.0,0.0,0.0,0.0,0.0,0.0,0.0,0.0,0.0,0.0,0.0,0.0,0.0,0.0,0.0,0.0,0.0,0.0,0.0,0.0,0.0,0.0,0.0,0.0,0.0,0.0,0.0,0.0,0.0,0.0,0.0,0.0,0.0,0.0,0.0,0.0,0.0,0.0,0.0,0.0,0.0,0.0,0.0,0.0,0.0,0.0,0.0,0.0,0.0,0.0,0.0,0.0,0.0,0.0,0.0,0.0,0.0,0.0,0.0,0.0,0.0,0.0,0.0,0.0,0.0,0.0,0.0,0.0,0.0,0.0,0.0,0.0,0.0,0.0,0.0,0.0,0.0,0.0,0.0,0.0,0.0,0.0,0.0,0.0,0.0,0.0,0.0,0.0,0.0,0.0,0.0,0.0,0.0,0.0,0.0,0.0,0.0,0.0,0.0,0.0,0.0,0.0,0.0,0.0,0.0,0.0,0.0,0.0,0.0,0.0,0.0,0.0,0.0,0.0,0.0,0.0,0.0,0.0,0.0,0.0,0.0,0.0,0.0,0.0,0.0,0.0,0.0,0.0,0.0,0.0,0.0,0.0,0.0,0.0,0.0,0.0,0.0,0.0,0.0,0.0,0.0,0.0,0.0,0.0,0.0,0.0,0.0,0.0,0.0,0.0,0.0,0.0,0.0,0.0,0.0,0.0,0.0,0.0,0.0,0.0,0.0,0.0,0.0,0.0,0.0,3.6158,0.0,0.0,0.0,0.0,0.0,0.0,0.0,0.0,0.0,0.0,0.0,0.0,0.0,0.0,0.0,0.0,0.0,0.0,0.0,0.0,0.0,0.0,0.0,0.0,2.1276,2.1695,2.1695,2.1695,0.0,0.0,0.0,0.0,0.0,0.0,0.0,2.2164,2.2443,2.2772,2.309,2.3759,2.4418,2.5028,2.4698,2.4189,2.3569,0.0,0.0,0.0,0.0,0.0,0.0,0.0,0.0,0.0,0.0,0.0,0.0,0.0,0.0,0.0,0.0,0.0,0.0,0.0,0.0,0.0,0.0,0.0,0.0,0.0,0.0,0.0,0.0,0.0,0.0,0.0,0.0,0.0,0.0,0.0,0.0,0.0,0.0,0.0,0.0,0.0,0.0,0.0,0.0,0.0,0.0,0.0,0.0,0.0,0.0,0.0,0.0,0.0,0.0,0.0,0.0,0.0,0.0,0.0,0.0,0.0,0.0,0.0,0.0,0.0,0.0,0.0,0.0,0.0,0.0,0.0,3.8061,0.0,0.0,0.0,0.0,0.0,0.0,0.0,0.0,0.0,0.0,0.0,0.0,0.0,0.0,0.0,0.0,0.0,0.0,0.0,0.0,0.0,2.1266,2.1824,2.1974,2.2024,2.2024,2.2024,2.2024,2.2024,2.2143,0.0,0.0,0.0,0.0,2.3201,2.38,2.4377,2.4963,2.5752,2.6482,2.7153,2.7794,0.0,0.0,0.0,0.0,0.0,0.0,0.0,0.0,0.0,0.0,0.0,0.0,0.0,0.0,0.0,0.0,0.0,0.0,0.0,0.0,0.0,0.0,0.0,0.0,0.0,0.0,0.0,0.0,0.0,0.0,0.0,0.0,0.0,0.0,0.0,0.0,0.0,0.0,0.0,0.0,0.0,0.0,0.0,0.0,0.0,0.0,0.0,0.0,0.0,0.0,0.0,0.0,0.0,0.0,0.0,0.0,0.0,0.0,0.0,0.0,0.0,0.0,0.0,0.0,0.0,0.0,4.0484,4.1071,4.0954,4.2371,4.3035,4.3006,4.2317,4.139,4.0388,4.0566,0.0,0.0,0.0,0.0,0.0,0.0,0.0,0.0,0.0,0.0,0.0,0.0,0.0,0.0,0.0,0.0,0.0,0.0,0.0,2.2463,2.2553,2.3052,2.334,2.334,2.334,2.334,2.334,2.3887,0.0,0.0,0.0,0.0,2.5226,2.5854,2.6255,2.6333,2.759,2.856,2.9219,2.9834,3.0329,3.0584,0.0,0.0,0.0,0.0,0.0,0.0,0.0,0.0,0.0,0.0,0.0,0.0,0.0,0.0,0.0,0.0,0.0,0.0,0.0,0.0,0.0,0.0,0.0,0.0,0.0,0.0,0.0,0.0,0.0,0.0,0.0,0.0,0.0,0.0,0.0,0.0,0.0,0.0,0.0,0.0,0.0,0.0,0.0,0.0,3.1507,3.0541,0.0,0.0,0.0,0.0,0.0,0.0,0.0,0.0,0.0,0.0,0.0,0.0,0.0,3.9212,3.9619,4.1014,4.1782,4.1871,4.2608,4.2948,4.294,4.3907,4.434,4.4366,4.502,0.0,4.156,4.2365,0.0,0.0,0.0,0.0,0.0,0.0,0.0,0.0,0.0,0.0,0.0,0.0,0.0,0.0,0.0,0.0,0.0,0.0,0.0,0.0,0.0,2.4018,2.4317,2.4676,2.4706,2.4706,2.4706,2.5005,0.0,0.0,0.0,2.6333,2.6704,2.7752,2.8637,2.9342,3.0329,3.0941,3.124,3.1898,3.2347,3.2542,3.0731,2.9295,2.8231,2.756,0.0,0.0,0.0,0.0,0.0,0.0,0.0,0.0,0.0,0.0,0.0,0.0,0.0,0.0,0.0,0.0,0.0,0.0,0.0,0.0,0.0,0.0,0.0,0.0,0.0,0.0,0.0,0.0,0.0,0.0,0.0,0.0,0.0,0.0,0.0,0.0,0.0,0.0,0.0,3.2854,3.3601,3.3751,3.4579,3.5307,0.0,0.0,0.0,0.0,0.0,0.0,0.0,0.0,0.0,4.0625,4.1265,4.1724,4.2023,4.3,4.3678,4.4038,4.4685,4.5194,4.5574,4.5948,4.6102,4.6123,4.6497,4.5998,4.4834,4.4735,4.3942,4.2899,0.0,0.0,0.0,0.0,4.2429,4.2993,0.0,0.0,0.0,0.0,0.0,0.0,0.0,0.0,0.0,0.0,0.0,0.0,2.4515,2.4754,2.5124,2.5794,2.5854,2.5944,2.6093,2.6273,2.6662,0.0,2.7512,2.7902,2.859,2.9907,3.115,3.2273,3.2931,3.3349,3.3544,3.4023,3.4352,3.4472,3.3814,3.2347,3.0296,2.9624,2.8577,0.0,0.0,0.0,0.0,0.0,0.0,0.0,0.0,0.0,0.0,0.0,0.0,0.0,0.0,0.0,0.0,0.0,0.0,0.0,0.0,0.0,0.0,0.0,0.0,0.0,0.0,0.0,0.0,0.0,0.0,0.0,0.0,0.0,0.0,0.0,0.0,0.0,0.0,3.4593,3.5638,3.6605,3.7048,3.7498,0.0,0.0,0.0,0.0,0.0,0.0,4.1066,4.1773,4.2451,4.3129,4.3748,4.4127,4.4326,4.4984,4.5574,4.6082,4.6741,4.7339,4.7818,4.7818,4.7818,4.7818,4.7818,4.7818,4.7739,4.694,4.6096,4.5301,4.5357,4.4979,4.4358,4.442,4.4975,4.5761,0.0,0.0,0.0,0.0,0.0,0.0,0.0,0.0,0.0,0.0,0.0,2.4545,2.4605,2.5184,2.5812,2.6494,2.6554,2.6824,2.7465,2.8111,2.877,2.9428,2.9983,3.0628,3.1301,3.2617,3.3649,3.4338,3.5011,3.5669,3.6314,3.6344,3.6656,3.7195,3.6567,3.4831,3.2303,3.163,3.0628,2.9442,0.0,0.0,0.0,0.0,0.0,0.0,0.0,0.0,0.0,0.0,0.0,0.0,0.0,0.0,0.0,0.0,0.0,0.0,0.0,0.0,0.0,0.0,0.0,0.0,0.0,0.0,0.0,0.0,0.0,0.0,0.0,0.0,0.0,0.0,0.0,0.0,0.0,0.0,0.0,3.7351,3.8492,0.0,0.0,0.0,0.0,4.2141,4.2201,4.2481,4.313,4.3788,4.4466,4.5125,4.5792,4.645,4.71,4.7758,4.8139,4.8169,4.8828,4.9179,4.9187,4.9187,4.9187,4.9187,4.9187,4.9187,4.9157,4.8733,4.8006,4.7182,4.7456,4.6987,4.619,4.6364,4.6503,4.6699,0.0,0.0,0.0,1.992,2.0389,2.1057,2.2194,2.2553,2.3082,2.4107,2.4455,2.4933,2.5794,2.6494,2.7153,2.7829,2.8291,2.88,2.9428,2.9684,3.0522,3.2018,3.2317,3.3155,3.4681,3.5206,3.5745,3.6357,3.6596,3.6866,3.7075,3.7075,3.7195,3.7404,3.7195,3.6567,3.5563,3.4516,3.329,3.2123,3.2123,3.1045,0.0,0.0,0.0,0.0,0.0,0.0,0.0,0.0,0.0,0.0,0.0,0.0,0.0,0.0,0.0,0.0,0.0,0.0,0.0,0.0,0.0,0.0,0.0,0.0,0.0,0.0,0.0,0.0,0.0,0.0,0.0,0.0,0.0,0.0,0.0,0.0,0.0,3.8679,4.0247,0.0,4.1643,4.2252,4.309,4.4187,4.4277,4.4756,4.5822,4.6501,4.698,4.7241,4.79,4.8349,4.8588,4.9224,4.974,5.0182,5.084,5.1402,5.1821,5.1821,5.1821,5.1821,5.1821,5.1821,5.1785,5.1679,5.0404,4.8603,4.8706,4.8257,4.7592,4.7666,4.779,4.8016,0.0,0.0,0.0,2.0578,2.0877,2.1425,2.2523,2.3052,2.364,2.4485,2.4993,2.5693,2.6824,2.7555,2.8291,2.9175,2.9864,3.0612,3.145,3.1719,3.2662,3.4412,3.4711,3.5429,3.6776,3.7032,3.7332,3.7734,3.7956,3.8195,3.8422,3.8422,3.8542,3.8751,3.8512,3.8422,3.8344,3.7285,3.5938,3.4518,3.4518,3.3425,3.1793,0.0,0.0,0.0,0.0,0.0,0.0,0.0,0.0,0.0,0.0,0.0,0.0,0.0,0.0,0.0,0.0,0.0,0.0,0.0,0.0,0.0,0.0,0.0,0.0,0.0,0.0,0.0,0.0,0.0,0.0,0.0,0.0,0.0,0.0,0.0,4.0516,4.0707,4.2122,4.3229,4.3678,4.4057,4.4865,4.6202,4.6292,4.68,4.7908,4.8596,4.9045,4.9254,4.9935,5.0384,5.0594,5.102,5.1415,5.1887,5.2546,5.3114,5.3533,5.3767,5.3887,5.3887,5.3887,5.3887,5.3887,5.3887,5.2719,5.0923,5.0684,5.0354,4.9965,4.9965,4.9913,4.9882,0.0,0.0,1.9908,2.0608,2.1276,2.1944,2.2613,2.3778,2.4593,2.4634,2.5794,2.6854,2.7555,2.8231,2.9146,3.0432,3.1122,3.2108,3.3455,3.4158,3.5146,0.0,0.0,0.0,3.7464,3.8093,3.8422,3.8469,3.9092,3.978,4.0427,4.0427,4.0756,4.1373,4.0726,4.0427,4.0397,3.972,3.8362,3.6613,3.6583,3.5775,3.4518,0.0,0.0,0.0,0.0,0.0,0.0,0.0,0.0,0.0,0.0,0.0,0.0,0.0,0.0,0.0,0.0,0.0,0.0,0.0,0.0,0.0,0.0,0.0,0.0,0.0,0.0,0.0,0.0,0.0,0.0,0.0,0.0,0.0,3.9511,4.1194,4.2661,4.3359,4.4018,4.4895,4.6241,4.639,4.6929,4.8259,4.8379,4.8678,4.9337,4.9949,5.0607,5.1236,5.1917,5.2576,5.3228,5.3258,5.3288,5.3318,5.3952,5.4281,5.4311,5.497,5.5239,5.5239,5.5239,5.5239,5.5239,5.5239,5.488,5.4221,5.3503,5.3228,5.3198,5.3198,5.2809,5.2203,1.9708,1.9708,2.0058,2.1216,2.1575,2.2054,2.3161,2.4077,2.4784,2.5274,2.6063,2.7033,2.8188,2.8919,2.9834,3.1092,3.1854,3.2991,3.4831,3.513,3.5998,0.0,0.0,0.0,3.8853,3.9032,3.9379,3.9858,4.0038,4.0457,4.1134,4.1134,4.1224,4.1403,4.1224,4.1134,4.1104,4.0924,4.0247,3.923,3.829,3.7375,3.6537,0.0,0.0,0.0,0.0,0.0,0.0,0.0,0.0,0.0,0.0,0.0,0.0,0.0,0.0,0.0,0.0,0.0,0.0,0.0,0.0,0.0,0.0,0.0,0.0,0.0,0.0,0.0,0.0,0.0,0.0,0.0,0.0,4.2083,4.1643,4.2432,4.3479,4.4646,4.5783,4.683,4.7668,4.8199,4.8805,4.962,5.0129,5.069,5.1372,5.2007,5.2456,5.2636,5.3294,5.3743,5.3922,5.4401,5.4905,5.5384,5.5564,5.5893,5.6316,5.6496,5.6585,5.6585,5.6585,5.6585,5.6585,5.6585,5.6466,5.6137,5.4551,5.3623,5.3198,5.3198,5.3079,5.3038,1.9708,1.9708,2.0118,2.1465,2.1695,2.2113,2.34,2.4406,2.5143,2.5543,2.6435,2.7542,2.8889,2.9368,3.0237,3.178,3.2781,3.4083,3.5818,3.6686,0.0,0.0,0.0,3.9541,3.981,3.981,4.0157,4.0816,4.0816,4.1164,4.1822,4.1822,4.1942,4.2192,4.1942,4.1822,4.1792,4.1523,4.1194,4.0756,3.9966,3.8901,3.7793,3.7451,3.7122,3.6716,3.5549,3.4981,3.4637,3.3858,0.0,0.0,0.0,0.0,0.0,0.0,0.0,0.0,0.0,0.0,0.0,0.0,0.0,0.0,0.0,0.0,0.0,0.0,0.0,0.0,0.0,0.0,0.0,0.0,4.3539,4.4227,4.4427,4.4766,4.5373,4.6411,4.7489,4.8386,4.9045,4.9703,5.0361,5.0996,5.1678,5.2336,5.2995,5.3414,5.3887,5.4426,5.482,5.5149,5.5418,5.6077,5.6615,5.7004,5.7569,5.8018,5.8351,5.865,5.877,5.877,5.877,5.877,5.877,5.877,5.862,0.0,0.0,0.0,0.0,0.0,5.4456,5.4525,1.9708,1.9768,2.0208,2.1495,2.1754,2.2213,2.343,2.4747,2.5603,2.5603,2.6764,2.8094,2.9458,2.9608,3.0416,3.2422,3.3769,3.5116,3.6613,3.8404,0.0,3.9391,3.9391,3.972,4.0397,4.0397,4.0775,4.1523,4.1523,4.1852,4.25,4.259,4.288,4.3379,4.287,4.262,4.259,4.1912,4.1583,4.1523,4.1523,4.0355,3.8649,3.8649,3.8212,3.7614,3.7554,3.7165,3.6703,3.6643,0.0,0.0,0.0,0.0,0.0,0.0,0.0,0.0,0.0,0.0,0.0,0.0,0.0,0.0,0.0,0.0,0.0,0.0,0.0,0.0,0.0,0.0,0.0,0.0,4.4825,4.6112,4.7459,4.7698,4.7938,4.8446,4.9127,4.9733,5.0368,5.1026,5.1684,5.2366,5.3025,5.3737,5.4401,0.0,0.0,0.0,0.0,5.6821,5.7423,5.8085,5.8444,5.8444,5.9638,6.0206,6.0206,6.0835,6.1076,6.1076,6.1076,6.1076,6.1076,6.1076,6.0745,5.9997,5.8082,5.7334,5.7244,5.6731,5.6521,5.6432,1.9708,2.0148,2.0757,2.1545,2.2154,2.2752,2.349,2.4747,2.5603,2.5603,2.6764,2.8094,2.9458,2.9608,3.0596,3.3095,3.4039,3.5506,3.7871,0.0,3.9391,3.9391,3.9391,3.972,4.0397,4.0397,4.0984,4.2201,4.2201,4.2511,4.313,4.3688,4.3988,4.4087,4.3988,4.3928,4.3898,4.322,4.2641,4.2201,4.2201,4.1313,4.0008,4.0008,3.9619,3.8943,3.8392,3.8123,3.796,3.7404,3.7045,3.6716,3.6118,0.0,0.0,0.0,0.0,0.0,0.0,0.0,0.0,0.0,0.0,0.0,0.0,0.0,0.0,0.0,0.0,0.0,0.0,0.0,0.0,4.6352,4.7189,4.8177,4.9471,5.0099,5.0278,4.989,5.0398,5.1109,5.1768,5.2426,5.3084,5.3773,5.4431,5.5114,5.5773,5.6256,5.6915,5.7723,5.8261,5.883,5.9488,6.0176,6.0508,6.0508,0.0,0.0,6.0924,6.1016,6.1076,6.1076,6.1076,6.1076,6.1076,6.1076,6.1044,6.0775,5.9308,5.871,5.871,5.859,5.853,5.853,1.9708,2.0228,2.0907,2.1575,2.2243,2.2912,2.352,2.4436,2.5202,2.5543,2.6494,2.7722,2.9428,2.9877,3.0985,3.3305,3.5011,3.6776,0.0,3.9212,3.9391,3.9391,3.9391,3.987,4.0894,4.0894,4.1534,4.2851,4.2851,4.3,4.329,4.3997,4.4296,4.4296,4.4646,4.4616,4.4267,4.3938,4.3429,4.2851,4.2851,4.2252,4.1373,4.1044,4.0487,3.9858,3.9529,3.92,3.8841,3.8494,3.8182,3.7853,3.7571,3.7225,3.6896,0.0,0.0,0.0,0.0,0.0,0.0,0.0,0.0,0.0,0.0,0.0,0.0,0.0,0.0,4.3559,0.0,0.0,4.6621,4.7638,4.8626,4.9591,5.0578,5.1265,5.1588,5.1236,5.1798,5.2456,5.3144,5.3803,5.4461,5.5149,5.5777,5.6585,5.7603,5.7932,5.856,5.955,5.9937,6.0266,6.0595,6.1283,6.1613,6.1613,6.2241,6.257,6.257,6.29,6.305,6.305,6.305,6.305,6.305,6.305,6.305,6.299,6.2302,6.1225,6.0116,6.0116,6.0116,6.0116,1.9708,2.0348,2.1057,2.1615,2.2363,2.3032,2.3531,2.4167,2.4844,2.5513,2.6183,2.7363,2.9368,3.0013,3.124,3.35,3.5968,0.0,0.0,3.9331,3.9391,3.9391,3.9391,3.9928,4.1039,4.1289,4.182,4.2659,4.3061,4.319,4.299,4.3867,4.4296,4.4326,4.4855,4.4796,4.4296,4.4147,4.3788,4.329,4.329,4.301,4.2511,4.1972,4.1265,4.0576,4.0457,4.0068,3.9571,3.9451,3.9032,3.8571,3.8571,3.8212,3.7776,3.7776,3.7883,0.0,0.0,0.0,0.0,0.0,0.0,0.0,0.0,0.0,4.283,4.295,4.4008,4.5095,4.5753,4.698,4.8057,4.8566,4.974,5.0787,5.1295,5.2217,5.2785,5.2785,5.3264,5.3857,5.4521,5.5179,5.5897,5.6701,5.7214,5.8082,5.9428,5.9488,6.0057,6.1253,6.1433,6.1553,6.1644,6.2331,6.266,6.269,6.3707,6.4186,6.4216,6.4755,6.4994,6.4994,6.4994,6.4994,6.4994,6.4994,6.4994,6.4994,6.4994,6.3708,6.1824,6.1704,6.1613,6.1493,1.9708,2.0717,2.1605,2.1695,2.2682,2.352,2.358,2.4167,2.4844,2.5513,2.6183,2.7363,2.9368,2.9668,3.0955,3.4099,3.6237,0.0,3.8452,3.908,3.9391,3.9391,3.9391,3.9517,3.9805,4.0848,4.1037,4.0275,4.2304,4.28,4.1823,4.3512,4.4296,4.4296,4.4356,4.4356,4.4267,4.3668,4.3369,4.329,4.329,4.326,4.319,4.313,4.2342,4.1224,4.0606,4.0337,4.0217,3.9601,3.9361,3.9302,3.9302,3.9242,3.9182,3.9182,0.0,4.0068,4.0068,4.0487,4.0984,4.1044,4.1553,4.2081,0.0,0.0,4.4257,4.4855,4.6052,4.716,4.784,4.8992,4.992,4.9979,5.1116,5.2007,5.2067,5.3683,5.485,5.485,5.491,5.5264,5.5923,5.6526,5.7423,5.868,5.883,5.9458,6.0777,6.0894,6.1224,6.1972,6.2569,6.3109,6.3677,6.4336,6.4665,6.4665,6.4815,6.4874,6.4874,6.4964,6.4994,6.4994,6.4994,6.4994,6.4994,6.4994,6.4994,6.4994,6.4994,6.4815,6.4486,6.3917,6.3318,6.2898,2.0198,2.1036,2.1814,2.2213,2.3022,2.361,2.361,2.3849,2.4257,2.4933,2.5603,2.6644,2.8274,2.9774,3.1898,3.4831,3.5818,3.6896,3.832,3.8661,3.899,3.9391,3.8815,3.8674,3.9119,3.9355,3.9458,3.9382,4.0682,4.1428,4.1637,4.2752,4.3664,4.4296,4.4706,4.4676,4.4267,4.3997,4.3668,4.329,4.329,4.329,4.329,4.329,4.298,4.2432,4.1792,4.1313,0.0,0.0,4.0546,4.0546,4.0546,4.0546,4.0546,4.0546,4.1044,0.0,4.1993,4.2293,4.2611,4.3,4.3299,4.3688,4.4496,4.5394,4.6232,4.6912,4.781,4.8656,4.9314,4.986,5.0458,0.0,5.1828,5.2606,5.3773,5.467,5.5628,5.6765,5.7244,5.7573,5.7842,5.8112,5.883,6.0176,6.0266,6.0685,6.1642,6.2061,6.254,6.3199,6.3857,6.4336,6.4575,6.4845,6.4994,6.4994,6.5383,6.5562,6.5592,6.6011,6.6161,6.6161,6.6161,6.6161,6.6161,6.6161,6.6161,6.6161,6.6161,6.5951,6.5503,6.4815,6.4425,6.4216,2.0608,2.1395,2.2124,2.2613,2.3201,2.361,2.361,2.361,2.3838,2.4515,2.5023,2.5914,2.7435,2.991,3.2288,3.4217,3.5054,3.6088,3.7494,3.7818,3.818,3.8666,3.7822,3.7526,3.7893,3.7851,3.7819,3.7801,3.9053,3.9917,4.0449,4.173,4.2769,4.3592,4.4383,4.4496,4.4027,4.4027,4.3758,4.329,4.329,4.329,4.329,4.329,4.329,4.322,4.2631,4.2081,0.0,0.0,4.1403,4.1403,4.1403,4.1523,4.1673,4.1673,4.2391,4.3349,4.3967,4.4267,4.4476,4.4775,4.5134,4.5663,4.6629,4.7369,4.8027,4.8686,4.9194,4.9733,5.0368,5.0637,5.1056,5.2037,5.2665,5.3533,5.4999,5.5658,5.6585,5.8175,5.8979,5.9518,5.9907,5.9757,6.0146,6.1313,6.1553,6.1942,6.26,6.3258,6.3827,6.4276,6.4904,6.5263,6.5263,6.5443,6.5532,6.5562,6.6041,6.6281,6.6281,6.6759,6.6999,6.6999,6.6999,6.6999,6.6999,6.6999,6.6999,6.6999,6.6999,6.67,6.6221,6.5742,6.5323,6.4994,2.0688,2.1754,2.2673,2.2703,2.3201,2.361,2.361,2.361,2.3838,2.4515,2.4634,2.5393,2.7375,2.991,3.154,3.16,3.4007,3.5519,3.5579,3.64,3.6864,3.6864,3.6462,3.6054,3.5627,3.6668,3.6425,3.4816,3.765,3.846,3.7489,4.0315,4.1637,4.172,4.285,4.3349,4.3319,4.3319,4.3339,4.329,4.329,4.329,4.329,4.329,4.329,4.322,4.2631,0.0,0.0,0.0,4.1403,4.1403,4.1403,4.1852,0.0,4.2381,4.3708,4.5364,4.6031,4.6659,4.704,4.639,4.7219,4.8199,4.8229,4.8768,4.9426,5.0009,5.0136,5.0398,5.1056,5.1708,5.2157,5.2187,5.3832,5.5119,5.5179,5.6825,5.8264,5.9009,5.9668,6.0565,0.0,6.1433,6.1343,6.2002,6.266,6.3288,6.3917,6.4575,6.4964,6.4964,6.5622,6.5981,6.5981,6.661,6.6939,6.6939,6.6939,6.6969,6.6969,6.6969,6.6999,6.6999,6.6999,6.6999,6.6999,6.6999,6.6999,6.6999,6.6999,6.6969,6.6969,6.6939,6.6131,6.4994,2.1854,2.2403,2.2823,2.3231,2.3471,2.361,2.361,2.361,2.367,2.3898,2.4306,0.0,0.0,0.0,0.0,0.0,3.1839,3.303,3.5367,3.4629,3.4947,3.6722,3.5396,3.4714,3.4961,3.4999,3.4709,3.4173,3.5502,3.6354,3.6791,3.7752,3.9006,4.0429,4.0818,4.1381,4.2043,4.2043,4.2043,4.2043,4.2043,4.2043,4.2043,4.2043,4.2043,4.2073,0.0,0.0,0.0,0.0,0.0,0.0,4.318,0.0,0.0,4.5244,4.6411,4.7451,4.8109,4.8468,4.8588,4.8349,4.8618,4.9067,4.9471,4.974,5.0069,5.0727,5.1206,5.1618,5.1828,5.2396,5.2995,5.3443,5.4461,5.5478,5.6346,5.7782,5.9009,5.9668,6.0745,0.0,0.0,0.0,0.0,6.3288,6.3558,6.3977,6.4605,6.5293,6.5652,6.5652,6.6311,6.667,6.667,6.6879,6.6999,6.6999,6.6999,6.6999,6.6999,6.6999,6.6999,6.6999,6.6999,6.6999,6.6999,6.6999,6.6999,6.6999,6.6999,6.6999,6.6999,6.6999,6.67,6.634,2.2523,2.2882,2.3141,2.352,2.361,0.0,0.0,0.0,0.0,0.0,0.0,0.0,0.0,0.0,0.0,0.0,0.0,3.1449,3.3115,3.2907,3.3308,3.4724,3.3786,3.3415,3.3804,3.3682,3.3596,3.3596,3.4148,3.48,3.5583,3.62,3.7265,3.8659,3.9427,4.0197,4.0848,4.1222,4.1792,4.2391,4.1673,4.1822,4.2342,4.1673,4.1403,0.0,0.0,0.0,0.0,0.0,0.0,0.0,0.0,0.0,4.5723,4.7489,4.8476,4.9075,4.9494,4.9816,4.9935,4.9673,4.9793,5.0062,5.0458,5.0578,5.0697,5.1116,5.1738,5.2187,5.2187,5.2935,5.3773,5.4461,5.5299,5.6256,5.7304,5.862,5.9697,6.0386,6.1433,6.2271,0.0,0.0,0.0,6.3947,6.4455,6.4904,6.5323,6.6011,6.637,6.637,6.6759,6.6999,6.6999,6.6999,6.6999,6.6999,6.6999,6.6999,6.6999,6.6999,6.6999,6.6999,6.6999,6.6999,6.6999,6.6999,6.6999,6.6999,6.6999,6.6999,6.6999,6.6999,6.6999,6.6999,2.2733,2.3201,2.361,0.0,0.0,0.0,0.0,0.0,0.0,0.0,0.0,0.0,0.0,0.0,0.0,0.0,0.0,0.0,2.9246,3.1106,3.1938,3.1222,3.1755,3.2093,3.2144,3.2742,3.3065,3.3065,3.3596,3.3847,3.3894,3.5557,3.6378,3.6502,3.8677,3.9668,3.9767,4.0836,4.2372,4.3878,4.2043,4.2402,4.3848,4.2002,0.0,0.0,0.0,0.0,0.0,0.0,0.0,0.0,0.0,4.5753,4.7638,4.8917,4.9763,5.0255,5.0255,5.0727,5.1056,5.0405,5.0727,5.1206,5.1206,5.1206,5.1206,5.1206,5.1738,5.2217,0.0,0.0,5.4431,5.5119,5.6286,5.7334,5.7995,5.9279,6.0386,0.0,0.0,0.0,0.0,0.0,0.0,6.3979,0.0,6.6011,6.6071,6.664,6.6999,6.6999,6.6999,6.6999,6.6999,6.6999,6.6999,6.6999,6.6999,6.6999,6.6999,6.6999,6.6999,6.6999,6.6999,6.6999,6.6999,6.6999,6.6999,6.6999,6.6999,6.6999,6.6999,6.6999,6.6999,6.6999,0.0,0.0,0.0,0.0,0.0,0.0,0.0,0.0,0.0,0.0,0.0,0.0,0.0,0.0,0.0,0.0,0.0,0.0,2.9926,2.9274,0.0,0.0,0.0,0.0,0.0,0.0,0.0,0.0,0.0,3.3316,3.3316,3.3766,3.4413,3.5224,3.6541,3.7579,3.8361,3.9465,4.0217,4.0618,0.0,4.0199,4.0588,0.0,0.0,0.0,0.0,0.0,0.0,0.0,0.0,4.4825,4.4975,4.6792,4.8858,4.9187,5.0062,5.0936,5.0936,5.1056,5.1146,5.0996,5.1056,5.1206,5.1206,5.1206,5.1206,5.1206,5.1738,5.2336,5.2869,5.3623,0.0,5.5743,5.6585,0.0,5.7995,5.967,0.0,6.1104,0.0,6.3119,6.2101,6.4127,0.0,0.0,6.5045,6.6221,6.67,6.6909,6.6999,6.6999,6.6999,6.6999,6.6999,6.6999,6.6999,6.6999,6.6999,6.6999,6.6999,6.6999,6.6999,6.6999,6.6999,6.6999,6.6999,6.6999,6.6999,6.6999,6.6999,6.6999,6.6999,6.6999,6.6999,6.6999,0.0,0.0,0.0,0.0,0.0,0.0,0.0,0.0,0.0,0.0,0.0,0.0,0.0,0.0,0.0,0.0,0.0,0.0,0.0,2.8623,0.0,0.0,0.0,0.0,0.0,0.0,0.0,0.0,0.0,0.0,0.0,3.2713,3.3427,3.4733,3.5734,3.678,3.7881,3.8943,0.0,0.0,0.0,0.0,0.0,0.0,0.0,0.0,0.0,0.0,0.0,4.1703,4.3439,4.5304,4.5304,4.7151,4.9277,4.9277,5.0182,5.1206,5.1206,5.1206,5.1206,5.1206,5.1206,5.1206,5.1206,5.1206,5.1206,5.1206,5.1738,5.2306,5.2665,5.3533,5.4551,0.0,0.0,0.0,5.7995,5.982,6.1076,0.0,6.2113,0.0,6.2932,6.3345,6.4009,0.0,6.5881,6.661,6.6969,6.6999,6.6999,6.6999,6.6999,6.6999,6.6999,6.6999,6.6999,6.6999,6.6999,6.6999,6.6999,6.6999,6.6999,6.6999,0.0,6.6999,6.6999,6.6999,6.6999,6.6999,6.6999,6.6999,6.6999,6.6999,6.6999,6.6999,0.0,0.0,0.0,0.0,0.0,0.0,0.0,0.0,0.0,2.3729,2.3729,2.4208,0.0,0.0,0.0,0.0,0.0,0.0,0.0,0.0,0.0,0.0,0.0,0.0,0.0,0.0,0.0,0.0,0.0,0.0,0.0,0.0,0.0,0.0,0.0,0.0,0.0,0.0,0.0,0.0,0.0,0.0,0.0,0.0,0.0,0.0,0.0,0.0,0.0,4.1373,4.314,4.5304,4.5304,4.7151,4.9277,4.9277,5.0182,5.1206,5.1206,5.1206,5.1206,5.1206,5.1206,5.1206,5.1206,5.1206,5.1206,5.1206,5.1678,5.2097,5.2187,5.3234,5.4311,5.5059,0.0,5.7334,5.7995,5.982,6.1076,6.1076,6.129,6.2204,6.4095,6.2125,6.2164,6.5672,6.6137,6.6384,6.6631,6.6846,6.6999,6.6999,6.6999,6.6999,6.6999,6.6999,6.6999,6.6999,6.6999,6.6999,6.6999,6.6999,6.6999,6.6999,6.6999,6.6999,6.6999,6.6999,6.6999,6.6999,6.6999,6.6999,6.6999,6.6999,6.6999,6.6999,0.0,0.0,0.0,0.0,0.0,0.0,0.0,0.0,0.0,0.0,2.4425,2.4724,0.0,0.0,0.0,0.0,0.0,0.0,0.0,0.0,0.0,0.0,0.0,0.0,0.0,0.0,0.0,0.0,0.0,0.0,0.0,0.0,0.0,0.0,0.0,0.0,0.0,0.0,0.0,0.0,0.0,0.0,0.0,0.0,0.0,0.0,0.0,0.0,0.0,0.0,4.314,4.5304,4.5304,4.7151,4.9277,4.9277,5.0182,5.1206,5.1206,5.1206,5.1206,5.1206,5.1206,5.1206,5.1206,5.1206,5.1206,5.1206,5.1295,5.1558,5.2097,5.2845,5.3767,5.4999,5.6256,5.7334,5.7995,5.982,6.1076,0.0,6.1699,6.1702,6.0642,6.1059,0.0,0.0,6.1696,6.3182,6.4694,6.6168,6.6999,6.6999,6.6999,6.6999,6.6999,6.6999,6.6999,6.6999,6.6999,6.6999,6.6999,6.6999,6.6999,6.6999,6.6999,0.0,6.6999,6.6999,6.6999,6.6999,6.6999,6.6999,6.6999,6.6999,6.6999,6.6999,0.0,0.0,0.0,0.0,0.0,0.0,0.0,2.4137,2.4377,2.5023,2.5423,2.5752,2.6093,2.6393,2.6884,0.0,0.0,0.0,0.0,0.0,0.0,0.0,0.0,0.0,0.0,0.0,0.0,0.0,0.0,0.0,0.0,0.0,0.0,0.0,0.0,0.0,0.0,0.0,0.0,0.0,0.0,0.0,0.0,0.0,0.0,0.0,0.0,0.0,0.0,0.0,4.2671,4.4356,4.5065,4.7151,4.9277,4.9277,5.0182,5.1206,5.1206,5.1206,5.1206,5.1206,5.1206,5.1206,5.1206,5.1206,5.1206,5.1206,5.1206,5.1295,5.1594,5.2217,5.2995,5.4007,5.5564,5.6825,5.7483,5.8833,5.9767,5.9767,5.9657,5.9604,5.9702,5.9153,5.9218,6.023,6.0264,6.1394,6.4153,6.6013,6.6999,6.6999,6.6999,6.6999,6.6999,6.6999,6.6999,6.6999,6.6999,6.6999,6.6999,6.6999,6.6999,6.6999,6.6999,6.6999,6.6999,6.6999,6.6999,6.6999,6.6999,6.6999,6.6999,6.6999,6.6999,6.6999,0.0,0.0,0.0,0.0,0.0,0.0,2.4515,2.4593,2.4903,2.5693,2.6273,2.6644,2.6794,2.6824,2.7046,0.0,0.0,0.0,0.0,0.0,0.0,0.0,0.0,0.0,0.0,0.0,0.0,0.0,0.0,0.0,0.0,0.0,0.0,0.0,0.0,0.0,0.0,0.0,0.0,0.0,0.0,0.0,0.0,0.0,0.0,0.0,0.0,0.0,4.0307,4.1134,4.2252,4.3529,4.4885,4.6942,4.8947,4.9366,5.0212,5.1026,5.1146,5.1206,5.1206,5.1206,5.1206,5.1206,5.1206,5.1206,5.1206,5.1206,5.1206,5.1206,5.1206,5.1768,5.23,5.2688,5.4391,5.5905,5.6529,5.7421,5.8108,5.8461,5.7669,0.0,5.9078,5.7397,0.0,6.023,5.947,6.0333,6.3541,6.5073,6.6013,6.6415,6.6785,6.6999,6.6999,6.6999,6.6999,6.6999,6.6999,6.6999,6.6999,6.6999,6.6999,6.6999,6.6999,6.6999,6.6999,6.6999,6.6999,6.6999,6.6999,6.6999,6.6999,6.6999,6.6999,6.6999,0.0,0.0,0.0,0.0,0.0,0.0,0.0,2.4593,2.5053,2.6333,2.6554,2.6824,2.7435,2.7495,2.7525,0.0,0.0,0.0,0.0,0.0,0.0,0.0,0.0,0.0,0.0,0.0,0.0,0.0,0.0,0.0,0.0,0.0,0.0,0.0,0.0,0.0,0.0,0.0,0.0,0.0,0.0,0.0,0.0,0.0,0.0,0.0,0.0,3.9451,3.969,4.0984,4.2252,4.3529,4.4885,4.6292,4.7848,4.9591,5.0219,5.0405,5.1026,5.1206,5.1206,5.1206,5.1206,5.1206,5.1206,5.1206,5.1206,5.1206,5.1206,5.1206,5.1206,5.1768,5.1986,5.1306,5.278,5.4279,5.4994,5.5842,5.6912,5.8315,0.0,0.0,5.7324,5.6672,5.634,5.6678,5.8073,5.9747,6.173,6.1997,6.2854,6.4503,6.6137,6.6999,6.6999,6.6999,6.6999,6.6999,6.6999,6.6999,6.6999,6.6999,6.6999,6.6999,6.6999,6.6999,0.0,6.6999,6.6999,6.6999,6.6999,6.6999,6.6999,6.6999,6.6999,6.6999,0.0,0.0,0.0,0.0,0.0,0.0,2.5035,2.5214,2.5693,2.7046,2.7195,2.7315,2.7555,2.7585,2.7585,2.7585,0.0,0.0,0.0,0.0,0.0,0.0,0.0,0.0,0.0,0.0,0.0,3.0089,3.1194,0.0,0.0,0.0,0.0,0.0,0.0,0.0,0.0,0.0,0.0,0.0,0.0,0.0,0.0,0.0,0.0,0.0,0.0,0.0,3.9601,4.0954,4.1733,4.2611,4.5125,4.5992,4.6561,4.8955,5.0212,5.0877,5.1116,5.1206,5.1206,5.1206,5.1206,5.1206,5.1206,5.1206,5.1206,5.1206,5.1206,5.1206,5.1206,5.1439,5.1463,5.1071,5.2253,5.325,5.3444,5.4156,5.4849,5.5476,5.5563,0.0,0.0,0.0,5.6219,5.6219,5.6859,5.76,5.8295,6.0436,6.243,6.4249,6.501,6.5563,6.5975,6.7072,6.7777,6.8196,6.8196,6.8196,6.8196,6.7808,6.7598,6.7598,6.7178,6.6999,0.0,6.6999,6.6999,6.6999,6.6999,6.6999,6.6999,6.6999,6.6999,6.6999,0.0,0.0,0.0,0.0,0.0,2.4287,2.5435,2.5764,2.6315,2.7435,2.7585,2.7585,2.7585,2.7585,2.7585,2.7585,2.7585,0.0,0.0,0.0,0.0,0.0,0.0,0.0,0.0,0.0,3.0388,3.0658,3.1219,3.1511,0.0,0.0,0.0,0.0,0.0,0.0,0.0,0.0,0.0,0.0,0.0,0.0,0.0,0.0,0.0,0.0,0.0,0.0,0.0,0.0,0.0,4.2122,4.4625,4.5613,4.6381,4.8835,5.0062,5.072,5.1086,5.1206,5.1206,5.1206,5.1206,5.1206,5.1206,5.1056,5.0966,5.1146,5.1026,5.0966,5.1146,5.1206,5.1023,5.0452,5.1311,5.204,5.1855,5.2474,5.3166,5.3781,0.0,5.4672,5.4823,5.5666,5.6219,5.6219,5.6219,5.6412,5.6942,5.9061,6.1057,6.2876,6.4022,6.489,6.5524,6.7377,6.8525,6.9004,6.9004,6.9004,6.8974,6.8317,6.7987,6.7958,6.7299,6.6999,0.0,6.6999,6.6999,6.6999,6.6999,6.6999,6.6999,6.6999,6.6999,6.6999,0.0,0.0,0.0,0.0,0.0,0.0,2.5513,2.6153,2.6824,2.7495,2.7585,2.7585,2.7585,2.7585,2.7585,2.7585,2.7585,0.0,0.0,0.0,0.0,0.0,0.0,0.0,0.0,0.0,3.0223,3.1496,3.1511,3.1511,3.1511,3.1511,3.1511,3.1511,0.0,0.0,0.0,0.0,0.0,0.0,0.0,0.0,0.0,0.0,0.0,0.0,0.0,0.0,0.0,0.0,0.0,0.0,0.0,4.5134,4.7668,4.962,4.9793,4.9576,5.087,5.1206,5.1206,5.1206,5.1206,5.1206,5.1206,5.0697,5.0398,5.1056,5.0667,5.0405,5.1086,5.1206,5.068,4.9096,4.9721,5.0397,5.0327,5.0883,5.2114,0.0,5.4552,5.4823,5.534,5.5892,5.6219,5.6219,5.6219,0.0,5.8763,5.7706,5.7892,5.9703,6.3353,6.5552,6.6087,6.8025,6.9004,6.9004,6.9004,6.9004,6.8974,6.8317,6.7987,6.7958,6.7299,6.6999,0.0,6.6999,6.6999,6.6999,6.6999,6.6999,6.6999,6.6999,6.6999,6.6999,0.0,0.0,0.0,0.0,0.0,0.0,0.0,2.6183,2.6824,2.7495,2.7585,2.7585,2.7585,2.7585,2.7585,2.7585,2.7585,0.0,0.0,0.0,0.0,0.0,0.0,0.0,0.0,0.0,3.0628,3.1511,3.1511,3.1511,3.1511,3.1959,3.2168,3.2168,3.2168,0.0,0.0,0.0,0.0,0.0,0.0,0.0,0.0,0.0,0.0,0.0,0.0,0.0,0.0,0.0,0.0,0.0,0.0,0.0,0.0,4.7497,4.8716,4.9486,5.0278,5.0518,5.0518,5.0518,5.0518,5.0398,5.0025,4.9756,4.9763,5.0398,5.0345,5.0398,5.1086,5.1206,5.068,4.907,4.9694,5.0133,4.9384,5.0449,0.0,5.325,5.446,5.534,0.0,0.0,5.6219,5.6219,5.6219,5.6449,5.7014,5.7015,5.7819,5.9631,6.2481,6.4311,6.4928,6.8093,6.9871,7.029,7.029,7.029,7.026,6.9183,6.8675,6.8615,6.7478,6.6999,6.6999,6.6999,6.6999,6.6999,6.6999,6.6999,6.6999,6.6999,6.6999,6.6999,0.0,0.0,0.0,0.0,0.0,0.0,0.0,2.6183,2.6824,2.7495,2.7585,2.7585,2.7585,2.7585,2.7585,2.7585,2.7585,0.0,0.0,0.0,0.0,0.0,0.0,0.0,2.9578,3.0432,3.1226,3.1869,3.2123,3.2243,3.2273,3.2691,3.2886,3.2886,3.2886,3.2886,0.0,0.0,0.0,0.0,0.0,0.0,3.4623,0.0,0.0,0.0,0.0,0.0,0.0,0.0,0.0,0.0,0.0,0.0,0.0,0.0,4.692,4.8416,4.9553,4.9883,4.992,5.0159,5.0196,5.0159,5.0032,4.9845,4.9823,5.0458,5.0398,5.0398,5.1086,5.1206,5.068,4.907,4.9694,5.0042,4.895,5.025,0.0,5.3356,5.4813,0.0,0.0,5.6219,5.6219,5.6219,5.6219,5.6294,5.6483,5.701,5.8289,6.0299,6.2579,6.4061,6.4704,6.844,7.053,7.0889,7.0889,7.0889,7.0859,6.9572,6.9004,6.8944,6.7567,6.6999,0.0,6.6999,6.6999,6.6999,6.6999,6.6999,6.6999,6.6999,6.6999,6.6999,0.0,0.0,0.0,0.0,0.0,0.0,0.0,2.6093,2.6764,2.7435,2.7525,2.7555,2.7585,2.7585,2.7585,2.7585,0.0,0.0,0.0,0.0,0.0,0.0,0.0,0.0,2.9728,3.0957,3.1899,3.2572,3.3185,3.3484,3.3484,3.3544,3.3574,3.3574,3.3574,3.353,0.0,0.0,0.0,0.0,0.0,3.3365,0.0,0.0,0.0,0.0,0.0,0.0,0.0,0.0,0.0,0.0,0.0,0.0,0.0,0.0,0.0,0.0,0.0,4.9179,4.9366,4.992,5.0076,5.0308,5.0847,5.0548,0.0,5.0996,5.0637,5.0398,5.1086,5.1165,5.0618,4.9099,4.9666,4.9976,4.9046,5.0426,0.0,0.0,5.5541,5.6219,5.6219,5.6219,5.6219,5.6219,5.6219,5.6408,5.696,5.7575,5.894,6.1232,6.3367,6.4775,6.5427,6.9057,7.0889,7.0889,7.0889,7.0889,7.0799,6.9572,6.8974,0.0,6.7567,6.6999,0.0,6.6999,6.6999,6.6999,6.6999,6.6999,6.6999,6.6999,6.6999,6.6999,0.0,0.0,0.0,0.0,0.0,0.0,0.0,0.0,0.0,0.0,2.6824,2.7046,2.7555,2.7585,2.7585,0.0,0.0,0.0,0.0,0.0,0.0,0.0,0.0,0.0,3.1046,3.1854,3.2572,3.3275,3.3425,3.3484,3.3514,3.4009,3.4248,3.4248,3.4248,3.3709,0.0,0.0,0.0,0.0,3.3275,3.4083,0.0,0.0,0.0,0.0,3.7387,3.8255,0.0,0.0,0.0,0.0,0.0,0.0,0.0,0.0,4.3618,4.4446,4.645,0.0,4.8588,4.8716,4.9134,4.9426,0.0,4.9277,4.9673,5.0308,5.0315,0.0,5.1086,5.0699,5.0083,4.9523,4.9456,4.9599,4.9974,5.2201,0.0,5.4547,5.5541,5.6219,5.6219,5.6219,5.6219,5.6219,5.6219,5.6408,5.696,5.7575,5.8353,5.9338,6.3045,6.5782,6.7404,6.9748,7.0889,7.0889,7.0889,7.0649,7.0171,6.9363,6.8704,6.8197,6.7389,6.6999,6.6999,6.6999,6.6999,6.6999,6.6999,6.6999,6.6999,6.6999,6.6999,6.6999,0.0,0.0,0.0,0.0,0.0,0.0,0.0,0.0,0.0,0.0,0.0,2.6734,2.7106,2.7405,0.0,0.0,0.0,0.0,0.0,0.0,0.0,0.0,0.0,3.0807,3.1466,3.2751,3.3754,3.4412,3.4711,3.5011,3.531,3.5639,3.5685,3.5386,3.5086,3.4382,0.0,0.0,0.0,0.0,3.3275,0.0,0.0,0.0,0.0,0.0,3.7387,3.8255,0.0,3.9391,3.9391,3.9451,0.0,0.0,0.0,0.0,4.2831,4.3589,4.5014,4.636,4.7519,4.8169,4.8798,4.9277,4.9194,4.9673,5.0272,5.0578,5.0667,0.0,0.0,5.1111,5.0947,4.9335,5.0835,5.2328,5.2641,5.3808,5.4697,5.4949,5.5691,5.6219,0.0,5.6219,5.6219,5.6219,5.6219,5.657,5.7361,5.7725,5.9068,6.159,6.3975,6.571,6.6754,6.952,7.0889,7.0889,7.0889,7.059,6.9993,6.9303,6.8615,6.7958,6.7299,6.6999,6.6999,6.6999,6.6999,6.6999,6.6999,6.6999,6.6999,6.6999,6.6999,6.6999,0.0,0.0,0.0,0.0,0.0,0.0,0.0,0.0,0.0,0.0,0.0,0.0,0.0,0.0,0.0,0.0,0.0,0.0,0.0,0.0,0.0,0.0,0.0,3.16,3.1809,3.3664,3.4997,3.5639,3.6297,3.6896,3.7387,3.7387,3.7075,3.6493,3.5908,3.522,0.0,0.0,0.0,0.0,3.3275,0.0,0.0,0.0,0.0,0.0,0.0,0.0,0.0,3.9361,3.9391,3.9391,3.9391,0.0,0.0,0.0,0.0,0.0,4.4177,4.5284,4.642,4.7698,4.8648,4.9426,4.9949,5.0637,5.1206,5.1206,5.1265,5.1143,0.0,5.1687,0.0,0.0,0.0,5.5095,5.5017,5.4756,5.4798,5.5315,5.5867,0.0,5.6219,5.6219,5.6219,5.6219,5.6219,5.6721,5.7851,5.7901,5.9853,6.4192,6.4642,6.4786,6.4786,6.8826,7.0889,7.0889,7.0799,7.0281,6.9429,6.9028,6.834,6.7405,0.0,0.0,6.6999,6.6692,6.6754,6.6968,6.6692,6.6754,6.6999,6.6999,6.6999,6.6999,0.0,0.0,0.0,0.0,0.0,0.0,0.0,0.0,0.0,0.0,0.0,0.0,0.0,0.0,0.0,0.0,0.0,0.0,0.0,0.0,0.0,2.9458,3.0777,3.2019,3.3155,3.4622,3.5669,3.6344,3.6956,3.7315,3.7387,3.7387,3.7075,3.6493,3.6404,3.5655,3.4503,3.4278,0.0,3.4488,3.4278,0.0,0.0,0.0,0.0,0.0,0.0,0.0,0.0,3.9212,3.9391,3.9391,3.9391,0.0,0.0,0.0,0.0,0.0,4.4526,4.5304,4.5633,4.642,4.7967,4.9307,4.9426,5.0361,5.1206,5.1206,5.1648,5.1995,5.1893,5.1391,5.0989,0.0,0.0,5.2291,5.3181,5.4033,5.4798,5.5315,0.0,5.6219,5.6219,5.6219,5.6219,5.6219,5.6219,5.6721,5.7851,5.7901,5.8681,6.0329,6.1977,6.2831,6.2831,6.8219,7.0889,7.0889,7.038,6.9015,6.6912,6.7745,6.6938,6.4935,0.0,6.6999,6.6877,6.5326,6.5608,6.6846,6.5295,6.5639,6.6999,6.6999,6.6999,6.6999,0.0,0.0,0.0,0.0,0.0,0.0,0.0,0.0,0.0,0.0,0.0,0.0,0.0,0.0,0.0,0.0,0.0,0.0,0.0,0.0,0.0,2.9608,3.1509,3.2871,3.3484,3.516,3.6357,3.6985,3.7614,3.8123,3.8464,3.8123,3.7793,3.7511,3.6823,3.6164,3.5535,3.4803,3.4697,3.5027,0.0,0.0,0.0,0.0,0.0,0.0,0.0,0.0,0.0,0.0,3.9391,3.9391,3.9391,0.0,0.0,0.0,0.0,0.0,4.4137,4.5035,4.5544,4.657,4.8079,4.9396,4.9703,0.0,5.1295,5.1678,5.2007,5.2299,5.2591,5.3172,5.3979,5.5054,0.0,5.3878,5.5005,5.5096,5.5214,0.0,0.0,5.6219,5.6219,5.6219,5.6219,5.6219,5.6219,5.6721,5.7851,5.7901,5.8845,6.0988,6.1928,6.2904,6.3912,6.6213,6.74,6.74,6.7113,6.6045,6.4307,6.4855,6.4271,6.2887,0.0,6.4088,6.4024,6.3182,6.3927,6.5482,6.463,6.5389,6.6999,6.6999,6.6999,6.6999,0.0,0.0,0.0,0.0,0.0,0.0,0.0,0.0,0.0,0.0,0.0,0.0,0.0,0.0,0.0,0.0,0.0,0.0,0.0,0.0,2.9608,2.9608,3.2093,3.3484,3.3484,3.5609,3.6926,3.7387,3.8242,3.8901,3.9391,3.8871,3.8542,3.835,3.7212,3.6626,3.6434,3.5236,3.5011,3.5459,0.0,0.0,0.0,0.0,0.0,0.0,0.0,0.0,0.0,0.0,0.0,0.0,0.0,0.0,0.0,4.1014,4.1403,4.1852,4.3958,4.5035,4.5903,4.7399,4.8528,0.0,0.0,0.0,0.0,0.0,0.0,0.0,5.3438,5.4712,5.5995,5.6871,5.5767,5.52,5.6339,5.5877,5.5591,5.6143,5.6219,5.6219,5.6219,5.6219,5.6219,5.6219,5.6219,5.6646,5.765,5.77,5.8816,6.1249,6.135,6.2027,6.3479,6.3055,6.339,6.4407,6.4103,6.3252,6.1994,6.2239,6.1868,6.0988,6.1427,6.1595,6.1562,6.1123,6.2031,6.3606,6.3215,6.4153,6.5733,6.5733,6.5733,6.5796,0.0,0.0,0.0,0.0,0.0,0.0,0.0,0.0,0.0,0.0,0.0,0.0,0.0,0.0,0.0,0.0,0.0,0.0,0.0,0.0,2.9608,2.9608,3.2093,3.3484,3.3484,3.6028,3.7375,3.7387,3.8703,3.9361,3.9391,3.9361,3.902,3.838,3.7644,3.7015,0.0,0.0,3.5459,3.5519,3.5459,0.0,0.0,0.0,0.0,0.0,0.0,0.0,0.0,0.0,0.0,0.0,0.0,0.0,3.966,4.1014,4.1403,4.1972,4.4526,4.5723,4.6689,4.8678,4.9239,0.0,5.0069,5.1206,0.0,5.2187,0.0,0.0,0.0,5.4645,5.3957,5.2741,5.2843,5.3479,5.4598,0.0,5.5591,5.6143,5.6219,5.6219,5.6219,5.6219,5.6219,5.6219,5.6219,5.647,5.7035,5.706,5.7411,5.8202,5.8227,5.8302,5.8427,5.8402,6.0394,6.4407,6.3273,6.18,6.0137,6.1179,6.0736,5.9183,6.0852,6.1595,6.1461,5.9782,6.0161,6.1629,5.9954,6.0401,6.1997,6.1997,6.1997,6.223,0.0,0.0,0.0,0.0,0.0,0.0,0.0,0.0,0.0,0.0,0.0,0.0,0.0,0.0,0.0,0.0,0.0,0.0,0.0,2.8873,2.9608,2.9608,3.2093,3.3484,3.3484,3.6058,3.7387,3.7387,3.8733,3.9391,3.9391,3.9391,3.9272,3.899,3.8332,0.0,0.0,0.0,0.0,3.5519,3.5519,3.5519,0.0,0.0,0.0,0.0,0.0,0.0,0.0,0.0,3.8571,3.8841,3.9272,3.9391,3.966,4.1014,4.1703,4.2481,4.4706,4.6082,4.7309,4.8887,4.9905,0.0,0.0,5.1558,5.2426,5.3264,5.4371,0.0,0.0,0.0,5.6265,5.4386,5.4899,5.5425,5.5142,5.5541,5.5968,5.6194,5.6219,5.6219,5.6219,5.6219,5.6219,5.6219,5.6219,5.6408,5.696,5.6985,5.7261,5.7876,5.7901,5.7901,5.7901,5.7549,5.8179,5.9783,5.9329,5.8605,5.761,5.807,5.7859,5.7267,5.7931,5.8224,5.8215,5.7492,5.8295,5.9954,6.0436,6.0988,6.1595,6.1595,6.1595,6.1696,0.0,0.0,0.0,0.0,0.0,0.0,0.0,0.0,0.0,0.0,0.0,0.0,0.0,0.0,0.0,0.0,0.0,0.0,2.7585,2.8873,2.9608,2.9608,3.2093,3.3484,3.3484,3.5878,3.7225,3.7387,3.8733,3.9391,3.9391,3.9391,3.9391,3.9361,0.0,0.0,0.0,0.0,0.0,0.0,3.5519,3.5519,0.0,0.0,0.0,0.0,0.0,0.0,0.0,0.0,3.808,3.8499,3.896,3.9242,3.966,4.1014,4.1852,4.283,4.4786,4.6441,4.7878,4.9007,0.0,0.0,5.1468,5.2217,5.3144,5.4281,5.5538,5.6591,5.7108,0.0,0.0,5.5855,5.6006,5.6105,5.5469,5.5867,5.6219,5.6219,5.6219,5.6219,5.6219,5.6219,5.6219,5.6219,5.6219,5.6369,5.6709,5.6734,5.6947,5.7349,5.7374,5.7374,5.7374,5.6935,5.6734,5.6734,5.6734,5.657,5.6219,5.6219,5.6219,5.6219,5.6219,5.6219,5.6219,5.6219,5.6931,5.8179,5.9427,5.9885,5.9885,5.9885,5.9885,5.9989,0.0,0.0,0.0,0.0,0.0,0.0,0.0,0.0,0.0,0.0,0.0,0.0,0.0,0.0,0.0,0.0,0.0,0.0,2.7585,2.8873,2.9608,2.9608,3.2093,3.3484,3.3484,3.5476,3.6806,3.7417,3.8733,3.9391,3.9391,3.9391,3.9391,0.0,0.0,0.0,0.0,0.0,0.0,0.0,3.5519,3.5519,3.5519,0.0,0.0,0.0,0.0,0.0,0.0,0.0,3.7332,3.8409,3.8409,3.8871,3.966,4.1014,4.1901,4.283,4.4766,4.677,4.8468,4.9127,5.0242,5.1385,5.2067,5.3234,5.4401,5.5089,5.7304,5.8965,5.8552,5.7659,0.0,5.6365,5.5322,5.4798,5.5315,5.5867,5.6219,5.6219,5.6219,5.6219,5.6219,5.6219,5.6219,5.6219,5.6219,5.6219,5.6219,5.6219,5.6219,5.6219,5.6219,5.6219,5.6219,5.6219,5.6219,5.6219,5.6219,5.6219,5.6219,5.6219,5.6219,5.6219,5.6219,5.6219,5.6219,5.6219,5.6219,5.6219,5.6219,5.6219,5.6219,5.6219,5.6219,5.6449,0.0,0.0,0.0,0.0,0.0,0.0,0.0,0.0,0.0,0.0,0.0,0.0,0.0,0.0,0.0,0.0,0.0,0.0,2.7585,2.8873,2.9608,2.9608,3.1659,3.3036,3.3484,3.5878,3.7464,3.8093,3.8973,3.9391,3.9391,3.9391,0.0,0.0,0.0,0.0,0.0,0.0,0.0,0.0,3.5519,3.5519,3.5519,0.0,0.0,0.0,0.0,0.0,0.0,0.0,0.0,0.0,3.8242,3.8871,3.966,4.1014,4.2162,4.3339,4.4885,4.7121,4.9037,4.9247,5.0624,5.2067,5.2725,5.3563,0.0,0.0,5.862,5.9163,5.7105,5.7169,0.0,5.5383,5.5153,5.534,5.5892,5.6118,5.6219,5.6219,5.6219,5.6219,5.6219,5.6219,5.6219,5.6219,5.6219,5.6219,5.6219,5.6219,5.6219,5.6219,5.6219,5.6219,5.6219,5.6219,5.6219,5.6219,5.6219,5.6219,5.6219,5.6219,5.6219,5.6219,5.6219,5.6219,5.6219,5.6219,5.6219,5.6219,5.6219,5.6219,5.6219,5.6219,5.6219,5.6267,0.0,0.0,0.0,0.0,0.0,0.0,0.0,0.0,0.0,0.0,2.361,2.3969,0.0,0.0,0.0,0.0,0.0,0.0,2.7585,2.8873,2.9608,2.9608,3.148,3.2946,3.3889,3.5699,3.7105,3.8003,3.8943,3.9391,3.9391,0.0,0.0,0.0,0.0,0.0,0.0,0.0,0.0,0.0,3.5609,3.5519,3.5519,0.0,0.0,0.0,0.0,0.0,0.0,0.0,0.0,0.0,3.7883,3.8661,3.966,4.1014,4.2132,4.3299,4.4855,4.7061,4.8977,4.9217,5.0564,5.2187,5.3677,5.47,5.5957,5.8055,5.9025,5.9042,5.765,5.7288,5.6849,5.577,5.5487,5.5591,5.6143,5.6219,5.6219,5.6219,5.6219,5.6219,5.6219,5.6219,5.6219,5.6219,5.6219,5.6219,5.6219,5.6219,5.6219,5.6219,5.6219,5.6219,5.6219,5.6219,5.6219,5.6219,5.6219,5.6219,5.6219,5.6219,5.6219,5.6219,5.6219,5.6219,5.6219,5.6219,5.6219,5.6219,5.6219,5.6219,5.6219,5.6219,5.6219,5.6219,0.0,0.0,0.0,0.0,0.0,0.0,0.0,0.0,0.0,2.361,2.361,2.4118,0.0,0.0,0.0,2.7495,2.7585,2.7585,2.7585,2.8813,2.9518,2.9518,3.136,3.3006,3.4278,3.51,3.6088,3.7225,3.8614,3.9331,0.0,0.0,0.0,0.0,0.0,0.0,0.0,0.0,0.0,0.0,3.6061,3.5774,3.5693,3.5633,0.0,0.0,0.0,0.0,0.0,0.0,0.0,0.0,3.7375,3.8285,3.9571,4.0924,4.1841,4.283,4.4706,4.6711,4.8468,4.9127,5.0331,5.2019,5.443,5.6064,5.7483,5.889,5.8831,5.8663,5.9176,5.767,5.6479,5.6802,5.6053,5.5641,5.6143,5.6219,5.6219,5.6219,5.6219,5.6219,5.6219,5.6219,5.6219,5.6219,5.6219,5.6219,5.6219,5.6219,5.6219,5.6219,5.6219,5.6219,5.6219,5.6219,5.6219,5.6219,5.6219,5.6219,5.6219,5.6219,5.6219,5.6219,5.6219,5.6219,5.6219,5.6219,5.6219,5.6219,5.6219,5.6219,5.6219,5.6219,5.6219,5.6219,0.0,0.0,0.0,0.0,0.0,0.0,0.0,0.0,2.361,2.361,2.361,2.4118,2.5453,2.5603,0.0,2.7495,2.7585,2.7585,2.7585,2.8351,2.8816,2.8816,3.0687,3.2079,3.2916,3.4622,3.5639,3.5908,3.7734,3.8901,0.0,0.0,0.0,0.0,0.0,0.0,0.0,0.0,0.0,0.0,0.0,3.7778,3.7154,3.6584,3.6006,0.0,0.0,0.0,0.0,0.0,0.0,0.0,3.7255,3.7973,3.8871,4.0217,4.1463,4.271,4.4137,4.6352,4.8468,4.9127,5.1043,5.2881,5.3247,5.5276,5.7633,5.9488,5.9152,5.8308,5.7662,5.7185,5.651,5.5331,5.5616,5.6068,5.6194,5.6219,5.6219,5.6219,5.6219,5.6219,5.6219,5.6219,5.6219,5.6219,5.6219,5.6219,5.6219,5.6219,5.6219,5.6219,5.6219,5.6219,5.6219,5.6219,5.6219,5.6219,5.6219,5.6219,5.6219,5.6219,5.6219,5.6219,5.6219,5.6219,5.6219,5.6219,5.6219,5.6219,5.6219,5.6219,5.6219,5.6219,5.6219,5.6219,0.0,0.0,0.0,0.0,0.0,0.0,0.0,0.0,2.3729,2.4048,2.4077,2.4586,2.5944,2.6063,0.0,0.0,2.7585,2.7585,2.7585,2.8231,2.8727,2.9069,3.0329,3.1346,3.2004,3.3678,3.4861,3.5519,3.6836,3.7973,0.0,0.0,0.0,0.0,0.0,0.0,0.0,0.0,0.0,0.0,0.0,0.0,3.752,3.7122,3.6737,3.64,3.64,0.0,0.0,0.0,0.0,0.0,0.0,0.0,3.8679,4.0008,4.1134,4.2271,4.3868,4.6022,4.8207,4.9793,5.1732,5.307,5.2535,5.4858,5.7235,5.771,5.7562,5.7073,5.6364,5.6077,5.5611,5.4739,5.5491,5.6219,5.6219,5.6219,5.6219,5.6219,5.6219,5.6219,5.6219,5.6219,5.6219,5.6219,5.6219,5.6219,5.6219,5.6219,5.6219,5.6219,5.6219,5.6219,5.6219,5.6219,5.6219,5.6219,5.6219,5.6219,5.6219,5.6219,5.6219,5.6219,5.6219,5.6219,5.6219,5.6219,5.6219,5.6219,5.6219,5.6219,5.6219,5.6219,5.6219,5.6219,0.0,0.0,0.0,0.0,0.0,0.0,0.0,0.0,0.0,2.4694,2.4784,2.5244,2.6465,2.6614,2.6884,0.0,0.0,0.0,2.7597,2.8111,2.874,2.9398,2.9894,3.0538,3.1301,3.2512,3.3814,3.516,3.5835,0.0,0.0,0.0,0.0,0.0,0.0,0.0,0.0,0.0,0.0,0.0,0.0,0.0,0.0,0.0,0.0,3.7387,3.7387,3.7075,3.6673,3.6673,0.0,0.0,0.0,0.0,3.8631,3.9858,4.0786,4.1792,4.3629,4.5873,4.8177,5.0458,5.2127,5.2931,5.1817,5.4253,5.623,5.4656,5.52,5.5862,5.5444,5.498,5.4597,5.4597,5.5491,5.6219,5.6219,5.6219,5.6219,5.6219,5.6219,5.6219,5.6219,5.6219,5.6219,5.6219,5.6219,5.6219,5.6219,5.6219,5.6219,5.6219,5.6219,5.6219,5.6219,5.6219,5.6219,5.6219,5.6219,5.6219,5.6219,5.6219,5.6219,5.6219,5.6219,5.6219,5.6219,5.6219,5.6219,5.6219,5.6219,5.6219,5.6219,5.6219,5.6219,5.6219,0.0,0.0,0.0,0.0,0.0,0.0,0.0,0.0,0.0,0.0,2.5453,2.5764,2.6524,2.6614,2.6884,2.7525,2.8094,2.818,2.7623,0.0,0.0,2.8697,2.8816,2.9415,3.0598,3.1375,3.2422,3.3754,3.4428,0.0,0.0,0.0,0.0,0.0,0.0,0.0,0.0,0.0,0.0,0.0,0.0,0.0,0.0,0.0,0.0,0.0,3.7387,3.7345,3.7285,3.7285,3.7285,0.0,0.0,0.0,3.8542,3.9302,4.0427,4.1703,4.307,4.6172,4.9247,5.0129,5.1798,5.263,5.0418,5.2617,5.4205,5.1012,5.3378,5.5862,5.5444,5.498,5.4597,5.4597,5.5491,5.6219,5.6219,5.6219,5.6219,5.6219,5.6219,5.6219,5.6219,5.6219,5.6219,5.6219,5.6219,5.6219,5.6219,5.6219,5.6219,5.6219,5.6219,5.6219,5.6219,5.6219,5.6219,5.6219,5.6219,5.6219,5.6219,5.6219,5.6219,5.6219,5.6219,5.6219,5.6219,5.6219,5.6219,5.6219,5.6219,5.6219,5.6219,5.6219,5.6219,5.6219,0.0,0.0,0.0,0.0,0.0,0.0,0.0,0.0,0.0,0.0,0.0,2.6435,2.7106,2.7165,2.7285,2.7555,2.7848,2.7885,2.761,2.7585,2.7735,2.8034,2.8397,2.9026,2.9967,3.0972,3.2153,3.3484,0.0,0.0,0.0,3.6604,3.7449,0.0,0.0,0.0,0.0,0.0,0.0,0.0,0.0,4.029,0.0,0.0,0.0,0.0,0.0,3.8285,3.7973,3.7973,3.7704,3.7524,3.8182,0.0,0.0,0.0,4.0079,4.1354,4.3778,4.6531,4.8955,4.9949,5.1415,5.2048,4.9674,5.1809,5.3276,4.9845,5.1841,5.4054,5.3627,5.3858,5.422,5.4547,5.5239,5.5867,5.6168,5.6219,5.6219,5.6219,5.6219,5.6219,5.6219,5.6219,5.6219,5.6219,5.6219,5.6219,5.6219,5.6219,5.6219,5.6219,5.6219,5.6219,5.6219,5.6219,5.6219,5.6219,5.6219,5.6219,5.6219,5.6219,5.6219,5.6219,5.6219,5.6219,5.6219,5.6219,5.6219,5.6219,5.6219,5.6219,5.6219,5.6219,5.6219,5.6219,0.0,0.0,0.0,0.0,0.0,0.0,0.0,0.0,0.0,0.0,0.0,2.7033,2.7555,0.0,0.0,0.0,2.7897,2.8052,2.8052,2.7773,2.7585,2.7585,2.8081,2.874,2.9578,3.0522,3.1764,3.3245,0.0,0.0,3.525,3.5429,3.6357,0.0,3.8063,0.0,0.0,0.0,0.0,0.0,4.0361,4.017,0.0,0.0,0.0,0.0,0.0,0.0,3.8691,3.8841,3.8452,3.8003,3.8512,3.8661,0.0,0.0,0.0,4.1474,4.4077,4.6381,4.8297,4.9441,5.0817,5.1375,4.9282,5.0978,5.2156,4.9163,5.0383,5.1942,5.1707,5.2678,5.3683,5.4295,5.4974,5.5541,5.5942,5.6118,5.6219,5.6219,5.6219,5.6219,5.6219,5.6219,5.6219,5.6219,5.6219,5.6219,5.6219,5.6219,5.6219,5.6219,5.6219,5.6219,5.6219,5.6219,5.6219,5.6219,5.6219,5.6219,5.6219,5.6219,5.6219,5.6219,5.6219,5.6219,5.6219,5.6219,5.6219,5.6219,5.6219,5.6219,5.6219,5.6219,5.6219,5.6219,0.0,0.0,0.0,0.0,0.0,0.0,0.0,0.0,0.0,0.0,0.0,2.7555,2.7585,2.7585,2.7585,2.7585,2.8646,2.9305,2.9305,2.8247,2.7585,2.7585,2.7615,0.0,2.9578,2.9668,3.0656,0.0,0.0,0.0,3.4548,3.519,3.5878,3.6613,3.7195,3.7823,3.8499,0.0,0.0,0.0,0.0,4.017,0.0,0.0,0.0,0.0,0.0,0.0,0.0,4.0098,3.984,3.9302,3.9331,3.9361,3.9361,0.0,0.0,0.0,4.319,4.5343,4.7519,4.8207,4.9853,5.0819,4.917,4.983,5.0227,4.8329,4.89,4.9913,5.0393,5.1816,5.3096,5.3658,5.4662,5.539,5.544,5.5892,5.6219,5.6219,5.6219,5.6219,5.6219,5.6219,5.6219,5.6219,5.6219,5.6219,5.6219,5.6219,5.6219,5.6219,5.6219,5.6219,5.6219,5.6219,5.6219,5.6219,5.6219,5.6219,5.6219,5.6219,5.6219,5.6219,5.6219,5.6219,5.6219,5.6219,5.6219,5.6219,5.6219,5.6219,5.6219,5.6219,5.6219,5.6219,0.0,0.0,0.0,0.0,0.0,0.0,0.0,0.0,0.0,0.0,0.0,0.0,0.0,0.0,0.0,2.8873,2.8895,2.8897,2.8897,2.8089,2.7585,2.7585,2.7585,2.8214,2.9578,2.9608,0.0,0.0,0.0,3.3425,3.4503,3.4757,3.5236,3.5908,3.6956,3.7764,3.8422,3.914,0.0,0.0,0.0,0.0,0.0,0.0,0.0,0.0,0.0,0.0,0.0,4.0457,4.0247,3.9978,3.9541,3.9391,3.9391,3.9391,4.0217,4.1343,4.2451,4.4317,4.6381,4.793,4.9434,5.0141,4.8582,4.9115,4.9381,4.7281,4.8058,4.927,4.9791,5.1272,5.2578,5.3096,5.3833,5.4436,5.4848,5.534,5.5691,5.5691,5.5993,5.6219,5.6219,5.6219,5.6219,5.6219,5.6219,5.6219,5.6219,5.6219,5.6219,5.6219,5.6219,5.6219,5.6219,5.6219,5.6219,5.6219,5.6219,5.6219,5.6219,5.6219,5.6219,5.6219,5.6219,5.6219,5.6219,5.6219,5.6219,5.6219,5.6219,5.6219,5.6219,5.6219,5.6219,5.6219,0.0,0.0,0.0,0.0,0.0,0.0,0.0,0.0,0.0,0.0,0.0,0.0,0.0,0.0,0.0,2.987,2.9309,2.9012,2.9234,2.842,2.7944,2.7944,2.7735,2.8214,2.9578,0.0,0.0,0.0,0.0,0.0,0.0,0.0,3.4847,3.5579,3.6836,0.0,0.0,0.0,0.0,3.9787,0.0,0.0,4.1171,0.0,0.0,0.0,0.0,0.0,0.0,0.0,0.0,0.0,0.0,0.0,0.0,0.0,0.0,0.0,4.1762,4.3169,4.4748,4.6542,4.776,4.8264,4.7192,4.7676,4.7961,4.6582,4.7179,4.8234,4.9138,5.0393,5.1574,5.2468,5.3105,5.3632,5.422,5.4798,5.515,5.515,5.5591,5.5942,5.5942,5.6093,5.6219,5.6219,5.6219,0.0,5.6219,5.6219,5.6219,5.6219,5.6219,5.6219,5.6219,5.6219,5.6219,5.6219,5.6219,5.6219,5.6219,5.6219,5.6219,5.6219,5.6219,5.6219,5.6219,5.6219,5.6219,5.6219,5.6219,5.6219,5.6219,5.6219,5.6219,5.6219,0.0,0.0,0.0,0.0,0.0,0.0,0.0,0.0,0.0,0.0,0.0,0.0,0.0,0.0,0.0,3.0552,3.0014,2.989,3.0503,2.9334,2.8637,2.8637,2.8004,2.8274,2.9608,0.0,0.0,0.0,0.0,0.0,0.0,0.0,3.4847,0.0,3.6836,3.7387,3.7477,0.0,3.9828,4.0471,0.0,4.2041,4.2507,0.0,0.0,0.0,4.4087,4.3908,0.0,4.3319,0.0,0.0,0.0,0.0,0.0,0.0,0.0,0.0,0.0,0.0,0.0,4.4055,4.4875,4.5278,4.505,4.5442,4.5947,4.6171,4.6276,4.6803,4.8441,4.9163,5.0092,5.1774,5.2468,5.302,5.3582,5.4195,5.4572,5.4572,5.5074,5.5365,5.5365,5.5842,5.6168,5.6194,5.6194,5.6194,5.6219,5.6219,5.6219,5.6219,5.6219,5.6219,5.6219,5.6219,5.6219,5.6219,5.6219,5.6219,5.6219,5.6219,5.6219,5.6219,5.6219,5.6219,5.6219,5.6219,5.6219,5.6219,5.6219,5.6219,5.6219,5.6219,5.6219,5.6219,0.0,0.0,0.0,0.0,0.0,3.0987,3.0987,3.1809,0.0,0.0,0.0,0.0,0.0,0.0,0.0,0.0,3.164,3.1057,3.121,3.0019,2.9309,2.9309,2.9129,2.9428,3.0223,0.0,0.0,0.0,0.0,0.0,0.0,0.0,0.0,0.0,3.6836,3.7387,3.7524,3.9349,0.0,0.0,4.2239,4.2995,0.0,0.0,0.0,0.0,0.0,4.4915,4.4676,0.0,4.3908,4.3539,0.0,0.0,0.0,0.0,0.0,0.0,4.1961,0.0,0.0,0.0,0.0,0.0,4.4674,4.5179,4.5635,4.4709,4.5472,4.6451,4.6903,4.7757,4.8786,5.0067,5.1096,5.1925,5.2477,5.303,5.3507,5.3884,5.4471,5.4823,5.4823,5.4974,5.5189,0.0,5.5616,5.5792,5.6194,5.6219,5.6219,5.6219,5.6219,5.6219,5.6219,5.6219,5.6219,5.6219,5.6219,5.6219,5.6219,5.6219,5.6219,5.6219,5.6219,5.6219,5.6219,5.6219,5.6219,5.6219,5.6219,5.6219,5.6219,5.6219,5.6219,5.6219,0.0,0.0,3.0147,3.0702,3.1405,3.2019,3.2303,3.3245,3.3919,0.0,0.0,0.0,0.0,0.0,0.0,0.0,3.3215,3.2632,3.2362,3.1106,3.0402,3.0402,2.9877,2.9877,3.0492,3.0253,0.0,0.0,0.0,0.0,0.0,0.0,0.0,0.0,0.0,0.0,0.0,0.0,0.0,0.0,4.284,0.0,0.0,4.5753,4.6292,0.0,0.0,0.0,4.6882,4.6202,4.5424,0.0,0.0,0.0,0.0,0.0,0.0,0.0,0.0,0.0,0.0,0.0,0.0,0.0,0.0,4.3716,4.4245,4.386,4.4568,4.5397,4.5874,4.6677,4.7531,4.8435,4.9314,5.0318,5.1574,5.2051,5.2352,5.2653,5.3406,5.3884,5.3884,5.4321,5.4723,5.5049,5.5074,5.529,5.5842,5.6093,5.6219,5.6219,5.6219,5.6219,5.6219,5.6219,5.6219,5.6219,5.6219,5.6219,5.6219,5.6219,5.6219,5.6219,5.6219,5.6219,5.6219,5.6219,5.6219,5.6219,5.6219,5.6219,5.6219,5.6219,5.6219,5.6219,0.0,0.0,3.112,3.2303,3.2632,3.2946,3.3634,3.4278,3.4743,0.0,0.0,0.0,0.0,0.0,0.0,0.0,0.0,3.4458,3.3873,3.2572,3.1839,3.1839,3.0612,3.0177,3.0702,3.0103,3.0372,0.0,0.0,0.0,0.0,0.0,0.0,0.0,3.7135,3.7823,0.0,0.0,0.0,4.268,4.3349,4.4736,0.0,0.0,4.7818,0.0,4.9097,4.9277,4.9187,4.8618,4.716,0.0,0.0,0.0,0.0,0.0,4.1822,0.0,0.0,0.0,0.0,0.0,0.0,0.0,0.0,4.1681,4.2386,4.3413,4.3664,4.4041,4.5095,4.5748,4.6271,4.6823,4.735,4.8485,5.0728,5.1046,5.1122,5.1172,5.2101,5.2719,5.2719,5.3683,5.4346,5.4421,5.4522,5.4823,5.5265,5.5817,5.6118,5.6118,5.6168,5.6219,5.6219,5.6219,5.6219,5.6219,5.6219,5.6219,5.6219,5.6219,5.6219,5.6219,5.6219,5.6219,5.6219,5.6219,5.6219,5.6219,5.6219,5.6219,5.6219,5.6219,5.6219,5.6219,3.1182,3.1734,3.2183,3.2452,3.3395,3.4338,3.5011,3.5685,3.6284,0.0,0.0,0.0,0.0,0.0,0.0,0.0,0.0,0.0,3.5925,3.4667,3.3919,3.3919,3.2647,3.1974,3.2123,3.1465,3.1241,3.1511,0.0,0.0,0.0,0.0,0.0,0.0,0.0,0.0,0.0,0.0,0.0,4.3988,4.4646,0.0,4.7189,4.7848,4.8528,4.9127,4.9247,4.9277,4.9299,4.9157,4.8498,4.7578,0.0,0.0,0.0,0.0,0.0,0.0,0.0,0.0,0.0,0.0,0.0,0.0,0.0,4.1076,4.1654,4.2361,4.2864,4.3366,4.4016,4.4593,4.5116,4.5723,4.6276,4.723,4.9044,4.964,5.0092,5.0519,5.1197,5.1599,5.1599,5.2201,5.2779,5.3206,5.4059,5.4647,5.4748,5.5239,5.5541,5.5541,5.5968,5.6219,5.6219,5.6219,5.6219,5.6219,5.6219,5.6219,5.6219,5.6219,5.6219,5.6219,5.6219,5.6219,5.6219,5.6219,5.6219,5.6219,5.6219,5.6219,5.6219,5.6219,5.6219,5.6219,3.1869,3.2273,3.2691,3.3365,3.4338,3.522,3.5878,3.6806,0.0,0.0,0.0,0.0,0.0,0.0,0.0,0.0,0.0,0.0,3.6956,3.6044,3.5506,3.5506,3.4203,3.3484,3.3484,3.2856,3.2512,3.2512,0.0,0.0,0.0,0.0,0.0,0.0,0.0,0.0,0.0,0.0,4.3319,4.4885,4.5903,0.0,4.7908,4.8895,4.9464,4.9793,5.0122,5.0242,5.0242,5.0242,4.9793,0.0,0.0,4.8079,4.7549,0.0,4.5813,4.5663,0.0,0.0,0.0,4.2084,0.0,0.0,0.0,0.0,4.1051,4.163,4.221,4.2688,4.2964,4.3664,4.4317,4.4593,4.5121,4.5748,4.6577,4.7883,4.8862,4.9138,4.9916,0.0,5.0444,5.1197,5.1925,5.2477,5.3281,5.3858,5.4135,5.4974,5.539,5.539,5.5917,5.6219,5.6219,5.6219,5.6219,5.6219,5.6219,5.6219,5.6219,5.6219,5.6219,5.6219,5.6219,5.6219,5.6219,5.6219,5.6219,5.6219,5.6219,5.6219,5.6219,5.6219,5.6219,5.6219,3.2572,3.2781,3.3275,3.4488,3.5266,3.5968,3.6763,3.7751,0.0,0.0,0.0,0.0,0.0,0.0,0.0,0.0,0.0,0.0,0.0,3.7464,3.7045,3.7045,3.5655,3.4817,3.4697,3.4039,3.3649,3.3484,0.0,0.0,0.0,0.0,0.0,0.0,0.0,0.0,0.0,0.0,0.0,4.5813,0.0,4.8177,4.8775,4.98,5.0345,5.0667,5.1325,5.1588,5.1588,5.1588,5.1236,5.0637,4.9883,4.9396,0.0,0.0,0.0,0.0,0.0,0.0,0.0,0.0,0.0,4.03,0.0,0.0,0.0,0.0,0.0,0.0,0.0,0.0,0.0,0.0,0.0,0.0,0.0,4.5869,0.0,4.7431,0.0,0.0,4.9113,5.0243,5.1222,5.19,5.2452,5.292,5.3381,5.4461,5.5114,5.5214,5.5767,5.6118,5.6219,5.6219,5.6219,5.6219,5.6219,5.6219,5.6219,5.6219,5.6219,5.6219,5.6219,5.6219,5.6219,5.6219,5.6219,5.6219,5.6219,5.6219,5.6219,5.6219,5.6219,5.6219,3.3365,3.3859,3.4518,3.525,3.5938,3.6793,3.799,3.832,0.0,0.0,0.0,0.0,0.0,0.0,0.0,0.0,0.0,0.0,4.0954,0.0,3.9062,3.9062,3.7255,3.5985,3.54,3.4727,3.4099,3.3484,0.0,0.0,0.0,0.0,0.0,0.0,3.899,0.0,0.0,0.0,4.5783,0.0,4.9112,4.992,0.0,5.0136,5.0936,5.2067,5.2725,5.2989,5.2989,0.0,5.2929,5.2636,0.0,5.1349,5.1379,0.0,0.0,0.0,0.0,0.0,0.0,0.0,4.0303,0.0,0.0,0.0,0.0,4.0474,0.0,0.0,0.0,0.0,0.0,0.0,0.0,0.0,4.1879,4.3586,4.5196,4.5698,0.0,0.0,0.0,4.8862,5.0218,5.1297,5.1875,5.2226,5.2277,5.3306,5.4135,5.4672,5.5225,5.5717,5.6219,5.6219,5.6219,5.6219,5.6219,5.6219,5.6219,5.6219,5.6219,5.6219,5.6219,5.6219,5.6219,5.6219,5.6219,5.6219,5.6219,5.6219,5.6219,5.6219,5.6219,5.6219,3.4801,3.4891,3.54,3.64,3.7165,3.7913,3.8841,3.9966,0.0,0.0,0.0,0.0,0.0,0.0,0.0,0.0,0.0,4.2502,0.0,0.0,0.0,4.0576,3.902,3.7883,3.7195,3.6537,3.6028,3.5759,3.6028,0.0,0.0,0.0,0.0,0.0,3.9499,0.0,4.253,0.0,4.6292,0.0,0.0,0.0,0.0,5.1355,5.1947,5.2839,5.3109,5.3198,5.3198,0.0,5.3198,0.0,0.0,0.0,0.0,0.0,0.0,0.0,0.0,0.0,0.0,0.0,0.0,0.0,4.076,0.0,4.0249,0.0,0.0,0.0,0.0,0.0,0.0,0.0,4.1603,0.0,0.0,0.0,4.3259,0.0,0.0,0.0,0.0,0.0,0.0,0.0,5.0519,5.1071,5.2051,5.2829,5.3507,5.4059,5.4938,5.5491,5.5742,5.6043,5.6219,5.6219,5.6219,5.6219,5.6219,5.6219,5.6219,5.6219,5.6219,5.6219,5.6219,5.6219,5.6219,5.6219,5.6219,5.6219,5.6219,5.6219,5.6219,5.6219,3.6447,0.0,3.6387,3.7494,3.8063,3.8751,3.9798,4.1474,4.278,0.0,0.0,0.0,4.5104,4.5104,0.0,0.0,4.4685,4.4326,0.0,0.0,4.281,4.1953,4.0816,0.0,3.8691,3.8212,3.7764,3.7387,3.7387,3.7477,0.0,0.0,0.0,0.0,0.0,4.1792,4.3319,0.0,0.0,4.8925,5.0219,5.1654,5.3025,5.3025,5.3324,5.3797,5.4156,5.4276,5.4276,5.4276,5.4276,0.0,5.3857,0.0,0.0,0.0,0.0,0.0,4.7865,0.0,0.0,0.0,0.0,0.0,0.0,0.0,0.0,0.0,0.0,0.0,0.0,0.0,0.0,0.0,0.0,0.0,0.0,0.0,0.0,0.0,0.0,0.0,0.0,0.0,0.0,0.0,0.0,5.0117,5.1348,5.2226,5.2955,5.3457,5.4587,5.5239,5.539,5.5942,5.6219,5.6219,5.6219,5.6219,5.6219,5.6219,5.6219,5.6219,5.6219,5.6219,5.6219,5.6219,5.6219,5.6219,5.6219,5.6219,5.6219,5.6219,5.6219,5.6219,3.8182,3.7793,3.7554,3.8242,3.8409,3.9068,4.1044,4.2462,4.3728,0.0,0.0,0.0,0.0,0.0,0.0,0.0,0.0,4.692,4.6241,0.0,4.4616,4.3309,4.2631,4.1373,0.0,3.9361,3.8703,3.7387,3.7387,3.7734,0.0,0.0,0.0,0.0,0.0,4.3409,4.5334,4.7339,4.8955,5.0278,5.1618,5.3324,5.5089,0.0,5.5119,5.5299,5.6526,0.0,0.0,5.6974,5.6974,0.0,0.0,0.0,0.0,0.0,0.0,0.0,0.0,0.0,0.0,4.2698,0.0,0.0,0.0,0.0,4.1127,0.0,0.0,0.0,0.0,0.0,0.0,0.0,0.0,0.0,0.0,0.0,0.0,0.0,0.0,0.0,0.0,0.0,0.0,0.0,0.0,0.0,4.9665,5.1222,5.2377,5.2895,5.4009,5.4873,5.539,5.5942,5.6219,5.6219,5.6219,5.6219,5.6219,5.6219,5.6219,5.6219,5.6219,5.6219,5.6219,5.6219,5.6219,5.6219,5.6219,5.6219,5.6219,5.6219,5.6219,5.6219,0.0,0.0,3.8793,3.9002,3.9439,4.0397,4.2352,4.4536,4.6112,0.0,0.0,0.0,0.0,4.8618,4.8618,0.0,0.0,4.8528,4.8319,4.766,0.0,0.0,0.0,4.3409,0.0,4.1403,4.0745,3.9379,3.9379,3.9272,0.0,0.0,0.0,0.0,0.0,4.3469,0.0,0.0,0.0,0.0,0.0,5.4461,5.5803,0.0,0.0,5.6496,5.6944,5.7094,0.0,5.7094,5.7094,5.7004,5.6585,5.6466,5.6196,5.488,5.2827,0.0,0.0,0.0,4.5638,4.3756,0.0,0.0,0.0,0.0,0.0,0.0,0.0,0.0,0.0,0.0,0.0,0.0,0.0,0.0,0.0,0.0,0.0,0.0,0.0,0.0,0.0,0.0,0.0,0.0,0.0,0.0,0.0,5.0845,5.1825,5.2377,5.3432,5.426,5.4873,5.539,5.5842,5.6219,5.6219,5.6219,5.6219,5.6219,5.6219,5.6219,5.6219,5.6219,5.6219,5.6219,5.6219,5.6219,5.6219,5.6219,5.6219,5.6219,5.6219,5.6219,3.9451,3.9601,3.9768,3.9768,4.0677,4.1993,4.3758,4.5882,0.0,0.0,4.9075,0.0,4.9965,0.0,4.9995,0.0,4.9995,4.9995,4.9995,4.9344,0.0,4.7429,4.6711,0.0,0.0,0.0,4.2421,4.1104,4.0876,4.0516,4.0127,0.0,0.0,0.0,0.0,4.4307,4.6493,0.0,4.9523,0.0,0.0,5.5628,0.0,0.0,5.7244,5.8171,0.0,5.8321,5.853,5.853,5.8094,5.7515,5.7097,5.6571,5.5816,5.4565,5.2512,5.0423,4.9333,4.7839,0.0,4.4778,4.4931,0.0,4.3866,0.0,0.0,0.0,0.0,0.0,0.0,0.0,0.0,0.0,0.0,0.0,0.0,0.0,0.0,0.0,0.0,0.0,0.0,0.0,0.0,0.0,0.0,0.0,0.0,0.0,5.1021,5.18,5.2854,5.3783,5.4597,5.515,5.5666,5.6219,5.6219,5.6219,5.6219,5.6219,5.6219,5.6219,5.6219,5.6219,5.6219,5.6219,5.6219,5.6219,5.6219,5.6219,5.6219,5.6219,5.6219,5.6219,3.9631,4.0049,4.0576,4.0636,4.2173,4.3848,0.0,0.0,4.8095,0.0,5.0255,5.0548,5.1176,5.1265,5.1295,5.1295,5.1295,5.1295,5.1295,5.0667,0.0,0.0,4.8768,4.748,4.5484,0.0,0.0,0.0,4.1822,4.1493,4.1463,0.0,0.0,0.0,4.4057,0.0,4.8349,4.9067,5.0534,5.2516,5.4461,5.6825,5.9159,5.9078,5.9469,6.0096,6.0036,6.0369,6.0851,6.0851,5.9739,5.8173,5.7053,5.5558,5.4073,5.2888,5.1453,5.0161,4.9554,4.7905,4.625,4.5698,4.5121,0.0,0.0,0.0,4.3689,0.0,0.0,0.0,0.0,0.0,0.0,0.0,0.0,0.0,0.0,0.0,0.0,0.0,0.0,0.0,0.0,0.0,0.0,0.0,0.0,0.0,0.0,0.0,5.0117,5.1247,5.2327,5.3432,5.4597,5.5125,5.5641,5.6219,5.6219,5.6219,5.6219,5.6219,5.6219,5.6219,5.6219,5.6219,5.6219,5.6219,5.6219,5.6219,5.6219,5.6219,5.6219,5.6219,5.6219,5.6219,4.0905,4.1803,4.2861,0.0,4.4436,4.5244,0.0,0.0,0.0,0.0,5.1056,5.1768,5.1917,5.2396,5.2665,5.2665,5.2665,0.0,0.0,0.0,0.0,5.075,5.0069,4.9022,4.7549,4.686,0.0,4.4577,4.3439,4.2631,4.2141,4.2141,0.0,0.0,0.0,0.0,4.8409,5.0032,5.2157,5.4521,5.5534,5.7509,0.0,0.0,5.8987,6.0266,5.9277,5.8229,5.7304,5.7304,5.7005,5.6586,5.628,5.5866,5.5395,5.4564,5.2991,5.1408,5.0737,4.906,4.738,4.6823,4.6271,4.5773,0.0,0.0,0.0,0.0,0.0,0.0,0.0,0.0,0.0,0.0,0.0,0.0,0.0,0.0,0.0,0.0,0.0,0.0,0.0,0.0,0.0,0.0,0.0,0.0,0.0,0.0,0.0,5.1247,5.195,5.303,5.4572,5.4748,5.5265,5.6219,5.6219,5.6219,5.6219,5.6219,5.6219,5.6219,5.6219,5.6219,5.6219,5.6219,5.6219,5.6219,5.6219,5.6219,5.6219,5.6219,5.6219,5.6219,4.2391,0.0,0.0,4.6322,0.0,0.0,4.8079,4.9583,0.0,5.1026,5.2007,0.0,5.3054,5.3414,5.3743,5.4067,5.4067,0.0,5.4067,0.0,0.0,5.2522,5.1594,5.0578,4.9583,4.8656,0.0,4.6591,0.0,0.0,4.4107,4.4107,4.4466,0.0,0.0,4.7908,4.9284,5.1535,5.3713,5.5667,5.6176,0.0,0.0,5.8134,5.8096,5.8594,5.8083,5.7594,5.7217,5.7217,5.674,5.6082,5.5812,5.5061,5.416,5.3546,5.2575,5.1588,5.1214,5.006,4.8887,4.8303,4.7782,4.723,4.6677,4.5924,4.5317,0.0,0.0,0.0,0.0,0.0,0.0,0.0,0.0,0.0,0.0,0.0,0.0,0.0,0.0,0.0,0.0,0.0,0.0,0.0,0.0,0.0,0.0,0.0,0.0,5.1255,5.1574,5.2653,5.4572,5.4597,5.515,5.6219,5.6219,5.6219,5.6219,5.6219,5.6219,5.6219,5.6219,5.6219,5.6219,5.6219,5.6219,5.6219,5.6219,5.6219,5.6219,5.6219,5.6219,5.6219,0.0,0.0,0.0,0.0,0.0,0.0,0.0,5.072,0.0,5.2366,0.0,5.3737,5.4401,5.4551,5.482,5.5388,0.0,5.5448,5.5448,5.482,5.4461,5.4461,5.3174,5.2187,5.1594,5.0265,4.9247,0.0,0.0,0.0,4.657,4.657,4.6869,0.0,0.0,0.0,0.0,5.3,5.49,5.6258,5.6269,5.7137,5.836,5.772,5.7033,5.6434,5.6689,5.7417,5.8249,5.8249,5.7263,5.5999,5.5475,5.396,5.2327,5.1883,5.1632,5.1498,5.1498,5.1021,5.0419,4.9941,4.9389,4.8837,4.8259,4.7355,4.6602,4.6527,4.5668,4.4916,0.0,0.0,0.0,0.0,0.0,0.0,0.0,0.0,0.0,0.0,0.0,0.0,0.0,0.0,0.0,0.0,0.0,0.0,0.0,0.0,0.0,5.1197,5.1306,5.2386,5.4572,0.0,5.515,5.6219,5.6219,5.6219,5.6219,5.6219,5.6219,5.6219,5.6219,5.6219,5.6219,5.6219,5.6219,5.6219,5.6219,5.6219,5.6219,5.6219,5.6219,5.6219,0.0,0.0,0.0,0.0,0.0,5.1439,5.3084,5.2606,5.2456,5.3713,5.4431,5.5089,5.5773,5.6286,5.6645,5.6765,5.6765,0.0,0.0,0.0,0.0,5.5863,5.4551,5.3803,5.3683,5.1828,5.0787,0.0,0.0,0.0,4.7938,4.7938,0.0,0.0,0.0,0.0,5.1817,5.2674,0.0,5.6415,5.513,5.5929,5.7768,5.6288,5.6239,5.6783,5.5516,5.5166,5.5344,5.5344,5.5134,5.4854,5.4752,5.4466,5.4145,5.4044,5.3356,5.2594,5.2594,5.19,5.1096,5.1054,5.0569,4.9992,4.9414,4.8812,4.8209,4.7732,4.7099,4.6522,4.607,0.0,0.0,0.0,0.0,0.0,0.0,0.0,0.0,0.0,0.0,0.0,0.0,0.0,0.0,0.0,0.0,0.0,0.0,0.0,0.0,0.0,5.1306,0.0,0.0,0.0,5.515,5.6219,5.6219,5.6219,5.6219,5.6219,5.6219,5.6219,5.6219,5.6219,5.6219,5.6219,5.6219,5.6219,5.6219,5.6219,5.6219,5.6219,5.6219,5.6219,0.0,0.0,0.0,0.0,0.0,0.0,0.0,5.494,5.485,5.5179,5.6107,5.6974,5.7633,5.8261,5.88,5.9159,5.9189,5.9039,5.868,5.8381,5.7929,5.7214,5.6226,0.0,5.5239,5.3623,5.2761,5.2761,0.0,0.0,0.0,0.0,0.0,4.8254,0.0,4.9561,0.0,0.0,0.0,5.5324,5.4944,5.5477,5.6444,5.5655,5.5725,5.6168,5.5612,5.5415,5.5365,5.5125,5.5024,5.5024,5.5024,5.4823,5.4597,5.4597,5.4185,5.3783,5.3783,5.3381,5.2888,5.2277,5.1925,5.1465,5.067,5.0042,4.9464,4.8912,4.836,4.7732,4.6873,4.602,0.0,0.0,0.0,0.0,0.0,0.0,0.0,0.0,0.0,0.0,0.0,0.0,0.0,0.0,0.0,0.0,0.0,0.0,0.0,0.0,0.0,0.0,0.0,0.0,0.0,5.6219,5.6219,5.6219,5.6219,5.6219,5.6219,5.6219,5.6219,5.6219,5.6219,5.6219,5.6219,5.6219,5.6219,5.6219,5.6219,5.6219,5.6219,5.6219,0.0,5.1826,0.0,0.0,5.3708,0.0,5.5554,5.629,5.6681,5.6777,5.749,5.8392,5.9404,5.9664,6.0114,6.1018,6.1076,6.0894,6.0326,6.0296,5.9847,5.8773,5.8112,5.7423,5.6821,5.5508,5.476,0.0,0.0,0.0,0.0,0.0,0.0,0.0,0.0,0.0,0.0,0.0,5.3506,5.4447,5.4701,5.4976,5.5336,5.5396,5.5465,5.5616,5.6068,5.6219,5.6143,5.5717,5.5566,5.5566,5.5566,5.5265,5.4949,5.4949,5.4873,5.4773,5.4773,5.4697,5.4396,5.3482,5.3281,5.298,5.1875,5.1272,5.077,5.0092,4.9414,4.8686,4.7776,4.7104,0.0,0.0,0.0,0.0,0.0,0.0,0.0,0.0,0.0,0.0,0.0,0.0,0.0,0.0,0.0,0.0,0.0,0.0,0.0,0.0,0.0,5.2311,5.4396,0.0,5.515,5.6219,5.6219,5.6219,5.6219,5.6219,5.6219,5.6219,5.6219,5.6219,5.6219,5.6219,5.6219,5.6219,5.6219,5.6219,5.6219,5.6219,5.6219,5.6219,0.0,0.0,0.0,0.0,0.0,0.0,5.4181,5.4845,5.6071,5.851,5.8128,5.8461,6.0667,5.9564,5.9305,6.0964,6.1076,6.1046,6.1014,6.1014,6.0954,6.0807,6.0176,5.9488,5.883,5.7513,5.6555,0.0,0.0,5.0904,0.0,0.0,0.0,0.0,0.0,0.0,0.0,5.1685,5.3213,5.5057,5.3665,5.4018,5.5379,5.5387,5.5691,5.6143,5.6194,5.6219,5.6194,5.6143,5.6143,5.6143,5.6143,5.6093,5.6068,5.6068,5.5691,5.5315,5.5315,5.4974,5.4572,5.4471,5.4446,5.4135,5.303,5.2694,5.2368,5.1348,5.0268,4.949,4.9389,4.8485,4.7581,0.0,0.0,0.0,0.0,0.0,0.0,0.0,0.0,0.0,0.0,0.0,0.0,0.0,0.0,0.0,0.0,0.0,0.0,5.0386,0.0,5.2076,5.3758,5.4346,5.515,5.6219,5.6219,5.6219,5.6219,5.6219,5.6219,5.6219,5.6219,5.6219,5.6219,5.6219,5.6219,5.6219,5.6219,5.6219,5.6219,5.6219,5.6219,5.6219,0.0,0.0,0.0,0.0,0.0,0.0,0.0,5.63,5.7206,5.8631,5.8182,5.806,5.9011,5.9141,5.9436,6.0147,6.0209,6.0209,6.0209,6.1215,6.1017,5.9189,6.0909,6.0434,5.7306,5.7335,5.6785,0.0,0.0,0.0,0.0,4.9252,0.0,0.0,0.0,5.0271,5.0793,5.1951,5.2992,5.3912,5.4264,5.4813,5.5415,5.5767,5.6018,5.6219,5.6219,5.6219,5.6219,5.6219,5.6219,5.6219,5.6219,5.6219,5.6219,5.6219,5.6068,5.5892,5.5892,5.5717,5.5465,5.5175,5.5099,5.4898,5.4084,5.3909,5.3607,5.2503,5.1373,5.0594,5.0594,4.969,4.8862,0.0,0.0,0.0,0.0,0.0,0.0,0.0,0.0,0.0,0.0,0.0,0.0,0.0,0.0,0.0,0.0,0.0,0.0,5.031,0.0,5.226,5.4245,5.4496,5.515,5.6219,5.6219,5.6219,5.6219,5.6219,5.6219,5.6219,5.6219,5.6219,5.6219,5.6219,5.6219,5.6219,5.6219,5.6219,5.6219,5.6219,5.6219,5.6219,5.2597,0.0,5.3579,0.0,5.4391,5.49,5.5762,5.6444,5.698,5.735,5.7249,5.7401,5.8214,5.8658,5.9045,5.9571,5.9604,5.9604,5.9604,6.0803,6.0537,5.8434,6.0719,0.0,5.6831,5.735,5.6957,5.5524,5.3395,0.0,0.0,4.8919,4.8081,0.0,4.9665,5.0494,5.1214,5.2544,5.3356,5.3758,5.4913,5.5491,5.5666,5.6068,5.6219,5.6219,5.6219,5.6219,5.6219,5.6219,5.6219,5.6219,5.6219,5.6219,5.6219,5.6219,5.6219,5.6219,5.6219,5.6219,5.6118,5.5717,5.5641,5.5491,5.4974,5.4848,5.4572,5.3607,5.2528,5.1774,5.1774,5.0845,5.0092,5.0092,0.0,0.0,0.0,0.0,0.0,0.0,0.0,0.0,0.0,0.0,0.0,0.0,0.0,0.0,0.0,0.0,0.0,0.0,0.0,0.0,0.0,5.4522,5.515,5.6219,5.6219,5.6219,5.6219,5.6219,5.6219,5.6219,5.6219,5.6219,5.6219,5.6219,5.6219,5.6219,5.6219,5.6219,5.6219,5.6219,5.6219,5.6219,5.1213,5.1766,5.2143,5.2143,5.3023,5.3727,5.3752,5.423,5.4643,5.4668,5.5085,5.6482,5.9298,5.808,5.7804,5.9473,5.9604,5.9604,5.9604,5.9604,5.9637,0.0,0.0,5.9306,5.8576,5.8067,5.7461,5.6789,0.0,0.0,4.9491,4.7338,4.7757,5.0419,5.0996,5.1875,5.2895,5.3457,5.4336,5.5365,5.539,5.5717,5.6194,5.6219,5.6219,5.6219,5.6219,5.6219,5.6219,5.6219,5.6219,5.6219,5.6219,5.6219,5.6219,5.6219,5.6219,5.6219,5.6219,5.6219,5.6219,5.6194,5.6194,5.6068,5.5491,5.539,5.5214,5.4697,5.3658,5.287,5.287,5.2,5.1272,5.1272,0.0,0.0,0.0,0.0,0.0,0.0,0.0,4.7274,4.7807,0.0,0.0,0.0,0.0,0.0,0.0,0.0,0.0,5.0393,5.1498,0.0,5.3708,5.4321,5.515,5.6219,5.6219,5.6219,5.6219,5.6219,5.6219,5.6219,5.6219,5.6219,5.6219,5.6219,5.6219,5.6219,5.6219,5.6219,5.6219,5.6219,5.6219,5.6219,5.2904,5.3381,5.3818,5.3818,5.4094,5.4446,5.4787,5.5013,5.5265,5.5641,5.5842,5.6276,5.7165,5.68,5.6693,0.0,5.728,5.728,0.0,5.8445,5.8432,5.6807,5.9035,5.8906,5.5926,5.6814,5.6662,5.5279,0.0,0.0,0.0,5.148,5.1825,5.2678,5.329,5.3743,5.4084,5.4612,5.5064,5.5415,5.5792,5.6068,5.6219,5.6219,5.6219,5.6219,5.6219,5.6219,5.6219,5.6219,5.6219,5.6219,5.6219,5.6219,5.6219,5.6219,5.6219,5.6219,5.6219,5.6219,5.6219,5.6219,5.6219,5.6168,5.5993,5.5666,5.534,5.5164,5.4561,5.4059,5.4059,5.3155,5.2402,5.2402,5.1473,0.0,0.0,0.0,0.0,0.0,0.0,4.8159,0.0,4.7606,0.0,0.0,0.0,0.0,0.0,0.0,0.0,0.0,5.1523,0.0,5.4321,5.4496,5.515,5.6219,5.6219,5.6219,5.6219,5.6219,5.6219,5.6219,5.6219,5.6219,5.6219,5.6219,5.6219,5.6219,5.6219,5.6219,5.6219,5.6219,5.6219,5.6219,5.4034,5.4486,5.4924,5.4924,5.5074,5.529,5.5641,5.5691,5.5817,5.6168,5.6219,5.6219,5.6219,5.6219,0.0,5.6219,5.6219,5.6219,5.6219,5.7267,5.7231,5.5789,5.7773,5.7765,5.5261,5.6047,0.0,5.4924,5.4346,5.3858,5.3557,5.3884,5.4034,5.4059,5.4647,5.4924,5.4949,5.5465,5.5691,5.5717,5.6068,5.6219,5.6219,5.6219,5.6219,5.6219,5.6219,5.6219,5.6219,5.6219,5.6219,5.6219,5.6219,5.6219,5.6219,5.6219,5.6219,5.6219,5.6219,5.6219,5.6219,5.6219,5.6219,5.6219,5.6219,5.5942,5.5691,5.5691,5.5265,5.4924,5.4924,5.4135,5.3532,5.3532,5.2628,5.19,5.19,0.0,0.0,0.0,0.0,0.0,0.0,4.9163,4.9163,0.0,0.0,0.0,0.0,0.0,0.0,5.1021,5.2126,0.0,5.4597,5.4798,5.5315,5.6219,5.6219,5.6219,5.6219,5.6219,5.6219,5.6219,5.6219,5.6219,5.6219,5.6219,5.6219,5.6219,5.6219,5.6219,5.6219,5.6219,5.6219,5.6219,5.4723,5.5125,5.544,0.0,5.5867,0.0,5.6219,5.6219,5.6219,5.6219,5.6219,5.6219,5.6219,5.6219,5.6219,5.6219,0.0,0.0,0.0,5.6219,5.6219,5.6219,5.6219,5.6219,5.6219,5.5717,5.544,5.544,5.4974,5.4723,5.4723,5.4723,5.4723,5.4748,5.5214,5.544,5.5491,5.5993,5.6219,5.6219,5.6219,5.6219,5.6219,5.6219,5.6219,5.6219,5.6219,5.6219,5.6219,5.6219,5.6219,5.6219,5.6219,5.6219,5.6219,5.6219,5.6219,5.6219,5.6219,5.6219,5.6219,5.6219,5.6219,5.6219,5.6219,5.6219,5.6219,5.6219,5.5792,5.544,5.544,5.5024,5.4672,5.4672,5.3733,5.2995,5.2995,5.2126,5.1448,0.0,0.0,0.0,0.0,5.1306,5.1306,0.0,0.0,0.0,0.0,0.0,5.1071,5.2126,5.3155,5.4009,5.4647,5.5139,5.5666,5.6219,5.6219,5.6219,5.6219,5.6219,5.6219,5.6219,5.6219,5.6219,5.6219,5.6219,5.6219,5.6219,5.6219,5.6219,5.6219,5.6219,5.6219,5.6219,0.0,0.0,5.6018,5.6018,5.6118,5.6219,5.6219,5.6219,5.6219,5.6219,5.6219,5.6219,5.6219,5.6219,5.6219,5.6219,5.6219,5.6219,5.6219,5.6219,5.6219,5.6219,5.6219,5.6219,5.6219,5.6093,5.6018,5.6018,5.5892,5.5817,5.5817,5.5817,5.5817,5.5817,5.5968,5.6018,5.6018,5.6168,5.6219,5.6219,5.6219,5.6219,5.6219,5.6219,5.6219,5.6219,5.6219,5.6219,5.6219,5.6219,5.6219,5.6219,5.6219,5.6219,5.6219,5.6219,5.6219,5.6219,5.6219,5.6219,5.6219,5.6219,5.6219,5.6219,5.6219,5.6219,5.6219,5.6219,5.6118,5.6018,5.6018,5.5566,5.5225,5.5225,5.4647,5.422,5.422,5.3582,5.298,0.0,5.2176,5.1749,5.1356,5.1306,5.1306,0.0,0.0,0.0,0.0,5.2142,5.2418,5.2694,5.3356,5.4185,5.5189,5.5315,5.5666,5.6219,5.6219,5.6219,5.6219,5.6219,5.6219,5.6219,5.6219,5.6219,5.6219,5.6219,5.6219,5.6219,5.6219,5.6219,5.6219,5.6219,5.6219,5.6219,5.6219,5.6219,5.6219,5.6219,5.6219,5.6219,5.6219,5.6219,5.6294,5.6508,5.6559,5.6696,5.6947,5.6972,5.6972,5.6972,5.652,5.6219,5.6219,5.6219,5.6219,5.6219,5.6219,5.6219,5.6219,5.6219,5.6219,5.6219,5.6219,5.6219,5.6219,5.6219,5.6219,5.6219,5.6219,5.6219,5.6219,5.6219,5.6219,5.6219,5.6219,5.6369,5.6559,5.6559,5.6746,5.6972,5.6972,5.6972,5.6947,5.6671,5.6559,5.6508,5.6294,5.6219,5.6219,5.6219,5.6219,5.6219,5.6219,5.6219,5.6219,5.6219,5.6219,5.6219,5.6219,5.6219,5.6219,5.6219,5.6219,5.6219,5.6219,5.5968,5.5767,5.5767,5.5326,5.4974,5.4974,5.4461,5.3984,5.3708,5.3406,5.314,5.2838,5.2553,5.2503,5.2788,5.2528,0.0,5.3206,5.3507,5.3557,5.3246,5.4059,5.4762,5.539,5.5641,5.5917,5.6219,5.6219,5.6219,5.6219,5.6219,5.6219,5.6219,5.6219,5.6219,5.6219,5.6219,5.6219,5.6219,5.6219,5.6219,5.6219,5.6219,5.6219,5.6219,5.6219,5.6219,5.6244,5.6319,5.6344,5.6369,5.6445,5.647,5.6646,5.706,5.7136,5.7311,5.7851,5.7901,5.7901,5.7901,5.7022,5.647,5.647,5.647,5.647,5.647,5.647,5.642,5.6344,5.6244,5.6219,5.6219,5.6219,5.6219,5.6219,5.6219,5.6244,5.6344,5.6344,5.6394,5.647,5.647,5.647,5.647,5.647,5.6746,5.7136,5.7136,5.7474,5.7901,5.7901,5.7901,5.7826,5.7286,5.7136,5.7035,5.6483,5.6344,5.6319,5.6244,5.6219,5.6219,5.6219,5.6219,5.6219,5.6219,5.6219,5.6219,5.6219,5.6219,5.6219,5.6219,5.6219,5.6219,5.6219,5.6219,5.6219,5.6219,5.5817,5.5516,5.5516,5.5074,5.4723,5.4723,5.4647,5.4597,5.4597,5.4135,5.4034,5.4572,5.4145,5.4059,5.4572,5.4672,5.4496,5.3959,5.4888,5.544,5.5516,5.5968,5.6219,5.6219,5.6219,5.6219,5.6219,5.6219,5.6219,5.6219,5.6219,5.6219,5.6219,5.6219,5.6219,5.6219,5.6219,5.6219,5.6219,5.6219,5.6219,5.6219,5.6219,5.6219,5.6369,5.6784,5.686,5.7035,5.7549,5.765,5.7675,5.775,5.775,5.7801,5.7901,5.7901,5.7901,5.7901,5.775,5.765,5.765,5.765,5.765,5.765,5.765,5.7399,5.6885,5.6408,5.6219,5.6219,5.6219,5.6219,5.6219,5.6219,5.6433,5.686,5.686,5.7136,5.765,5.765,5.765,5.765,5.765,5.77,5.775,5.775,5.7826,5.7901,5.7901,5.7901,5.7876,5.7801,5.775,5.7675,5.706,5.686,5.6784,5.6308,5.6219,5.6219,5.6219,5.6219,5.6219,5.6219,5.6219,5.6219,5.6219,5.6219,5.6219,5.6219,5.6219,5.6219,5.6219,5.6219,5.6219,5.6219,5.6143,5.6093,5.6093,5.5616,5.53,5.53,5.4873,5.4597,5.4597,5.4522,5.4496,5.4597,5.4522,5.4496,5.4597,5.5049,5.5214,5.5139,5.529,5.5616,5.6068,5.6168,5.6219,5.6219,5.6219,5.6219,5.6219,5.6219,5.6219,5.6219,5.6219,5.6219,5.6219,5.6219,5.6219,5.6219,5.6219,5.6219,5.6219,5.6219,5.6219,5.6219,5.7123,5.7123,5.7198,5.7449,5.7462,5.76,5.7851,5.7901,5.8001,5.8303,5.8353,5.8453,5.873,5.8755,5.8755,5.8755,5.8755,5.8755,5.8755,5.8227,5.7901,5.7901,5.7901,5.7775,5.7499,5.7248,5.7123,5.7123,5.7123,5.7123,5.7123,5.7123,5.7248,5.7462,5.7462,5.765,5.7901,5.7901,5.7901,5.7901,5.7901,5.8077,5.8353,5.8353,5.8504,5.8755,5.8755,5.8755,5.8704,5.8428,5.8353,5.8252,5.7675,5.7462,5.7361,5.6784,5.6445,5.6219,5.6219,5.6219,5.6219,5.6219,5.6219,5.6219,5.6219,5.6219,5.6219,5.6219,5.6219,5.6219,5.6219,5.6219,5.6219,5.6219,5.6219,5.6219,5.6219,5.5993,5.5842,5.5842,5.5616,5.544,5.544,5.5189,5.5139,5.544,5.5164,5.5175,5.544,5.5691,5.5842,5.5842,5.5842,5.5968,5.6219,5.6219,5.6219,5.6219,5.6219,5.6219,5.6219,5.6219,5.6219,5.6219,5.6219,5.6219,5.6219,5.6219,5.6219,5.6219,5.6219,5.6219,5.6219,5.6219,5.6219,5.6219,5.7901,5.7901,5.7951,5.8077,5.8102,5.8127,5.8252,5.8278,5.8428,5.8855,5.8905,5.9056,5.9458,5.9483,5.9483,5.9483,5.9483,5.9483,5.9483,5.873,5.8278,5.8278,5.8152,5.8102,5.8102,5.7951,5.7901,5.7901,5.7901,5.7901,5.7901,5.7901,5.7976,5.8102,5.8102,5.8152,5.8278,5.8278,5.8278,5.8278,5.8278,5.8529,5.8905,5.8905,5.9156,5.9483,5.9483,5.9483,5.9433,5.9031,5.8905,5.8805,5.8252,5.8102,5.7976,5.7361,5.6809,5.6369,5.6244,5.6219,5.6219,5.6219,5.6219,5.6219,5.6219,5.6219,5.6219,5.6219,5.6219,5.6219,5.6219,5.6219,5.6219,5.6219,5.6219,5.6219,5.6219,5.6219,5.6219,5.6219,5.6219,5.6219,5.6219,5.5817,5.5767,5.6168,5.5817,5.5767,5.6194,5.6219,5.6219,5.6219,5.6219,5.6219,5.6219,5.6219,5.6219,5.6219,5.6219,5.6219,5.6219,5.6219,5.6219,5.6219,5.6219,5.6219,5.6219,5.6219,5.6219,5.6219,5.6219,5.6219,5.6219,5.6219,5.6219,5.6219,5.7901,5.7901,5.8052,5.8541,5.8616,5.883,5.9307,5.9382,5.9382,5.9433,5.9433,5.9458,5.9483,5.9483,5.9483,5.9483,5.9483,5.9483,5.9483,5.9433,5.9382,5.9382,5.8905,5.8616,5.8616,5.8152,5.7901,5.7901,5.7901,5.7901,5.7901,5.7901,5.8177,5.8616,5.8616,5.893,5.9382,5.9382,5.9382,5.9382,5.9382,5.9408,5.9433,5.9433,5.9458,5.9483,5.9483,5.9483,5.9483,5.9458,5.9433,5.9357,5.883,5.8616,5.8554,5.8001,5.7424,5.6835,5.6308,5.6219,5.6219,5.6219,5.6219,5.6219,5.6219,5.6219,5.6219,5.6219,5.6219,5.6219,5.6219,5.6219,5.6219,5.6219,5.6219,5.6219,5.6219,5.6219,5.6219,5.6219,5.6219,5.6219,5.6219,5.6168,5.6168,5.6219,5.6168,5.6168,5.6219,5.6219,5.6219,5.6219,5.6219,5.6219,5.6219,5.6219,5.6219,5.6219,5.6219,5.6219,5.6219,5.6219,5.6219,5.6219,5.6219,5.6219,5.6219,5.6219,5.6219,5.6219,5.6219,5.6219,5.6219,5.6219,5.6219,5.6219,5.888,5.888,5.8956,5.9156,5.9207,5.9257,5.9458,5.9483,5.9483,5.9483,5.9483,5.9483,5.9483,5.9483,5.9483,5.9483,5.9483,5.9483,5.9483,5.9483,5.9483,5.9483,5.9307,5.9207,5.9207,5.9006,5.888,5.888,5.888,5.888,5.888,5.888,5.9006,5.9207,5.9207,5.9307,5.9483,5.9483,5.9483,5.9483,5.9483,5.9483,5.9483,5.9483,5.9483,5.9483,5.9483,5.9483,5.9483,5.9483,5.9483,5.9458,5.9257,5.9207,5.9106,5.8554,5.7713,5.696,5.6734,5.6433,5.6219,5.6219,5.6219,5.6219,5.6219,5.6219,5.6219,5.6219,5.6219,5.6219,5.6219,5.6219,5.6219,5.6219,5.6219,5.6219,5.6219,5.6219,5.6219,5.6219,5.6219,5.6219,5.6219,5.6219,5.6219,5.6219,5.6219,5.6219,5.6219,5.6219,5.6219,5.6219,5.6219,5.6219,5.6219,5.6219,5.6219,5.6219,5.6219,5.6219,5.6219,5.6219,5.6219,5.6219,5.6219,5.6219,5.6219,5.6219,5.6219,5.6219,5.6219,5.6219,5.6219,5.6219,5.6219,5.6219,5.9483,5.9483,5.9483,5.9483,5.9483,5.9483,5.9483,5.9483,5.9483,5.9483,5.9483,5.9483,5.9483,5.9483,5.9483,5.9483,5.9483,5.9483,5.9483,5.9483,5.9483,5.9483,5.9483,5.9483,5.9483,5.9483,5.9483,5.9483,5.9483,5.9483,5.9483,5.9483,5.9483,5.9483,5.9483,5.9483,5.9483,5.9483,5.9483,5.9483,5.9483,5.9483,5.9483,5.9483,5.9483,5.9483,5.9483,5.9483,5.9483,5.9483,5.9483,5.9483,5.9483,5.9483,5.9382,5.888,5.8139,5.7462,5.7085,5.6709,5.642,5.6244,5.6219,5.6219,5.6219,5.6219,5.6219,5.6219,5.6219,5.6219,5.6219,5.6219,5.6219,5.6219,5.6219,5.6219,5.6219,5.6219,5.6219,5.6219,5.6219,5.6219,5.6219,5.6219,5.6219,5.6219,5.6219,5.6219,5.6219,5.6219,5.6219,5.6219,5.6219,5.6219,5.6219,5.6219,5.6219,5.6219,5.6219,5.6219,5.6219,5.6219,5.6219,5.6219,5.6219,5.6219,5.6219,5.6219,5.6219,5.6219,5.6219,5.6219,5.6219,5.6219,5.6219,5.6219,5.9483,5.9483,5.9483,5.9483,5.9483,5.9483,5.9483,5.9483,5.9483,5.9483,5.9483,5.9483,5.9483,5.9483,5.9483,5.9483,5.9483,5.9483,5.9483,5.9483,5.9483,5.9483,5.9483,5.9483,5.9483,5.9483,5.9483,5.9483,5.9483,5.9483,5.9483,5.9483,5.9483,5.9483,5.9483,5.9483,5.9483,5.9483,5.9483,5.9483,5.9483,5.9483,5.9483,5.9483,5.9483,5.9483,5.9483,5.9483,5.9483,5.9483,5.9483,5.9483,5.9483,5.9483,5.9382,5.888,5.8691,5.844,5.7311,5.701,5.686,5.6308,5.6219,5.6219,5.6219,5.6219,5.6219,5.6219,5.6219,5.6219,5.6219,5.6219,5.6219,5.6219,5.6219,5.6219,5.6219,5.6219,5.6219,5.6219,5.6219,5.6219,5.6219,5.6219,5.6219,5.6219,5.6219,5.6219,5.6219,5.6219,5.6219,5.6219,5.6219,5.6219,5.6219,5.6219,5.6219,5.6219,5.6219,5.6219,5.6219,5.6219,5.6219,5.6219,5.6219,5.6219,5.6219,5.6219,5.6219,5.6219,5.6219,5.6219,5.6219,5.6219,5.6219,5.6219,5.9483,5.9483,5.9483,5.9483,5.9483,5.9483,5.9483,5.9483,5.9483,5.9483,5.9483,5.9483,5.9483,5.9483,5.9483,5.9483,5.9483,5.9483,5.9483,5.9483,5.9483,5.9483,5.9483,5.9483,5.9483,5.9483,5.9483,5.9483,5.9483,5.9483,5.9483,5.9483,5.9483,5.9483,5.9483,5.9483,5.9483,5.9483,5.9483,5.9483,5.9483,5.9483,5.9483,5.9483,5.9483,5.9483,5.9483,5.9483,5.9483,5.9483,5.9483,5.9483,5.9483,5.9483,5.9458,5.9307,5.9006,5.8654,5.8265,5.7612,5.686,5.6308,5.6219,5.6219,5.6219,5.6219,5.6219,5.6219,5.6219,5.6219,5.6219,5.6219,5.6219,5.6219,5.6219,5.6219,5.6219,5.6219,5.6219,5.6219,5.6219,5.6219,5.6219,5.6219,5.6219,5.6219,5.6219,5.6219,5.6219,5.6219,5.6219,5.6219,5.6219,5.6219,5.6219,5.6219,5.6219,5.6219,5.6219,5.6219,5.6219,5.6219,5.6219,5.6219,5.6219,5.6219,5.6219,5.6219,5.6219,5.6219,5.6219,5.6219,5.6219,5.6219,5.6219,5.6219,5.9483,5.9483,5.9483,5.9483,5.9483,5.9483,5.9483,5.9483,5.9483,5.9483,5.9483,5.9483,5.9483,5.9483,5.9483,5.9483,5.9483,5.9483,5.9483,5.9483,5.9483,5.9483,5.9483,5.9483,5.9483,5.9483,5.9483,5.9483,5.9483,5.9483,5.9483,5.9483,5.9483,5.9483,5.9483,5.9483,5.9483,5.9483,5.9483,5.9483,5.9483,5.9483,5.9483,5.9483,5.9483,5.9483,5.9483,5.9483,5.9483,5.9483,5.9483,5.9483,5.9483,5.9483,5.9483,5.9483,5.9282,5.8981,5.878,5.819,5.7487,5.6684,5.6369,5.6219,5.6219,5.6219,5.6219,5.6219,5.6219,5.6219,5.6219,5.6219,5.6219,5.6219,5.6219,5.6219,5.6219,5.6219,5.6219,5.6219,5.6219,5.6219,5.6219,5.6219,5.6219,5.6219,5.6219,5.6219,5.6219,5.6219,5.6219,5.6219,5.6219,5.6219,5.6219,5.6219,5.6219,5.6219,5.6219,5.6219,5.6219,5.6219,5.6219,5.6219,5.6219,5.6219,5.6219,5.6219,5.6219,5.6219,5.6219,5.6219,5.6219,5.6219,5.6219,5.6219,5.9483,5.9483,5.9483,5.9483,5.9483,5.9483,5.9483,5.9483,5.9483,5.9483,5.9483,5.9483,5.9483,5.9483,5.9483,5.9483,5.9483,5.9483,5.9483,5.9483,5.9483,5.9483,5.9483,5.9483,5.9483,5.9483,5.9483,5.9483,5.9483,5.9483,5.9483,5.9483,5.9483,5.9483,5.9483,5.9483,5.9483,5.9483,5.9483,5.9483,5.9483,5.9483,5.9483,5.9483,5.9483,5.9483,5.9483,5.9483,5.9483,5.9483,5.9483,5.9483,5.9483,5.9483,5.9483,5.9483,5.9483,5.9382,5.8905,5.8755,5.844,5.7412,5.6684,5.6269,5.6219,5.6219,5.6219,5.6219,5.6219,5.6219,5.6219,5.6219,5.6219,5.6219,5.6219,5.6219,5.6219,5.6219,5.6219,5.6219,5.6219,5.6219,5.6219,5.6219,5.6219,5.6219,5.6219,5.6219,5.6219,5.6219,5.6219,5.6219,5.6219,5.6219,5.6219,5.6219,5.6219,5.6219,5.6219,5.6219,5.6219,5.6219,5.6219,5.6219,5.6219,5.6219,5.6219,5.6219,5.6219,5.6219,5.6219,5.6219,5.6219,5.6219,5.6219,5.6219,5.9483,5.9483,5.9483,5.9483,5.9483,5.9483,5.9483,5.9483,5.9483,5.9483,5.9483,5.9483,5.9483,5.9483,5.9483,5.9483,5.9483,5.9483,5.9483,5.9483,5.9483,5.9483,5.9483,5.9483,5.9483,5.9483,5.9483,5.9483,5.9483,5.9483,5.9483,5.9483,5.9483,5.9483,5.9483,5.9483,5.9483,5.9483,5.9483,5.9483,5.9483,5.9483,5.9483,5.9483,5.9483,5.9483,5.9483,5.9483,5.9483,5.9483,5.9483,5.9483,5.9483,5.9483,5.9483,5.9483,5.9483,5.9458,5.9357,5.9006,5.8629,5.8365,5.7562,5.6709,5.6319,5.6219,5.6219,5.6219,5.6219,5.6219,5.6219,5.6219,5.6219,5.6219,5.6219,5.6219,5.6219,5.6219,5.6219,5.6219,5.6219,5.6219,5.6219,5.6219,5.6219,5.6219,5.6219,5.6219,5.6219,5.6219,5.6219,5.6219,5.6219,5.6219,5.6219,5.6219,5.6219,5.6219,5.6219,5.6219,5.6219,5.6219,5.6219,5.6219,5.6219,5.6219,5.6219,5.6219,5.6219,5.6219,5.6219,5.6219,5.6219,5.6219,5.6219,5.6219,5.9483,5.9483,5.9483,5.9483,5.9483,5.9483,5.9483,5.9483,5.9483,5.9483,5.9483,5.9483,5.9483,5.9483,5.9483,5.9483,5.9483,5.9483,5.9483,5.9483,5.9483,5.9483,5.9483,5.9483,5.9483,5.9483,5.9483,5.9483,5.9483,5.9483,5.9483,5.9483,5.9483,5.9483,5.9483,5.9483,5.9483,5.9483,5.9483,5.9483,5.9483,5.9483,5.9483,5.9483,5.9483,5.9483,5.9483,5.9483,5.9483,5.9483,5.9483,5.9483,5.9483,5.9483,5.9483,5.9483,5.9483,5.9483,5.9483,5.9282,5.9006,5.878,5.824,5.7587,5.6759,5.6358,5.6219,5.6219,5.6219,5.6219,5.6219,5.6219,5.6219,5.6219,5.6219,5.6219,5.6219,5.6219,5.6219,5.6219,5.6219,5.6219,5.6219,5.6219,5.6219,5.6219,5.6219,5.6219,5.6219,5.6219,5.6219,5.6219,5.6219,5.6219,5.6219,5.6219,5.6219,5.6219,5.6219,5.6219,5.6219,5.6219,5.6219,5.6219,5.6219,5.6219,5.6219,5.6219,5.6219,5.6219,5.6219,5.6219,5.6219,5.6219,5.6219,5.6219,5.9483,5.9483,5.9483,5.9483,5.9483,5.9483,5.9483,5.9483,5.9483,5.9483,5.9483,5.9483,5.9483,5.9483,5.9483,5.9483,5.9483,5.9483,5.9483,5.9483,5.9483,5.9483,5.9483,5.9483,5.9483,5.9483,5.9483,5.9483,5.9483,5.9483,5.9483,5.9483,5.9483,5.9483,5.9483,5.9483,5.9483,5.9483,5.9483,5.9483,5.9483,5.9483,5.9483,5.9483,5.9483,5.9483,5.9483,5.9483,5.9483,5.9483,5.9483,5.9483,5.9483,5.9483,5.9483,5.9483,5.9483,5.9483,5.9483,5.9483,5.9382,5.8956,5.8742,5.844,5.7512,5.6784,5.6319,5.6219,5.6219,5.6219,5.6219,5.6219,5.6219,5.6219,5.6219,5.6219,5.6219,5.6219,5.6219,5.6219,5.6219,5.6219,5.6219,5.6219,5.6219,5.6219,5.6219,5.6219,5.6219,5.6219,5.6219,5.6219,5.6219,5.6219,5.6219,5.6219,5.6219,5.6219,5.6219,5.6219,5.6219,5.6219,5.6219,5.6219,5.6219,5.6219,5.6219,5.6219,5.6219,5.6219,5.6219,5.6219,5.6219,5.6219,5.6219,5.6219,5.9483,5.9483,5.9483,5.9483,5.9483,5.9483,5.9483,5.9483,5.9483,5.9483,5.9483,5.9483,5.9483,5.9483,5.9483,5.9483,5.9483,5.9483,5.9483,5.9483,5.9483,5.9483,5.9483,5.9483,5.9483,5.9483,5.9483,5.9483,5.9483,5.9483,5.9483,5.9483,5.9483,5.9483,5.9483,5.9483,5.9483,5.9483,5.9483,5.9483,5.9483,5.9483,5.9483,5.9483,5.9483,5.9483,5.9483,5.9483,5.9483,5.9483,5.9483,5.9483,5.9483,5.9483,5.9483,5.9483,5.9483,5.9483,5.9483,5.9483,5.9483,5.9408,5.9056,5.8641,5.8491,5.7637,5.6759,5.6319,5.6219,5.6219,5.6219,5.6219,5.6219,5.6219,5.6219,5.6219,5.6219,5.6219,5.6219,5.6219,5.6219,5.6219,5.6219,5.6219,5.6219,5.6219,5.6219,5.6219,5.6219,5.6219,5.6219,5.6219,5.6219,5.6219,5.6219,5.6219,5.6219,5.6219,5.6219,5.6219,5.6219,5.6219,5.6219,5.6219,5.6219,5.6219,5.6219,5.6219,5.6219,5.6219,5.6219,5.6219,5.6219,5.6219,5.6219,5.6219,5.9483,5.9483,5.9483,5.9483,5.9483,5.9483,5.9483,5.9483,5.9483,5.9483,5.9483,5.9483,5.9483,5.9483,5.9483,5.9483,5.9483,5.9483,5.9483,5.9483,5.9483,5.9483,5.9483,5.9483,5.9483,5.9483,5.9483,5.9483,5.9483,5.9483,5.9483,5.9483,5.9483,5.9483,5.9483,5.9483,5.9483,5.9483,5.9483,5.9483,5.9483,5.9483,5.9483,5.9483,5.9483,5.9483,5.9483,5.9483,5.9483,5.9483,5.9483,5.9483,5.9483,5.9483,5.9483,5.9483,5.9483,5.9483,5.9483,5.9483,5.9483,5.9483,5.9332,5.9081,5.8742,5.829,5.7688,5.6809,5.642,5.6219,5.6219,5.6219,5.6219,5.6219,5.6219,5.6219,5.6219,5.6219,5.6219,5.6219,5.6219,5.6219,5.6219,5.6219,5.6219,5.6219,5.6219,5.6219,5.6219,5.6219,5.6219,5.6219,5.6219,5.6219,5.6219,5.6219,5.6219,5.6219,5.6219,5.6219,5.6219,5.6219,5.6219,5.6219,5.6219,5.6219,5.6219,5.6219,5.6219,5.6219,5.6219,5.6219,5.6219,5.6219,5.6219,5.6219]},{"header":{"parameterUnit":"m.s-1","parameterCategory":1,"la1":30.6,"la2":28.766,"lo1":-90.7593,"lo2":-88.6598,"dx":0.0162,"dy":0.0183,"nx":116,"ny":114,"refTime":"2022-11-13T18:00:00:Z","depth":0,"parameterNumber":3,"parameterNumberName":"V-component_of_WINDS"},"data":[0.0,0.0,0.0,0.0,0.0,0.0,0.0,0.0,0.0,0.0,0.0,0.0,0.0,0.0,0.0,0.0,0.0,0.0,0.0,0.0,0.0,0.0,0.0,0.0,0.0,0.0,0.0,0.0,0.0,0.0,0.0,0.0,0.0,0.0,0.0,0.0,0.0,0.0,0.0,0.0,0.0,0.0,0.0,0.0,0.0,0.0,0.0,0.0,0.0,0.0,0.0,0.0,0.0,0.0,0.0,0.0,0.0,0.0,0.0,0.0,0.0,0.0,0.0,0.0,0.0,0.0,0.0,0.0,0.0,0.0,0.0,0.0,0.0,0.0,0.0,0.0,0.0,0.0,0.0,0.0,0.0,0.0,0.0,0.0,0.0,0.0,0.0,0.0,0.0,0.0,0.0,0.0,0.0,0.0,0.0,0.0,0.0,0.0,0.0,0.0,0.0,0.0,0.0,0.0,0.0,0.0,0.0,0.0,0.0,0.0,0.0,0.0,0.0,0.0,0.0,0.0,0.0,0.0,0.0,0.0,0.0,0.0,0.0,0.0,0.0,0.0,0.0,0.0,0.0,0.0,0.0,0.0,0.0,0.0,0.0,0.0,0.0,0.0,0.0,0.0,0.0,0.0,0.0,0.0,0.0,0.0,0.0,0.0,0.0,0.0,0.0,0.0,0.0,0.0,0.0,0.0,0.0,0.0,0.0,0.0,0.0,0.0,0.0,0.0,0.0,0.0,0.0,0.0,0.0,0.0,0.0,0.0,0.0,0.0,0.0,0.0,0.0,0.0,0.0,0.0,0.0,0.0,0.0,0.0,0.0,0.0,0.0,0.0,0.0,0.0,0.0,0.0,0.0,0.0,0.0,0.0,0.0,0.0,0.0,0.0,0.0,0.0,0.0,0.0,0.0,0.0,0.0,0.0,0.0,0.0,0.0,0.0,0.0,0.0,0.0,0.0,0.0,0.0,0.0,0.0,0.0,0.0,0.0,0.0,0.0,0.0,0.0,0.0,0.0,0.0,0.0,0.0,0.0,0.0,0.0,0.0,0.0,0.0,0.0,0.0,0.0,0.0,0.0,0.0,0.0,0.0,0.0,0.0,0.0,0.0,0.0,0.0,0.0,0.0,0.0,0.0,0.0,0.0,0.0,0.0,0.0,0.0,0.0,0.0,0.0,0.0,0.0,0.0,0.0,0.0,0.0,0.0,0.0,0.0,0.0,0.0,0.0,0.0,0.0,0.0,0.0,0.0,0.0,0.0,0.0,0.0,0.0,0.0,0.0,0.0,0.0,0.0,0.0,0.0,0.0,0.0,0.0,0.0,0.0,0.0,0.0,0.0,0.0,0.0,0.0,0.0,0.0,0.0,0.0,0.0,0.0,0.0,0.0,0.0,0.0,0.0,0.0,0.0,0.0,0.0,0.0,0.0,0.0,0.0,0.0,0.0,0.0,0.0,0.0,0.0,0.0,0.0,0.0,0.0,0.0,0.0,0.0,0.0,0.0,0.0,0.0,0.0,0.0,0.0,0.0,0.0,0.0,0.0,0.0,0.0,0.0,0.0,0.0,0.0,0.0,0.0,0.0,0.0,0.0,0.0,0.0,0.0,0.0,0.0,0.0,0.0,0.0,0.0,0.0,0.0,0.0,0.0,0.0,0.0,0.0,0.0,0.0,0.0,0.0,0.0,0.0,0.0,0.0,0.0,0.0,0.0,0.0,0.0,0.0,0.0,0.0,0.0,0.0,0.0,0.0,0.0,0.0,0.0,0.0,0.0,0.0,0.0,0.0,0.0,0.0,0.0,0.0,0.0,0.0,0.0,0.0,0.0,0.0,0.0,0.0,0.0,0.0,0.0,0.0,0.0,0.0,0.0,0.0,0.0,0.0,0.0,0.0,0.0,0.0,0.0,0.0,0.0,0.0,0.0,0.0,0.0,0.0,0.0,0.0,0.0,0.0,0.0,0.0,0.0,0.0,0.0,0.0,0.0,0.0,0.0,0.0,0.0,0.0,0.0,0.0,0.0,0.0,0.0,0.0,0.0,0.0,0.0,0.0,0.0,0.0,0.0,0.0,0.0,0.0,0.0,0.0,0.0,0.0,0.0,0.0,0.0,0.0,0.0,0.0,0.0,0.0,0.0,0.0,0.0,0.0,0.0,0.0,0.0,0.0,0.0,0.0,0.0,0.0,0.0,0.0,0.0,0.0,0.0,0.0,0.0,0.0,0.0,0.0,0.0,0.0,0.0,0.0,0.0,0.0,0.0,0.0,0.0,0.0,0.0,0.0,0.0,0.0,0.0,0.0,0.0,0.0,0.0,0.0,0.0,0.0,0.0,0.0,0.0,0.0,0.0,0.0,0.0,0.0,0.0,0.0,0.0,0.0,0.0,0.0,0.0,0.0,0.0,0.0,0.0,0.0,0.0,0.0,0.0,0.0,0.0,0.0,0.0,0.0,0.0,0.0,0.0,0.0,0.0,0.0,0.0,0.0,0.0,0.0,0.0,0.0,0.0,0.0,0.0,0.0,0.0,0.0,0.0,0.0,0.0,0.0,0.0,0.0,0.0,0.0,0.0,0.0,0.0,0.0,0.0,0.0,0.0,0.0,0.0,0.0,0.0,0.0,0.0,0.0,0.0,0.0,0.0,0.0,0.0,0.0,0.0,0.0,0.0,0.0,0.0,0.0,0.0,0.0,0.0,0.0,0.0,0.0,0.0,0.0,0.0,0.0,0.0,0.0,0.0,0.0,0.0,0.0,0.0,0.0,0.0,0.0,0.0,0.0,0.0,0.0,0.0,0.0,0.0,0.0,0.0,0.0,0.0,0.0,0.0,0.0,0.0,0.0,0.0,0.0,0.0,0.0,0.0,0.0,0.0,0.0,0.0,0.0,0.0,0.0,0.0,0.0,0.0,0.0,0.0,0.0,0.0,0.0,0.0,0.0,0.0,0.0,0.0,0.0,0.0,0.0,0.0,0.0,0.0,0.0,0.0,0.0,0.0,0.0,0.0,0.0,0.0,0.0,0.0,0.0,0.0,0.0,0.0,0.0,0.0,0.0,0.0,0.0,0.0,0.0,0.0,0.0,0.0,0.0,0.0,0.0,0.0,0.0,0.0,0.0,0.0,0.0,0.0,0.0,0.0,0.0,0.0,0.0,0.0,0.0,0.0,0.0,0.0,0.0,0.0,0.0,0.0,0.0,0.0,0.0,0.0,0.0,0.0,0.0,0.0,0.0,0.0,0.0,0.0,0.0,0.0,0.0,0.0,0.0,0.0,0.0,0.0,0.0,0.0,0.0,0.0,0.0,0.0,0.0,0.0,0.0,0.0,0.0,0.0,0.0,0.0,0.0,0.0,0.0,0.0,0.0,0.0,0.0,0.0,0.0,0.0,0.0,0.0,0.0,0.0,0.0,0.0,0.0,0.0,0.0,0.0,0.0,0.0,0.0,0.0,0.0,0.0,0.0,0.0,0.0,0.0,0.0,0.0,0.0,0.0,0.0,0.0,0.0,0.0,0.0,0.0,0.0,0.0,0.0,0.0,0.0,0.0,0.0,0.0,0.0,0.0,0.0,0.0,0.0,0.0,0.0,0.0,0.0,0.0,0.0,0.0,0.0,0.0,0.0,0.0,0.0,0.0,0.0,0.0,0.0,0.0,0.0,0.0,0.0,0.0,0.0,0.0,0.0,0.0,0.0,0.0,0.0,0.0,0.0,0.0,0.0,0.0,0.0,0.0,0.0,0.0,0.0,0.0,0.0,0.0,0.0,0.0,0.0,0.0,0.0,0.0,0.0,0.0,0.0,0.0,0.0,0.0,0.0,0.0,0.0,0.0,0.0,0.0,0.0,0.0,0.0,0.0,0.0,0.0,0.0,0.0,0.0,0.0,0.0,0.0,0.0,0.0,0.0,0.0,0.0,0.0,0.0,0.0,0.0,0.0,0.0,0.0,0.0,0.0,0.0,0.0,0.0,0.0,0.0,0.0,0.0,0.0,0.0,0.0,0.0,0.0,0.0,0.0,0.0,0.0,0.0,0.0,0.0,0.0,0.0,0.0,0.0,0.0,0.0,0.0,0.0,0.0,0.0,0.0,0.0,0.0,0.0,0.0,0.0,0.0,0.0,0.0,0.0,0.0,0.0,0.0,0.0,0.0,0.0,0.0,0.0,0.0,0.0,0.0,0.0,0.0,0.0,0.0,0.0,0.0,0.0,0.0,0.0,0.0,0.0,0.0,0.0,0.0,0.0,0.0,0.0,0.0,0.0,0.0,0.0,0.0,0.0,0.0,0.0,0.0,0.0,0.0,0.0,0.0,0.0,0.0,0.0,0.0,0.0,0.0,0.0,0.0,0.0,0.0,0.0,0.0,0.0,0.0,0.0,0.0,0.0,0.0,0.0,0.0,0.0,0.0,0.0,0.0,0.0,0.0,0.0,0.0,0.0,0.0,0.0,0.0,0.0,0.0,0.0,0.0,0.0,0.0,0.0,0.0,0.0,0.0,0.0,0.0,0.0,0.0,0.0,0.0,0.0,0.0,0.0,0.0,0.0,0.0,0.0,0.0,0.0,0.0,0.0,0.0,0.0,0.0,0.0,0.0,0.0,0.0,0.0,0.0,0.0,0.0,0.0,0.0,0.0,0.0,0.0,0.0,0.0,0.0,0.0,0.0,0.0,0.0,0.0,0.0,0.0,0.0,0.0,0.0,0.0,0.0,0.0,0.0,0.0,0.0,0.0,0.0,0.0,0.0,0.0,0.0,0.0,0.0,0.0,0.0,0.0,0.0,0.0,0.0,0.0,0.0,0.0,0.0,0.0,0.0,0.0,0.0,0.0,0.0,0.0,0.0,0.0,0.0,0.0,0.0,0.0,0.0,0.0,0.0,0.0,0.0,0.0,0.0,0.0,0.0,0.0,0.0,0.0,0.0,0.0,0.0,0.0,0.0,0.0,0.0,0.0,0.0,0.0,0.0,0.0,0.0,0.0,0.0,0.0,0.0,0.0,0.0,0.0,0.0,0.0,0.0,0.0,0.0,0.0,0.0,0.0,0.0,0.0,0.0,0.0,0.0,0.0,0.0,0.0,0.0,0.0,0.0,0.0,0.0,0.0,0.0,0.0,0.0,0.0,0.0,0.0,0.0,0.0,0.0,0.0,0.0,0.0,0.0,0.0,0.0,0.0,0.0,0.0,0.0,0.0,0.0,0.0,0.0,0.0,0.0,0.0,0.0,0.0,0.0,0.0,0.0,0.0,0.0,0.0,0.0,0.0,0.0,0.0,0.0,0.0,0.0,0.0,0.0,0.0,0.0,0.0,0.0,0.0,0.0,0.0,0.0,0.0,0.0,0.0,0.0,0.0,0.0,0.0,0.0,0.0,0.0,0.0,0.0,0.0,0.0,0.0,0.0,0.0,0.0,0.0,0.0,0.0,0.0,0.0,0.0,0.0,0.0,0.0,0.0,0.0,0.0,0.0,0.0,0.0,0.0,0.0,0.0,0.0,0.0,0.0,0.0,0.0,0.0,0.0,0.0,0.0,0.0,0.0,0.0,0.0,0.0,0.0,0.0,0.0,0.0,0.0,0.0,0.0,0.0,0.0,0.0,0.0,0.0,0.0,0.0,0.0,0.0,0.0,0.0,0.0,0.0,0.0,0.0,0.0,0.0,0.0,0.0,0.0,0.0,0.0,0.0,0.0,0.0,0.0,0.0,0.0,0.0,0.0,0.0,0.0,0.0,0.0,0.0,0.0,0.0,0.0,0.0,0.0,0.0,0.0,0.0,0.0,0.0,0.0,0.0,0.0,0.0,0.0,0.0,0.0,0.0,0.0,0.0,0.0,0.0,0.0,0.0,0.0,0.0,0.0,0.0,0.0,0.0,0.0,0.0,0.0,0.0,0.0,0.0,0.0,0.0,0.0,0.0,0.0,0.0,0.0,0.0,0.0,0.0,0.0,0.0,0.0,0.0,0.0,0.0,0.0,0.0,0.0,0.0,0.0,0.0,0.0,0.0,0.0,0.0,0.0,0.0,0.0,0.0,0.0,0.0,0.0,0.0,0.0,0.0,0.0,0.0,0.0,0.0,0.0,0.0,0.0,0.0,0.0,0.0,0.0,0.0,0.0,0.0,2.2924,0.0,0.0,0.0,0.0,0.0,0.0,0.0,0.0,0.0,0.0,0.0,0.0,0.0,0.0,0.0,0.0,0.0,0.0,0.0,0.0,0.0,0.0,0.0,0.0,1.7852,1.8204,1.8204,1.8204,0.0,0.0,0.0,0.0,0.0,0.0,0.0,1.8556,1.8832,1.9108,1.9397,1.9936,2.0489,2.0977,2.0701,2.0275,1.9799,0.0,0.0,0.0,0.0,0.0,0.0,0.0,0.0,0.0,0.0,0.0,0.0,0.0,0.0,0.0,0.0,0.0,0.0,0.0,0.0,0.0,0.0,0.0,0.0,0.0,0.0,0.0,0.0,0.0,0.0,0.0,0.0,0.0,0.0,0.0,0.0,0.0,0.0,0.0,0.0,0.0,0.0,0.0,0.0,0.0,0.0,0.0,0.0,0.0,0.0,0.0,0.0,0.0,0.0,0.0,0.0,0.0,0.0,0.0,0.0,0.0,0.0,0.0,0.0,0.0,0.0,0.0,0.0,0.0,0.0,0.0,2.3267,0.0,0.0,0.0,0.0,0.0,0.0,0.0,0.0,0.0,0.0,0.0,0.0,0.0,0.0,0.0,0.0,0.0,0.0,0.0,0.0,0.0,1.7864,1.8292,1.8418,1.848,1.848,1.848,1.848,1.848,1.8581,0.0,0.0,0.0,0.0,1.9447,1.9949,2.0477,2.0993,2.1633,2.2221,2.2759,2.3271,0.0,0.0,0.0,0.0,0.0,0.0,0.0,0.0,0.0,0.0,0.0,0.0,0.0,0.0,0.0,0.0,0.0,0.0,0.0,0.0,0.0,0.0,0.0,0.0,0.0,0.0,0.0,0.0,0.0,0.0,0.0,0.0,0.0,0.0,0.0,0.0,0.0,0.0,0.0,0.0,0.0,0.0,0.0,0.0,0.0,0.0,0.0,0.0,0.0,0.0,0.0,0.0,0.0,0.0,0.0,0.0,0.0,0.0,0.0,0.0,0.0,0.0,0.0,0.0,0.0,0.0,3.2311,3.2889,3.4327,3.3515,3.3172,3.2888,2.7645,2.5085,2.4629,2.4104,0.0,0.0,0.0,0.0,0.0,0.0,0.0,0.0,0.0,0.0,0.0,0.0,0.0,0.0,0.0,0.0,0.0,0.0,0.0,1.8807,1.8882,1.9321,1.9585,1.9585,1.9585,1.9585,1.9585,2.0088,0.0,0.0,0.0,0.0,2.1167,2.1694,2.2006,2.2096,2.315,2.3938,2.449,2.5034,2.5477,2.572,0.0,0.0,0.0,0.0,0.0,0.0,0.0,0.0,0.0,0.0,0.0,0.0,0.0,0.0,0.0,0.0,0.0,0.0,0.0,0.0,0.0,0.0,0.0,0.0,0.0,0.0,0.0,0.0,0.0,0.0,0.0,0.0,0.0,0.0,0.0,0.0,0.0,0.0,0.0,0.0,0.0,0.0,0.0,0.0,2.0978,2.2754,0.0,0.0,0.0,0.0,0.0,0.0,0.0,0.0,0.0,0.0,0.0,0.0,0.0,3.2939,3.3244,3.4377,3.4981,3.5056,3.5515,3.5839,3.6031,3.4847,3.4293,3.4197,3.2336,0.0,3.0718,2.814,0.0,0.0,0.0,0.0,0.0,0.0,0.0,0.0,0.0,0.0,0.0,0.0,0.0,0.0,0.0,0.0,0.0,0.0,0.0,0.0,0.0,2.0175,2.0427,2.0728,2.0753,2.0753,2.0753,2.1005,0.0,0.0,0.0,2.2096,2.2383,2.3261,2.4029,2.4648,2.5477,2.5963,2.6214,2.6766,2.7143,2.7336,2.5787,2.4582,2.3662,2.3125,0.0,0.0,0.0,0.0,0.0,0.0,0.0,0.0,0.0,0.0,0.0,0.0,0.0,0.0,0.0,0.0,0.0,0.0,0.0,0.0,0.0,0.0,0.0,0.0,0.0,0.0,0.0,0.0,0.0,0.0,0.0,0.0,0.0,0.0,0.0,0.0,0.0,0.0,0.0,2.2265,2.4329,2.4918,2.6354,2.7647,0.0,0.0,0.0,0.0,0.0,0.0,0.0,0.0,0.0,3.4051,3.4625,3.505,3.5301,3.6081,3.661,3.6911,3.7537,3.7964,3.8241,3.7667,3.7416,3.7391,3.6861,3.6548,3.6064,3.2131,3.1561,3.3029,0.0,0.0,0.0,0.0,2.9024,2.739,0.0,0.0,0.0,0.0,0.0,0.0,0.0,0.0,0.0,0.0,0.0,0.0,2.0616,2.0817,2.1105,2.1644,2.1694,2.1769,2.1895,2.2046,2.2372,0.0,2.306,2.3386,2.3963,2.5067,2.6138,2.711,2.7663,2.8015,2.8147,2.8549,2.8825,2.8925,2.8373,2.7143,2.5394,2.4858,2.3979,0.0,0.0,0.0,0.0,0.0,0.0,0.0,0.0,0.0,0.0,0.0,0.0,0.0,0.0,0.0,0.0,0.0,0.0,0.0,0.0,0.0,0.0,0.0,0.0,0.0,0.0,0.0,0.0,0.0,0.0,0.0,0.0,0.0,0.0,0.0,0.0,0.0,0.0,2.5422,2.7284,2.7365,2.8654,2.9727,0.0,0.0,0.0,0.0,0.0,0.0,3.4497,3.5052,3.5581,3.611,3.6709,3.7109,3.7235,3.7788,3.8241,3.8668,3.922,3.9722,4.0124,4.0124,4.0124,4.0124,4.0124,4.0124,3.9792,3.5654,3.4697,3.5792,3.5278,3.5063,3.4969,3.451,3.2864,3.0721,0.0,0.0,0.0,0.0,0.0,0.0,0.0,0.0,0.0,0.0,0.0,2.0641,2.0691,2.1155,2.1683,2.2207,2.2257,2.2483,2.2995,2.3562,2.4114,2.4666,2.5159,2.5728,2.6323,2.7369,2.8204,2.8781,2.9377,2.993,3.0437,3.0462,3.0758,3.121,3.0683,2.9227,2.7135,2.66,2.5728,2.465,0.0,0.0,0.0,0.0,0.0,0.0,0.0,0.0,0.0,0.0,0.0,0.0,0.0,0.0,0.0,0.0,0.0,0.0,0.0,0.0,0.0,0.0,0.0,0.0,0.0,0.0,0.0,0.0,0.0,0.0,0.0,0.0,0.0,0.0,0.0,0.0,0.0,0.0,0.0,3.0962,3.2156,0.0,0.0,0.0,0.0,3.5282,3.5332,3.5606,3.623,3.6783,3.7312,3.7864,3.8467,3.9019,3.9521,4.0074,4.0349,4.0374,4.0926,4.1175,4.1227,4.1227,4.1227,4.1227,4.1227,4.1227,4.1019,3.8505,3.8228,3.924,3.7412,3.7501,3.8416,3.6715,3.5966,3.539,0.0,0.0,0.0,1.6733,1.7146,1.7688,1.8581,1.8882,1.9346,2.0251,2.0566,2.0968,2.1644,2.2207,2.2759,2.3351,2.3712,2.4139,2.4666,2.4908,2.5611,2.6866,2.7118,2.7821,2.9101,2.9509,2.996,3.0507,3.0708,3.0934,3.111,3.111,3.121,3.1386,3.121,3.0683,2.9874,2.8994,2.7964,2.6924,2.6924,2.6021,0.0,0.0,0.0,0.0,0.0,0.0,0.0,0.0,0.0,0.0,0.0,0.0,0.0,0.0,0.0,0.0,0.0,0.0,0.0,0.0,0.0,0.0,0.0,0.0,0.0,0.0,0.0,0.0,0.0,0.0,0.0,0.0,0.0,0.0,0.0,0.0,0.0,3.242,3.3771,0.0,3.4904,3.5454,3.6157,3.7037,3.7112,3.7513,3.8492,3.9019,3.9421,3.9596,4.0148,4.0524,4.0725,4.1304,4.1783,4.2108,4.266,4.3084,4.3435,4.3435,4.3435,4.3435,4.3435,4.3435,4.3357,4.2506,4.1596,4.0647,3.9972,3.978,3.9846,3.9206,3.8185,3.7011,0.0,0.0,0.0,1.7286,1.7537,1.7978,1.8857,1.9321,1.9836,2.0591,2.1018,2.1583,2.2483,2.307,2.3712,2.4481,2.5059,2.5686,2.6389,2.6615,2.7376,2.8875,2.9126,2.9729,3.0859,3.1039,3.129,3.1662,3.1884,3.2085,3.224,3.224,3.234,3.2516,3.2315,3.224,3.221,3.1286,3.0156,2.8932,2.8932,2.8047,2.6648,0.0,0.0,0.0,0.0,0.0,0.0,0.0,0.0,0.0,0.0,0.0,0.0,0.0,0.0,0.0,0.0,0.0,0.0,0.0,0.0,0.0,0.0,0.0,0.0,0.0,0.0,0.0,0.0,0.0,0.0,0.0,0.0,0.0,0.0,0.0,3.3997,3.4195,3.5305,3.6234,3.661,3.7009,3.7688,3.8768,3.8843,3.927,4.0199,4.0777,4.1153,4.1329,4.1854,4.2231,4.2406,4.2811,4.319,4.3539,4.4091,4.4568,4.492,4.5066,4.5167,4.5167,4.5167,4.5167,4.5167,4.5167,4.4188,4.2682,4.2482,4.2206,4.1879,4.1879,4.0963,3.9634,0.0,0.0,1.6687,1.7311,1.7852,1.8393,1.8933,1.9974,2.0705,2.0717,2.1644,2.2508,2.307,2.3662,2.4456,2.5536,2.6172,2.7002,2.8072,2.8631,2.9459,0.0,0.0,0.0,3.1436,3.1964,3.224,3.2244,3.2839,3.3416,3.3922,3.3922,3.4198,3.4678,3.4173,3.3922,3.3897,3.3366,3.219,3.0688,3.0663,2.9986,2.8932,0.0,0.0,0.0,0.0,0.0,0.0,0.0,0.0,0.0,0.0,0.0,0.0,0.0,0.0,0.0,0.0,0.0,0.0,0.0,0.0,0.0,0.0,0.0,0.0,0.0,0.0,0.0,0.0,0.0,0.0,0.0,0.0,0.0,3.319,3.4527,3.5757,3.6383,3.6935,3.7713,3.8843,3.8969,3.9421,4.0449,4.0549,4.08,4.1352,4.1959,4.2512,4.3039,4.3564,4.4116,4.4614,4.464,4.4665,4.469,4.5271,4.5547,4.5573,4.6125,4.6351,4.6351,4.6351,4.6351,4.6351,4.6351,4.605,4.5497,4.4895,4.4614,4.4589,4.4589,4.4263,4.3465,1.65,1.65,1.6812,1.7802,1.8103,1.8505,1.9434,2.0226,2.0842,2.1231,2.187,2.2659,2.3653,2.4239,2.5034,2.6147,2.6758,2.7713,2.9227,2.9478,3.0206,0.0,0.0,0.0,3.2638,3.2788,3.3043,3.3445,3.3596,3.3947,3.4477,3.4477,3.4552,3.4703,3.4552,3.4477,3.4452,3.4301,3.3771,3.2918,3.2093,3.1361,3.0658,0.0,0.0,0.0,0.0,0.0,0.0,0.0,0.0,0.0,0.0,0.0,0.0,0.0,0.0,0.0,0.0,0.0,0.0,0.0,0.0,0.0,0.0,0.0,0.0,0.0,0.0,0.0,0.0,0.0,0.0,0.0,0.0,3.5351,3.4904,3.5604,3.6483,3.7462,3.8417,3.9295,3.9998,4.0399,4.0953,4.1683,4.211,4.2534,4.3059,4.3639,4.4016,4.4166,4.4719,4.5095,4.5246,4.5648,4.602,4.6421,4.6572,4.6848,4.7255,4.7405,4.7481,4.7481,4.7481,4.7481,4.7481,4.7481,4.738,4.7104,4.5773,4.4995,4.4589,4.4589,4.4489,4.4111,1.65,1.65,1.6862,1.7991,1.8204,1.8555,1.9635,2.0502,2.1144,2.1457,2.2157,2.3085,2.4214,2.4616,2.5343,2.6725,2.7537,2.8599,3.0055,3.0783,0.0,0.0,0.0,3.3215,3.3442,3.3442,3.3696,3.4248,3.4248,3.4502,3.5054,3.5054,3.5155,3.5403,3.5155,3.5054,3.5029,3.4803,3.4527,3.4198,3.3498,3.2641,3.1712,3.1391,3.1115,3.0809,2.9829,2.9352,2.9032,2.8442,0.0,0.0,0.0,0.0,0.0,0.0,0.0,0.0,0.0,0.0,0.0,0.0,0.0,0.0,0.0,0.0,0.0,0.0,0.0,0.0,0.0,0.0,0.0,0.0,3.6533,3.7111,3.7237,3.7563,3.8115,3.8944,3.9848,4.0601,4.1153,4.1706,4.2258,4.2838,4.3363,4.3915,4.4468,4.4819,4.5167,4.5618,4.5999,4.6276,4.6502,4.7054,4.7506,4.7832,4.8253,4.8629,4.8962,4.9213,4.9314,4.9314,4.9314,4.9314,4.9314,4.9314,4.9188,0.0,0.0,0.0,0.0,0.0,4.5643,4.5499,1.65,1.655,1.6937,1.8016,1.8254,1.8619,1.966,2.0765,2.1507,2.1507,2.2433,2.3521,2.4691,2.4816,2.5494,2.7236,2.8304,2.9434,3.0688,3.2261,0.0,3.309,3.309,3.3366,3.3897,3.3897,3.4176,3.4803,3.4803,3.5079,3.5583,3.5658,3.5981,3.648,3.5932,3.5683,3.5658,3.513,3.4853,3.4803,3.4803,3.3825,3.2394,3.2394,3.2064,3.1562,3.1512,3.1185,3.0763,3.0713,0.0,0.0,0.0,0.0,0.0,0.0,0.0,0.0,0.0,0.0,0.0,0.0,0.0,0.0,0.0,0.0,0.0,0.0,0.0,0.0,0.0,0.0,0.0,0.0,3.7613,3.8693,3.9823,4.0023,4.0224,4.0651,4.1177,4.1731,4.2311,4.2864,4.3416,4.394,4.4493,4.5041,4.5648,0.0,0.0,0.0,0.0,4.7626,4.8184,4.8793,4.9095,4.9095,5.0042,5.0519,5.0519,5.1046,5.1306,5.1306,5.1306,5.1306,5.1306,5.1306,5.0971,5.0343,4.8736,4.8109,4.8033,4.755,4.7375,4.7299,1.65,1.6887,1.7437,1.8078,1.8568,1.907,1.971,2.0765,2.1507,2.1507,2.2433,2.3521,2.4691,2.4816,2.5645,2.777,2.853,2.976,3.1742,0.0,3.309,3.309,3.309,3.3366,3.3897,3.3897,3.4352,3.5332,3.5332,3.5631,3.623,3.6659,3.691,3.7034,3.691,3.686,3.6835,3.6306,3.578,3.5332,3.5332,3.4628,3.3571,3.3571,3.3244,3.2713,3.2215,3.1989,3.1817,3.1386,3.1085,3.0809,3.0306,0.0,0.0,0.0,0.0,0.0,0.0,0.0,0.0,0.0,0.0,0.0,0.0,0.0,0.0,0.0,0.0,0.0,0.0,0.0,0.0,3.8894,3.9597,4.0425,4.1557,4.2085,4.2235,4.1909,4.2336,4.2886,4.3438,4.3991,4.4543,4.5121,4.5673,4.6195,4.6747,4.7205,4.7757,4.8435,4.8887,4.9364,4.9916,5.0494,5.0828,5.0828,0.0,0.0,5.1122,5.1255,5.1306,5.1306,5.1306,5.1306,5.1306,5.1306,5.1222,5.0996,4.9766,4.9264,4.9264,4.9163,4.9113,4.9113,1.65,1.6974,1.7562,1.8103,1.8644,1.9183,1.9736,2.0527,2.1194,2.1457,2.2207,2.3236,2.4666,2.5042,2.5971,2.7946,2.9377,3.0859,0.0,3.2939,3.309,3.309,3.309,3.3492,3.4276,3.4276,3.4851,3.5956,3.5956,3.6081,3.6405,3.6959,3.721,3.721,3.7462,3.7437,3.7185,3.6909,3.6482,3.5956,3.5956,3.5454,3.4678,3.4402,3.3972,3.3445,3.3169,3.2893,3.2591,3.2336,3.2039,3.1763,3.1491,3.1235,3.0959,0.0,0.0,0.0,0.0,0.0,0.0,0.0,0.0,0.0,0.0,0.0,0.0,0.0,0.0,3.651,0.0,0.0,3.912,3.9973,4.0802,4.1658,4.2487,4.3065,4.3288,4.3039,4.3463,4.4016,4.4593,4.5146,4.5698,4.6276,4.6803,4.7481,4.8335,4.8611,4.9138,5.0024,5.0293,5.0569,5.0845,5.1423,5.1699,5.1699,5.2226,5.2503,5.2503,5.2838,5.2964,5.2964,5.2964,5.2964,5.2964,5.2964,5.2964,5.2914,5.2336,5.1431,5.0444,5.0444,5.0444,5.0444,1.65,1.7074,1.7688,1.8117,1.8744,1.9284,1.9723,2.0301,2.0893,2.1432,2.197,2.2935,2.4616,2.5184,2.6214,2.8079,3.0181,0.0,0.0,3.304,3.309,3.309,3.309,3.3726,3.5012,3.4838,3.5481,3.7083,3.6615,3.6523,3.6758,3.7054,3.721,3.7235,3.7638,3.7588,3.721,3.7085,3.6783,3.6405,3.6405,3.613,3.5631,3.518,3.4625,3.4048,3.3947,3.3621,3.3241,3.314,3.2788,3.2365,3.2365,3.2064,3.1733,3.1733,3.1788,0.0,0.0,0.0,0.0,0.0,0.0,0.0,0.0,0.0,3.5859,3.5959,3.6886,3.7839,3.8391,3.9421,4.0325,4.0752,4.1783,4.2663,4.309,4.3815,4.4292,4.4292,4.4694,4.5141,4.5748,4.6301,4.6903,4.7525,4.8008,4.8736,4.9866,4.9916,5.0393,5.1398,5.1548,5.1649,5.1783,5.2302,5.2578,5.2603,5.3457,5.3858,5.3884,5.4396,5.4597,5.4597,5.4597,5.4597,5.4597,5.4597,5.4597,5.4597,5.4597,5.3517,5.1934,5.1833,5.1699,5.1599,1.65,1.7364,1.8129,1.8204,1.9032,1.9736,1.9786,2.0301,2.0893,2.1432,2.197,2.2935,2.4616,2.4867,2.5946,2.858,3.0407,0.0,3.2265,3.2792,3.309,3.309,3.309,3.4087,3.6236,3.5236,3.6266,3.9492,3.7428,3.6919,3.7906,3.741,3.721,3.721,3.7261,3.7261,3.7185,3.6683,3.6431,3.6405,3.6405,3.638,3.6281,3.623,3.5529,3.4552,3.4073,3.3847,3.3746,3.3266,3.3065,3.3014,3.3014,3.2964,3.2914,3.2914,0.0,3.3621,3.3621,3.3972,3.4352,3.4402,3.4828,3.5232,0.0,0.0,3.7136,3.7638,3.8642,3.9572,4.0098,4.1155,4.1934,4.1984,4.2939,4.3639,4.3689,4.5045,4.6024,4.6024,4.6075,4.6321,4.6873,4.7431,4.8184,4.9238,4.9364,4.9891,5.1054,5.1096,5.1373,5.2,5.2443,5.2955,5.3432,5.4044,5.4321,5.4321,5.4446,5.4496,5.4496,5.4572,5.4597,5.4597,5.4597,5.4597,5.4597,5.4597,5.4597,5.4597,5.4597,5.4446,5.417,5.3632,5.313,5.2719,1.6948,1.7652,1.8304,1.8619,1.9296,1.9811,1.9811,2.0012,2.0376,2.0968,2.1507,2.2332,2.3672,2.4983,2.6766,2.9227,3.0055,3.0959,3.2118,3.2441,3.2717,3.309,3.3704,3.4632,3.5886,3.6379,3.7526,3.9339,3.8733,3.8338,3.8111,3.8158,3.7831,3.721,3.7513,3.7487,3.7185,3.6959,3.6683,3.6405,3.6405,3.6405,3.6405,3.6405,3.6105,3.5604,3.5029,3.4628,0.0,0.0,3.4022,3.4022,3.4022,3.4022,3.4022,3.4022,3.4402,0.0,3.5276,3.5527,3.5755,3.6081,3.6332,3.6659,3.7337,3.809,3.8793,3.932,4.0073,4.0827,4.1379,4.1884,4.2386,0.0,4.3489,4.4141,4.5121,4.5874,4.6677,4.7631,4.8033,4.8309,4.8535,4.8761,4.9364,5.0494,5.0569,5.0921,5.1724,5.2076,5.2477,5.303,5.3582,5.3984,5.4245,5.4471,5.4597,5.4597,5.4924,5.5074,5.5099,5.539,5.5516,5.5516,5.5516,5.5516,5.5516,5.5516,5.5516,5.5516,5.5516,5.534,5.5024,5.4446,5.4059,5.3884,1.7311,1.7953,1.8543,1.8933,1.9447,1.9811,1.9811,1.9811,2.0025,2.0616,2.1043,2.1744,2.297,2.5125,2.7153,2.8743,2.9447,3.0281,3.1461,3.2228,3.2826,3.328,3.4468,3.5533,3.6393,3.7277,3.8359,3.9574,3.9611,3.9355,3.8807,3.8702,3.8257,3.7437,3.7532,3.7337,3.6984,3.6984,3.6758,3.6405,3.6405,3.6405,3.6405,3.6405,3.6405,3.6306,3.5732,3.5232,0.0,0.0,3.4703,3.4703,3.4703,3.4803,3.4929,3.4929,3.5531,3.6334,3.6934,3.7185,3.7361,3.7612,3.7914,3.8316,3.917,3.9747,4.03,4.0852,4.1279,4.1731,4.2311,4.2537,4.2889,4.3664,4.4192,4.492,4.615,4.6702,4.7481,4.8868,4.949,4.9941,5.0268,5.0142,5.0469,5.1448,5.1649,5.1975,5.2528,5.308,5.3557,5.3934,5.4522,5.4823,5.4823,5.4974,5.5049,5.5074,5.5415,5.5616,5.5616,5.6018,5.6219,5.6219,5.6219,5.6219,5.6219,5.6219,5.6219,5.6219,5.6219,5.5968,5.5566,5.5164,5.4873,5.4597,1.7398,1.8254,1.8983,1.9008,1.9447,1.9811,1.9811,1.9811,2.0025,2.0616,2.0717,2.1331,2.292,2.5125,2.6524,2.6575,2.8567,2.9804,2.9854,3.231,3.3779,3.3779,3.5288,3.6971,3.8668,3.7682,3.851,4.1308,3.9718,3.948,4.0511,3.889,3.8111,3.802,3.6922,3.6455,3.643,3.643,3.6406,3.6405,3.6405,3.6405,3.6405,3.6405,3.6405,3.6306,3.5732,0.0,0.0,0.0,3.4703,3.4703,3.4703,3.5079,0.0,3.5483,3.6635,3.8065,3.8668,3.9195,3.9471,3.8969,3.9622,4.0399,4.0424,4.0876,4.1428,4.2009,4.2162,4.2336,4.2889,4.3388,4.3765,4.379,4.5171,4.625,4.6301,4.7682,4.8944,4.9515,5.0067,5.082,0.0,5.1548,5.1473,5.2026,5.2578,5.3105,5.3632,5.4245,5.4572,5.4572,5.5064,5.5365,5.5365,5.5892,5.6168,5.6168,5.6168,5.6194,5.6194,5.6194,5.6219,5.6219,5.6219,5.6219,5.6219,5.6219,5.6219,5.6219,5.6219,5.6194,5.6194,5.6168,5.5491,5.4597,1.8318,1.8757,1.9108,1.9472,1.9673,1.9811,1.9811,1.9811,1.9861,2.0075,2.044,0.0,0.0,0.0,0.0,0.0,2.7677,2.8808,2.9742,3.1766,3.32,3.376,3.559,3.7063,3.8112,3.887,3.9753,4.0726,4.0616,4.0331,3.9932,3.935,3.8331,3.6885,3.6512,3.5932,3.5278,3.5278,3.5278,3.5278,3.5278,3.5278,3.5278,3.5278,3.5278,3.5303,0.0,0.0,0.0,0.0,0.0,0.0,3.6232,0.0,0.0,3.7965,3.8944,3.9772,4.0324,4.0625,4.0725,4.0524,4.075,4.1127,4.1557,4.1783,4.206,4.2612,4.3014,4.3313,4.3489,4.3966,4.4468,4.4844,4.5698,4.6552,4.728,4.8485,4.9515,5.0067,5.0971,0.0,0.0,0.0,0.0,5.3105,5.3331,5.3683,5.427,5.4848,5.515,5.515,5.5641,5.5942,5.5942,5.6118,5.6219,5.6219,5.6219,5.6219,5.6219,5.6219,5.6219,5.6219,5.6219,5.6219,5.6219,5.6219,5.6219,5.6219,5.6219,5.6219,5.6219,5.6219,5.5968,5.5666,1.8857,1.9158,1.9397,1.9736,1.9811,0.0,0.0,0.0,0.0,0.0,0.0,0.0,0.0,0.0,0.0,0.0,0.0,2.7885,2.9362,3.1433,3.2982,3.3826,3.6112,3.7562,3.7999,3.935,4.0038,4.0038,4.0696,4.0656,3.9867,3.9679,3.8843,3.7455,3.6646,3.5917,3.5236,3.4858,3.5029,3.5531,3.4929,3.5054,3.5529,3.4929,3.4703,0.0,0.0,0.0,0.0,0.0,0.0,0.0,0.0,0.0,3.8366,3.9848,4.0676,4.1178,4.153,4.1754,4.1854,4.1681,4.1781,4.2007,4.2386,4.2487,4.2587,4.2939,4.3413,4.379,4.379,4.4418,4.5121,4.5698,4.6401,4.7205,4.8083,4.9188,5.0092,5.067,5.1548,5.2251,0.0,0.0,0.0,5.3658,5.4084,5.4461,5.4873,5.539,5.5691,5.5691,5.6018,5.6219,5.6219,5.6219,5.6219,5.6219,5.6219,5.6219,5.6219,5.6219,5.6219,5.6219,5.6219,5.6219,5.6219,5.6219,5.6219,5.6219,5.6219,5.6219,5.6219,5.6219,5.6219,5.6219,1.9033,1.9447,1.9811,0.0,0.0,0.0,0.0,0.0,0.0,0.0,0.0,0.0,0.0,0.0,0.0,0.0,0.0,0.0,2.8646,3.1208,3.3073,3.3962,3.6731,3.829,3.835,3.902,3.9361,3.9361,4.0038,4.0337,4.0348,3.9838,3.9569,3.9401,3.7268,3.627,3.6161,3.507,3.5554,3.6859,3.5278,3.5579,3.6833,3.5205,0.0,0.0,0.0,0.0,0.0,0.0,0.0,0.0,0.0,3.8391,3.9973,4.1001,4.1756,4.2263,4.2263,4.2612,4.2889,4.2389,4.2612,4.3014,4.3014,4.3014,4.3014,4.3014,4.3413,4.3815,0.0,0.0,4.5673,4.625,4.723,4.8109,4.8718,4.9741,5.067,0.0,0.0,0.0,0.0,0.0,0.0,5.3923,0.0,5.539,5.544,5.5917,5.6219,5.6219,5.6219,5.6219,5.6219,5.6219,5.6219,5.6219,5.6219,5.6219,5.6219,5.6219,5.6219,5.6219,5.6219,5.6219,5.6219,5.6219,5.6219,5.6219,5.6219,5.6219,5.6219,5.6219,5.6219,5.6219,0.0,0.0,0.0,0.0,0.0,0.0,0.0,0.0,0.0,0.0,0.0,0.0,0.0,0.0,0.0,0.0,0.0,0.0,2.7876,2.9887,0.0,0.0,0.0,0.0,0.0,0.0,0.0,0.0,0.0,3.966,3.966,3.9535,3.9025,3.8189,3.6821,3.5817,3.5036,3.3968,3.3746,3.412,0.0,3.3768,3.4095,0.0,0.0,0.0,0.0,0.0,0.0,0.0,0.0,3.7613,3.7739,3.922,4.0951,4.1227,4.2007,4.2788,4.2788,4.2889,4.2964,4.2838,4.2889,4.3014,4.3014,4.3014,4.3014,4.3014,4.3413,4.3915,4.4313,4.4995,0.0,4.6722,4.7481,0.0,4.8718,5.0125,0.0,5.1272,0.0,5.3909,5.5549,5.5255,0.0,0.0,5.5984,5.5566,5.5968,5.6143,5.6219,5.6219,5.6219,5.6219,5.6219,5.6219,5.6219,5.6219,5.6219,5.6219,5.6219,5.6219,5.6219,5.6219,5.6219,5.6219,5.6219,5.6219,5.6219,5.6219,5.6219,5.6219,5.6219,5.6219,5.6219,5.6219,0.0,0.0,0.0,0.0,0.0,0.0,0.0,0.0,0.0,0.0,0.0,0.0,0.0,0.0,0.0,0.0,0.0,0.0,0.0,2.8498,0.0,0.0,0.0,0.0,0.0,0.0,0.0,0.0,0.0,0.0,0.0,3.8943,3.8538,3.7738,3.6682,3.5634,3.4635,3.3556,0.0,0.0,0.0,0.0,0.0,0.0,0.0,0.0,0.0,0.0,0.0,3.4954,3.6409,3.8015,3.8015,3.9521,4.1302,4.1302,4.2108,4.3014,4.3014,4.3014,4.3014,4.3014,4.3014,4.3014,4.3014,4.3014,4.3014,4.3014,4.3413,4.389,4.4192,4.492,4.5773,0.0,0.0,0.0,4.8718,5.025,5.1306,0.0,5.3402,0.0,5.5555,5.6911,5.7634,0.0,5.633,5.5892,5.6194,5.6219,5.6219,5.6219,5.6219,5.6219,5.6219,5.6219,5.6219,5.6219,5.6219,5.6219,5.6219,5.6219,5.6219,5.6219,0.0,5.6219,5.6219,5.6219,5.6219,5.6219,5.6219,5.6219,5.6219,5.6219,5.6219,5.6219,0.0,0.0,0.0,0.0,0.0,0.0,0.0,0.0,0.0,1.9911,1.9911,2.0313,0.0,0.0,0.0,0.0,0.0,0.0,0.0,0.0,0.0,0.0,0.0,0.0,0.0,0.0,0.0,0.0,0.0,0.0,0.0,0.0,0.0,0.0,0.0,0.0,0.0,0.0,0.0,0.0,0.0,0.0,0.0,0.0,0.0,0.0,0.0,0.0,0.0,3.4678,3.6158,3.8015,3.8015,3.9521,4.1302,4.1302,4.2108,4.3014,4.3014,4.3014,4.3014,4.3014,4.3014,4.3014,4.3014,4.3014,4.3014,4.3014,4.3363,4.3714,4.379,4.4669,4.5573,4.62,0.0,4.8109,4.8718,5.025,5.1306,5.1306,5.4404,5.6194,5.5411,5.8697,5.9901,5.7466,5.705,5.6823,5.6594,5.634,5.6219,5.6219,5.6219,5.6219,5.6219,5.6219,5.6219,5.6219,5.6219,5.6219,5.6219,5.6219,5.6219,5.6219,5.6219,5.6219,5.6219,5.6219,5.6219,5.6219,5.6219,5.6219,5.6219,5.6219,5.6219,5.6219,0.0,0.0,0.0,0.0,0.0,0.0,0.0,0.0,0.0,0.0,2.0541,2.0792,0.0,0.0,0.0,0.0,0.0,0.0,0.0,0.0,0.0,0.0,0.0,0.0,0.0,0.0,0.0,0.0,0.0,0.0,0.0,0.0,0.0,0.0,0.0,0.0,0.0,0.0,0.0,0.0,0.0,0.0,0.0,0.0,0.0,0.0,0.0,0.0,0.0,0.0,3.6158,3.8015,3.8015,3.9521,4.1302,4.1302,4.2108,4.3014,4.3014,4.3014,4.3014,4.3014,4.3014,4.3014,4.3014,4.3014,4.3014,4.3014,4.309,4.3263,4.3714,4.4342,4.5066,4.615,4.7205,4.8109,4.8718,5.025,5.1306,0.0,5.4767,5.7664,5.8946,6.0529,0.0,0.0,6.1495,6.0023,5.8507,5.7014,5.6219,5.6219,5.6219,5.6219,5.6219,5.6219,5.6219,5.6219,5.6219,5.6219,5.6219,5.6219,5.6219,5.6219,5.6219,0.0,5.6219,5.6219,5.6219,5.6219,5.6219,5.6219,5.6219,5.6219,5.6219,5.6219,0.0,0.0,0.0,0.0,0.0,0.0,0.0,2.0276,2.0477,2.1043,2.1356,2.1633,2.1895,2.2146,2.2533,0.0,0.0,0.0,0.0,0.0,0.0,0.0,0.0,0.0,0.0,0.0,0.0,0.0,0.0,0.0,0.0,0.0,0.0,0.0,0.0,0.0,0.0,0.0,0.0,0.0,0.0,0.0,0.0,0.0,0.0,0.0,0.0,0.0,0.0,0.0,3.5805,3.7261,3.7814,3.9521,4.1302,4.1302,4.2108,4.3014,4.3014,4.3014,4.3014,4.3014,4.3014,4.3014,4.3014,4.3014,4.3014,4.3014,4.3014,4.309,4.3341,4.3815,4.4468,4.5267,4.6572,4.7682,4.8234,5.0806,5.2588,5.2588,5.6985,5.9995,5.9898,6.2608,6.3991,6.2986,6.2953,6.1797,5.9043,5.7195,5.6219,5.6219,5.6219,5.6219,5.6219,5.6219,5.6219,5.6219,5.6219,5.6219,5.6219,5.6219,5.6219,5.6219,5.6219,5.6219,5.6219,5.6219,5.6219,5.6219,5.6219,5.6219,5.6219,5.6219,5.6219,5.6219,0.0,0.0,0.0,0.0,0.0,0.0,2.0616,2.0705,2.0943,2.1583,2.2046,2.2332,2.2458,2.2483,2.2644,0.0,0.0,0.0,0.0,0.0,0.0,0.0,0.0,0.0,0.0,0.0,0.0,0.0,0.0,0.0,0.0,0.0,0.0,0.0,0.0,0.0,0.0,0.0,0.0,0.0,0.0,0.0,0.0,0.0,0.0,0.0,0.0,0.0,3.3822,3.4477,3.5454,3.6606,3.7663,3.9345,4.1026,4.1378,4.2133,4.2864,4.2964,4.3014,4.3014,4.3014,4.3014,4.3014,4.3014,4.3014,4.3014,4.3014,4.3014,4.3014,4.3014,4.3438,4.408,4.4951,4.6506,4.78,4.8333,5.1816,5.4187,5.3864,5.8941,0.0,6.0513,6.4379,0.0,6.2986,6.3704,6.2887,5.9643,5.8144,5.7195,5.6787,5.6412,5.6219,5.6219,5.6219,5.6219,5.6219,5.6219,5.6219,5.6219,5.6219,5.6219,5.6219,5.6219,5.6219,5.6219,5.6219,5.6219,5.6219,5.6219,5.6219,5.6219,5.6219,5.6219,5.6219,0.0,0.0,0.0,0.0,0.0,0.0,0.0,2.0705,2.1069,2.2096,2.2257,2.2483,2.297,2.302,2.3045,0.0,0.0,0.0,0.0,0.0,0.0,0.0,0.0,0.0,0.0,0.0,0.0,0.0,0.0,0.0,0.0,0.0,0.0,0.0,0.0,0.0,0.0,0.0,0.0,0.0,0.0,0.0,0.0,0.0,0.0,0.0,0.0,3.314,3.3341,3.4352,3.5454,3.6606,3.7663,3.8843,4.0149,4.1658,4.2185,4.2389,4.2864,4.3014,4.3014,4.3014,4.3014,4.3014,4.3014,4.3014,4.3014,4.3014,4.3014,4.3014,4.3014,4.3438,4.4449,4.6348,4.8153,4.9466,4.9898,5.3457,5.5442,5.3965,0.0,0.0,6.2284,6.5122,6.6846,6.6508,6.5137,6.3444,6.1461,6.1191,6.0367,5.8719,5.705,5.6219,5.6219,5.6219,5.6219,5.6219,5.6219,5.6219,5.6219,5.6219,5.6219,5.6219,5.6219,5.6219,0.0,5.6219,5.6219,5.6219,5.6219,5.6219,5.6219,5.6219,5.6219,5.6219,0.0,0.0,0.0,0.0,0.0,0.0,2.103,2.1181,2.1583,2.2644,2.2769,2.2869,2.307,2.3095,2.3095,2.3095,0.0,0.0,0.0,0.0,0.0,0.0,0.0,0.0,0.0,0.0,0.0,2.8616,2.7995,0.0,0.0,0.0,0.0,0.0,0.0,0.0,0.0,0.0,0.0,0.0,0.0,0.0,0.0,0.0,0.0,0.0,0.0,0.0,3.3266,3.4327,3.4979,3.5755,3.7864,3.8592,3.9069,4.1078,4.2133,4.2738,4.2939,4.3014,4.3014,4.3014,4.3014,4.3014,4.3014,4.3014,4.3014,4.3014,4.3014,4.3014,4.3014,4.3162,4.4099,4.6491,4.8091,4.9602,5.133,5.511,5.7484,5.6824,6.1036,0.0,0.0,0.0,6.6999,6.6999,6.6353,6.5608,6.4885,6.2788,6.075,5.8938,5.8215,5.8005,5.8306,5.7221,5.6872,5.7223,5.7223,5.7223,5.7223,5.6835,5.6659,5.6659,5.6369,5.6219,0.0,5.6219,5.6219,5.6219,5.6219,5.6219,5.6219,5.6219,5.6219,5.6219,0.0,0.0,0.0,0.0,0.0,2.0402,2.1343,2.1619,2.2056,2.297,2.3095,2.3095,2.3095,2.3095,2.3095,2.3095,2.3095,0.0,0.0,0.0,0.0,0.0,0.0,0.0,0.0,0.0,2.6011,2.7364,2.6782,2.6499,0.0,0.0,0.0,0.0,0.0,0.0,0.0,0.0,0.0,0.0,0.0,0.0,0.0,0.0,0.0,0.0,0.0,0.0,0.0,0.0,0.0,3.5305,3.7487,3.8316,3.8919,4.0978,4.2007,4.2559,4.2914,4.3014,4.3014,4.3014,4.3014,4.3014,4.3014,4.2889,4.2813,4.2964,4.2864,4.2813,4.2964,4.3014,4.4013,4.7047,4.8586,5.0254,5.2825,5.6766,5.9306,5.9014,0.0,6.5084,6.5263,6.634,6.6999,6.6999,6.6999,6.6785,6.6231,6.4454,6.2676,6.0851,5.9701,5.9395,5.9976,5.8184,5.7499,5.7901,5.7901,5.7901,5.7876,5.7261,5.6985,5.696,5.6408,5.6219,0.0,5.6219,5.6219,5.6219,5.6219,5.6219,5.6219,5.6219,5.6219,5.6219,0.0,0.0,0.0,0.0,0.0,0.0,2.1432,2.1945,2.2483,2.302,2.3095,2.3095,2.3095,2.3095,2.3095,2.3095,2.3095,0.0,0.0,0.0,0.0,0.0,0.0,0.0,0.0,0.0,2.536,2.6516,2.6499,2.6499,2.6499,2.6499,2.6499,2.6499,0.0,0.0,0.0,0.0,0.0,0.0,0.0,0.0,0.0,0.0,0.0,0.0,0.0,0.0,0.0,0.0,0.0,0.0,0.0,3.7914,3.9998,4.1683,4.1781,4.1553,4.2685,4.3014,4.3014,4.3014,4.3014,4.3014,4.3014,4.2587,4.2336,4.2889,4.2562,4.2389,4.2914,4.3014,4.4347,4.8405,5.0157,5.1847,5.4443,5.8405,6.0748,0.0,6.2824,6.5263,6.5951,6.661,6.6999,6.6999,6.6999,0.0,6.441,6.6603,6.7113,6.5297,6.1649,6.0002,6.069,5.8809,5.7901,5.7901,5.7901,5.7901,5.7876,5.7261,5.6985,5.696,5.6408,5.6219,0.0,5.6219,5.6219,5.6219,5.6219,5.6219,5.6219,5.6219,5.6219,5.6219,0.0,0.0,0.0,0.0,0.0,0.0,0.0,2.197,2.2483,2.302,2.3095,2.3095,2.3095,2.3095,2.3095,2.3095,2.3095,0.0,0.0,0.0,0.0,0.0,0.0,0.0,0.0,0.0,2.5728,2.6499,2.6499,2.6499,2.6499,2.6876,2.7052,2.7052,2.7052,0.0,0.0,0.0,0.0,0.0,0.0,0.0,0.0,0.0,0.0,0.0,0.0,0.0,0.0,0.0,0.0,0.0,0.0,0.0,0.0,3.9899,4.0877,4.1478,4.2235,4.2436,4.2436,4.2436,4.2436,4.2336,4.193,4.1704,4.1756,4.2336,4.2338,4.2336,4.2914,4.3014,4.4347,4.8431,5.0184,5.2427,5.6498,5.9396,0.0,6.1936,6.4189,6.5951,0.0,0.0,6.6999,6.6999,6.6999,6.6754,6.6168,6.7349,6.7177,6.5362,6.3304,6.2513,6.3112,5.9979,5.8629,5.8981,5.8981,5.8981,5.8956,5.8052,5.7625,5.7575,5.662,5.6219,5.6219,5.6219,5.6219,5.6219,5.6219,5.6219,5.6219,5.6219,5.6219,5.6219,0.0,0.0,0.0,0.0,0.0,0.0,0.0,2.197,2.2483,2.302,2.3095,2.3095,2.3095,2.3095,2.3095,2.3095,2.3095,0.0,0.0,0.0,0.0,0.0,0.0,0.0,2.4791,2.5536,2.6231,2.6801,2.6984,2.7085,2.711,2.7462,2.7595,2.7595,2.7595,2.7595,0.0,0.0,0.0,0.0,0.0,0.0,2.8988,0.0,0.0,0.0,0.0,0.0,0.0,0.0,0.0,0.0,0.0,0.0,0.0,0.0,3.9371,4.0626,4.158,4.1856,4.1934,4.2135,4.2213,4.2135,4.1982,4.1779,4.1806,4.2386,4.2336,4.2336,4.2914,4.3014,4.4347,4.8431,5.0184,5.2676,5.744,5.982,0.0,6.3588,6.5323,0.0,0.0,6.6999,6.6999,6.6999,6.6999,6.7089,6.7389,6.8017,6.7648,6.6022,6.452,6.3991,6.4563,6.0884,5.9182,5.9483,5.9483,5.9483,5.9458,5.8378,5.7901,5.7851,5.6696,5.6219,0.0,5.6219,5.6219,5.6219,5.6219,5.6219,5.6219,5.6219,5.6219,5.6219,0.0,0.0,0.0,0.0,0.0,0.0,0.0,2.1895,2.2433,2.297,2.3045,2.307,2.3095,2.3095,2.3095,2.3095,0.0,0.0,0.0,0.0,0.0,0.0,0.0,0.0,2.4917,2.6005,2.6826,2.7361,2.7846,2.8097,2.8097,2.8147,2.8172,2.8172,2.8172,2.8104,0.0,0.0,0.0,0.0,0.0,2.7996,0.0,0.0,0.0,0.0,0.0,0.0,0.0,0.0,0.0,0.0,0.0,0.0,0.0,0.0,0.0,0.0,0.0,4.1175,4.1378,4.1934,4.2112,4.2261,4.2713,4.2462,0.0,4.2838,4.2537,4.2336,4.2914,4.3123,4.4537,4.8513,5.0376,5.2953,5.7616,6.0029,0.0,0.0,6.6191,6.6999,6.6999,6.6999,6.6999,6.6999,6.6999,6.7299,6.7958,6.8615,6.8479,6.7338,6.5333,6.4493,6.5,6.1365,5.9483,5.9483,5.9483,5.9483,5.9408,5.8378,5.7876,0.0,5.6696,5.6219,0.0,5.6219,5.6219,5.6219,5.6219,5.6219,5.6219,5.6219,5.6219,5.6219,0.0,0.0,0.0,0.0,0.0,0.0,0.0,0.0,0.0,0.0,2.2483,2.2644,2.307,2.3095,2.3095,0.0,0.0,0.0,0.0,0.0,0.0,0.0,0.0,0.0,2.608,2.6758,2.7361,2.7921,2.8047,2.8097,2.8122,2.8505,2.8706,2.8706,2.8706,2.8254,0.0,0.0,0.0,0.0,2.7921,2.8599,0.0,0.0,0.0,0.0,3.1406,3.2135,0.0,0.0,0.0,0.0,0.0,0.0,0.0,0.0,3.6681,3.7336,3.9019,0.0,4.0725,4.0877,4.1229,4.1428,0.0,4.1302,4.1681,4.2261,4.2313,0.0,4.2914,4.4266,4.6296,4.9361,5.1831,5.4844,5.9031,6.2211,0.0,6.4934,6.6191,6.6999,6.6999,6.6999,6.6999,6.6999,6.6999,6.7299,6.7958,6.8615,6.9082,6.9322,6.6508,6.4362,6.3062,6.0698,5.9483,5.9483,5.9483,5.9282,5.888,5.8202,5.765,5.7161,5.6483,5.6219,5.6219,5.6219,5.6219,5.6219,5.6219,5.6219,5.6219,5.6219,5.6219,5.6219,0.0,0.0,0.0,0.0,0.0,0.0,0.0,0.0,0.0,0.0,0.0,2.2408,2.2694,2.2945,0.0,0.0,0.0,0.0,0.0,0.0,0.0,0.0,0.0,2.5879,2.6491,2.7512,2.8323,2.8875,2.9126,2.9377,2.9628,2.9905,2.991,2.9659,2.9408,2.885,0.0,0.0,0.0,0.0,2.7921,0.0,0.0,0.0,0.0,0.0,3.1406,3.2135,0.0,3.309,3.309,3.314,0.0,0.0,0.0,0.0,3.5979,3.6656,3.7813,3.8944,3.9873,4.0374,4.0901,4.1302,4.1279,4.1681,4.2183,4.2487,4.2562,0.0,0.0,4.4922,4.6684,5.0809,5.2184,5.4543,5.9565,6.3001,6.5114,6.5413,6.637,6.6999,0.0,6.6999,6.6999,6.6999,6.6999,6.7418,6.8437,6.8794,6.8627,6.7805,6.6104,6.4714,6.3694,6.09,5.9483,5.9483,5.9483,5.9232,5.8666,5.8152,5.7575,5.696,5.6408,5.6219,5.6219,5.6219,5.6219,5.6219,5.6219,5.6219,5.6219,5.6219,5.6219,5.6219,0.0,0.0,0.0,0.0,0.0,0.0,0.0,0.0,0.0,0.0,0.0,0.0,0.0,0.0,0.0,0.0,0.0,0.0,0.0,0.0,0.0,0.0,0.0,2.6575,2.6751,2.8247,2.9333,2.9905,3.0457,3.0959,3.1406,3.1406,3.111,3.0588,3.0131,2.9553,0.0,0.0,0.0,0.0,2.7921,0.0,0.0,0.0,0.0,0.0,0.0,0.0,0.0,3.3065,3.309,3.309,3.309,0.0,0.0,0.0,0.0,0.0,3.711,3.8039,3.8994,4.0023,4.0775,4.1428,4.1959,4.2537,4.3014,4.3014,4.3065,4.3632,0.0,4.5628,0.0,0.0,0.0,5.4616,6.0106,6.3267,6.5233,6.5922,6.658,0.0,6.6999,6.6999,6.6999,6.6999,6.6999,6.7597,6.8944,6.9004,6.8099,6.6111,6.578,6.5639,6.5639,6.1565,5.9483,5.9483,5.9408,5.9235,5.8971,5.8114,5.7598,5.7252,0.0,0.0,5.6219,5.6522,5.6449,5.6255,5.6522,5.6449,5.6219,5.6219,5.6219,5.6219,0.0,0.0,0.0,0.0,0.0,0.0,0.0,0.0,0.0,0.0,0.0,0.0,0.0,0.0,0.0,0.0,0.0,0.0,0.0,0.0,0.0,2.4691,2.5854,2.6927,2.7821,2.9051,2.993,3.0462,3.1009,3.1311,3.1406,3.1406,3.111,3.0588,3.0512,2.9885,2.8888,2.8731,0.0,2.8907,2.8731,0.0,0.0,0.0,0.0,0.0,0.0,0.0,0.0,3.2939,3.309,3.309,3.309,0.0,0.0,0.0,0.0,0.0,3.7362,3.8015,3.8291,3.8994,4.0249,4.1327,4.1428,4.2258,4.3014,4.3014,4.3338,4.3775,4.4077,4.7298,5.0435,0.0,0.0,6.0286,6.2405,6.4039,6.5233,6.5922,0.0,6.6999,6.6999,6.6999,6.6999,6.6999,6.6999,6.7597,6.8944,6.9004,6.9317,7.0015,6.8456,6.7673,6.7673,6.2238,5.9483,5.9483,5.9056,5.9336,6.0248,5.8116,5.7677,5.8532,0.0,5.6219,5.6303,5.7859,5.76,5.634,5.7895,5.7564,5.6219,5.6219,5.6219,5.6219,0.0,0.0,0.0,0.0,0.0,0.0,0.0,0.0,0.0,0.0,0.0,0.0,0.0,0.0,0.0,0.0,0.0,0.0,0.0,0.0,0.0,2.4816,2.644,2.7613,2.8097,2.9503,3.0507,3.1035,3.1562,3.1989,3.2311,3.1989,3.1712,3.1441,3.0864,3.0312,2.9785,2.9139,2.9082,2.9358,0.0,0.0,0.0,0.0,0.0,0.0,0.0,0.0,0.0,0.0,3.309,3.309,3.309,0.0,0.0,0.0,0.0,0.0,3.7036,3.7789,3.8216,3.912,4.0299,4.1403,4.1706,0.0,4.309,4.3363,4.3639,4.4323,4.6019,4.7719,4.9735,5.2473,0.0,6.1234,6.2583,6.4366,6.5802,0.0,0.0,6.6999,6.6999,6.6999,6.6999,6.6999,6.6999,6.7597,6.8944,6.9004,6.9127,6.939,6.8552,6.7604,6.6545,6.3524,6.2032,6.2032,6.1768,6.1656,6.1561,6.0412,6.0065,6.0333,0.0,5.9113,5.9183,6.0023,5.9287,5.7743,5.8578,5.7788,5.6219,5.6219,5.6219,5.6219,0.0,0.0,0.0,0.0,0.0,0.0,0.0,0.0,0.0,0.0,0.0,0.0,0.0,0.0,0.0,0.0,0.0,0.0,0.0,0.0,2.4816,2.4816,2.6899,2.8097,2.8097,2.988,3.0984,3.1406,3.2089,3.2641,3.309,3.2616,3.234,3.2144,3.119,3.0733,3.0538,2.9534,2.9377,2.9754,0.0,0.0,0.0,0.0,0.0,0.0,0.0,0.0,0.0,0.0,0.0,0.0,0.0,0.0,0.0,3.4377,3.4703,3.5079,3.6885,3.7789,3.8517,3.9772,4.0675,0.0,0.0,0.0,0.0,0.0,0.0,0.0,4.7539,4.8458,5.0363,5.4979,5.8767,6.1575,6.2915,6.4777,6.6251,6.6909,6.6999,6.6999,6.6999,6.6999,6.6999,6.6999,6.6999,6.7508,6.8704,6.8764,6.8637,6.8323,6.8285,6.7617,6.6094,6.5581,6.493,6.4197,6.3894,6.3529,6.3016,6.2443,6.2206,6.2197,6.1763,6.1595,6.1629,6.2064,6.1157,5.9574,5.9989,5.9043,5.7456,5.7456,5.7456,5.7385,0.0,0.0,0.0,0.0,0.0,0.0,0.0,0.0,0.0,0.0,0.0,0.0,0.0,0.0,0.0,0.0,0.0,0.0,0.0,0.0,2.4816,2.4816,2.6899,2.8097,2.8097,3.0231,3.1361,3.1406,3.2512,3.3065,3.309,3.3065,3.2742,3.2169,3.1587,3.106,0.0,0.0,2.9754,2.9804,2.9754,0.0,0.0,0.0,0.0,0.0,0.0,0.0,0.0,0.0,0.0,0.0,0.0,0.0,3.3316,3.4377,3.4703,3.518,3.7362,3.8366,3.922,4.08,4.1225,0.0,4.206,4.3014,0.0,4.379,0.0,0.0,0.0,5.0569,5.5631,6.0671,6.2283,6.3382,6.4636,0.0,6.6251,6.6909,6.6999,6.6999,6.6999,6.6999,6.6999,6.6999,6.6999,6.7298,6.8047,6.8077,6.8344,6.8903,6.8933,6.887,6.8713,6.8683,6.7148,6.4197,6.3066,6.337,6.4843,6.2666,6.2552,6.4024,6.233,6.1595,6.173,6.3411,6.3051,6.1562,6.3248,6.2821,6.1191,6.1191,6.1191,6.0954,0.0,0.0,0.0,0.0,0.0,0.0,0.0,0.0,0.0,0.0,0.0,0.0,0.0,0.0,0.0,0.0,0.0,0.0,0.0,2.4173,2.4816,2.4816,2.6899,2.8097,2.8097,3.0256,3.1406,3.1406,3.2537,3.309,3.309,3.309,3.2989,3.2717,3.2164,0.0,0.0,0.0,0.0,2.9804,2.9804,2.9804,0.0,0.0,0.0,0.0,0.0,0.0,0.0,0.0,3.2365,3.2591,3.2989,3.309,3.3316,3.4377,3.4954,3.5606,3.7513,3.8668,3.9697,4.0976,4.1829,0.0,0.0,4.3263,4.3991,4.4694,4.5623,0.0,0.0,0.0,5.5655,6.0468,6.2052,6.341,6.5353,6.6191,6.67,6.6969,6.6999,6.6999,6.6999,6.6999,6.6999,6.6999,6.6999,6.7299,6.7958,6.7987,6.8317,6.8974,6.9004,6.9004,6.9004,6.8585,6.7743,6.6542,6.6109,6.6023,6.6273,6.5348,6.5326,6.595,6.5263,6.4949,6.501,6.5702,6.4885,6.3248,6.2788,6.2197,6.1595,6.1595,6.1595,6.1495,0.0,0.0,0.0,0.0,0.0,0.0,0.0,0.0,0.0,0.0,0.0,0.0,0.0,0.0,0.0,0.0,0.0,0.0,2.3095,2.4173,2.4816,2.4816,2.6899,2.8097,2.8097,3.0105,3.1235,3.1406,3.2537,3.309,3.309,3.309,3.309,3.3065,0.0,0.0,0.0,0.0,0.0,0.0,2.9804,2.9804,0.0,0.0,0.0,0.0,0.0,0.0,0.0,0.0,3.1918,3.2269,3.2692,3.2964,3.3316,3.4377,3.5079,3.5859,3.7538,3.8969,4.0174,4.1076,0.0,0.0,4.3187,4.3815,4.4593,4.5547,4.6602,4.844,5.1987,0.0,0.0,6.0291,6.2269,6.3905,6.5741,6.658,6.6999,6.6999,6.6999,6.6999,6.6999,6.6999,6.6999,6.6999,6.6999,6.7178,6.7658,6.7688,6.7867,6.8345,6.8375,6.8375,6.8375,6.7928,6.7688,6.7688,6.7688,6.7418,6.6999,6.6999,6.6999,6.6999,6.6999,6.6999,6.6999,6.6999,6.6291,6.5042,6.3797,6.3313,6.3313,6.3313,6.3313,6.3215,0.0,0.0,0.0,0.0,0.0,0.0,0.0,0.0,0.0,0.0,0.0,0.0,0.0,0.0,0.0,0.0,0.0,0.0,2.3095,2.4173,2.4816,2.4816,2.6899,2.8097,2.8097,2.9735,3.0884,3.1432,3.2537,3.309,3.309,3.309,3.309,0.0,0.0,0.0,0.0,0.0,0.0,0.0,2.9804,2.9804,2.9804,0.0,0.0,0.0,0.0,0.0,0.0,0.0,3.129,3.2194,3.2194,3.2616,3.3316,3.4377,3.5082,3.5859,3.7563,3.9245,4.0625,4.1177,4.2158,4.3165,4.3689,4.4669,4.5648,4.6225,4.8083,5.0473,5.3302,5.5681,0.0,6.1042,6.35,6.5233,6.5922,6.658,6.6999,6.6999,6.6999,6.6999,6.6999,6.6999,6.6999,6.6999,6.6999,6.6999,6.6999,6.6999,6.6999,6.6999,6.6999,6.6999,6.6999,6.6999,6.6999,6.6999,6.6999,6.6999,6.6999,6.6999,6.6999,6.6999,6.6999,6.6999,6.6999,6.6999,6.6999,6.6999,6.6999,6.6999,6.6999,6.6999,6.6999,6.6754,0.0,0.0,0.0,0.0,0.0,0.0,0.0,0.0,0.0,0.0,0.0,0.0,0.0,0.0,0.0,0.0,0.0,0.0,2.3095,2.4173,2.4816,2.4816,2.6565,2.772,2.8097,3.0105,3.1436,3.1964,3.2738,3.309,3.309,3.309,0.0,0.0,0.0,0.0,0.0,0.0,0.0,0.0,2.9804,2.9804,2.9804,0.0,0.0,0.0,0.0,0.0,0.0,0.0,0.0,0.0,3.2089,3.2616,3.3316,3.4377,3.5378,3.6406,3.7663,3.9496,4.1102,4.1277,4.2431,4.3689,4.4242,4.4945,0.0,0.0,4.9188,5.126,5.4905,5.6796,0.0,6.3291,6.4934,6.5951,6.661,6.6879,6.6999,6.6999,6.6999,6.6999,6.6999,6.6999,6.6999,6.6999,6.6999,6.6999,6.6999,6.6999,6.6999,6.6999,6.6999,6.6999,6.6999,6.6999,6.6999,6.6999,6.6999,6.6999,6.6999,6.6999,6.6999,6.6999,6.6999,6.6999,6.6999,6.6999,6.6999,6.6999,6.6999,6.6999,6.6999,6.6999,6.6999,6.6908,0.0,0.0,0.0,0.0,0.0,0.0,0.0,0.0,0.0,0.0,1.9811,2.0112,0.0,0.0,0.0,0.0,0.0,0.0,2.3095,2.4173,2.4816,2.4816,2.6414,2.7645,2.8405,2.9955,3.1135,3.1888,3.2713,3.309,3.309,0.0,0.0,0.0,0.0,0.0,0.0,0.0,0.0,0.0,2.988,2.9804,2.9804,0.0,0.0,0.0,0.0,0.0,0.0,0.0,0.0,0.0,3.1788,3.2441,3.3316,3.4377,3.5353,3.6332,3.7638,3.9445,4.1051,4.1252,4.2381,4.379,4.4991,4.5899,4.6954,4.8768,5.0523,5.2524,5.5127,5.7727,6.0432,6.3523,6.5111,6.6251,6.6909,6.6999,6.6999,6.6999,6.6999,6.6999,6.6999,6.6999,6.6999,6.6999,6.6999,6.6999,6.6999,6.6999,6.6999,6.6999,6.6999,6.6999,6.6999,6.6999,6.6999,6.6999,6.6999,6.6999,6.6999,6.6999,6.6999,6.6999,6.6999,6.6999,6.6999,6.6999,6.6999,6.6999,6.6999,6.6999,6.6999,6.6999,6.6999,6.6999,0.0,0.0,0.0,0.0,0.0,0.0,0.0,0.0,0.0,1.9811,1.9811,2.0238,0.0,0.0,0.0,2.302,2.3095,2.3095,2.3095,2.4123,2.4741,2.4741,2.6314,2.7695,2.8731,2.9453,3.0281,3.1235,3.2437,3.304,0.0,0.0,0.0,0.0,0.0,0.0,0.0,0.0,0.0,0.0,2.9825,2.9621,2.9718,2.9668,0.0,0.0,0.0,0.0,0.0,0.0,0.0,0.0,3.1361,3.216,3.3241,3.4301,3.5031,3.5859,3.7513,3.9195,4.0625,4.1177,4.2233,4.3746,4.5977,4.7252,4.8234,4.9414,5.1878,5.399,5.4702,5.8557,6.1839,6.2602,6.4624,6.6311,6.6909,6.6999,6.6999,6.6999,6.6999,6.6999,6.6999,6.6999,6.6999,6.6999,6.6999,6.6999,6.6999,6.6999,6.6999,6.6999,6.6999,6.6999,6.6999,6.6999,6.6999,6.6999,6.6999,6.6999,6.6999,6.6999,6.6999,6.6999,6.6999,6.6999,6.6999,6.6999,6.6999,6.6999,6.6999,6.6999,6.6999,6.6999,6.6999,6.6999,0.0,0.0,0.0,0.0,0.0,0.0,0.0,0.0,1.9811,1.9811,1.9811,2.0238,2.1382,2.1507,0.0,2.302,2.3095,2.3095,2.3095,2.3763,2.418,2.418,2.5778,2.6977,2.762,2.9051,2.9905,3.0131,3.1662,3.2641,0.0,0.0,0.0,0.0,0.0,0.0,0.0,0.0,0.0,0.0,0.0,2.821,2.8963,2.8614,2.9028,0.0,0.0,0.0,0.0,0.0,0.0,0.0,3.126,3.1863,3.2616,3.3746,3.4753,3.5759,3.7036,3.8894,4.0625,4.1177,4.2783,4.4965,4.7577,4.8051,4.836,4.9916,5.2104,5.4373,5.6295,5.9736,6.2761,6.4215,6.577,6.6819,6.6969,6.6999,6.6999,6.6999,6.6999,6.6999,6.6999,6.6999,6.6999,6.6999,6.6999,6.6999,6.6999,6.6999,6.6999,6.6999,6.6999,6.6999,6.6999,6.6999,6.6999,6.6999,6.6999,6.6999,6.6999,6.6999,6.6999,6.6999,6.6999,6.6999,6.6999,6.6999,6.6999,6.6999,6.6999,6.6999,6.6999,6.6999,6.6999,6.6999,0.0,0.0,0.0,0.0,0.0,0.0,0.0,0.0,1.9911,2.0201,2.0226,2.0653,2.1769,2.187,0.0,0.0,2.3095,2.3095,2.3095,2.3662,2.4104,2.4365,2.5477,2.6331,2.6884,2.8291,2.9252,2.9804,3.0909,3.1863,0.0,0.0,0.0,0.0,0.0,0.0,0.0,0.0,0.0,0.0,0.0,0.0,3.0012,2.976,3.0049,3.0577,3.0577,0.0,0.0,0.0,0.0,0.0,0.0,0.0,3.242,3.3571,3.4477,3.5431,3.681,3.8617,4.045,4.1781,4.336,4.5226,4.7667,4.8056,4.8829,5.202,5.3913,5.578,5.8303,6.1466,6.3973,6.4875,6.6131,6.6999,6.6999,6.6999,6.6999,6.6999,6.6999,6.6999,6.6999,6.6999,6.6999,6.6999,6.6999,6.6999,6.6999,6.6999,6.6999,6.6999,6.6999,6.6999,6.6999,6.6999,6.6999,6.6999,6.6999,6.6999,6.6999,6.6999,6.6999,6.6999,6.6999,6.6999,6.6999,6.6999,6.6999,6.6999,6.6999,6.6999,6.6999,6.6999,6.6999,6.6999,0.0,0.0,0.0,0.0,0.0,0.0,0.0,0.0,0.0,2.0767,2.0842,2.1206,2.2182,2.2307,2.2533,0.0,0.0,0.0,2.308,2.3562,2.4089,2.4641,2.5084,2.5653,2.6323,2.7311,2.8373,2.9503,3.0036,0.0,0.0,0.0,0.0,0.0,0.0,0.0,0.0,0.0,0.0,0.0,0.0,0.0,0.0,0.0,0.0,3.1406,3.1406,3.111,3.0738,3.0738,0.0,0.0,0.0,0.0,3.2416,3.3445,3.4223,3.5029,3.6609,3.8492,4.0425,4.2386,4.374,4.5208,4.7585,4.821,4.9748,5.4835,5.611,5.7157,5.9979,6.2969,6.4994,6.4994,6.6131,6.6999,6.6999,6.6999,6.6999,6.6999,6.6999,6.6999,6.6999,6.6999,6.6999,6.6999,6.6999,6.6999,6.6999,6.6999,6.6999,6.6999,6.6999,6.6999,6.6999,6.6999,6.6999,6.6999,6.6999,6.6999,6.6999,6.6999,6.6999,6.6999,6.6999,6.6999,6.6999,6.6999,6.6999,6.6999,6.6999,6.6999,6.6999,6.6999,6.6999,6.6999,0.0,0.0,0.0,0.0,0.0,0.0,0.0,0.0,0.0,0.0,2.1382,2.1619,2.2232,2.2307,2.2533,2.3045,2.2473,2.2365,2.305,0.0,0.0,2.4079,2.418,2.4682,2.5703,2.6356,2.7236,2.8323,2.8856,0.0,0.0,0.0,0.0,0.0,0.0,0.0,0.0,0.0,0.0,0.0,0.0,0.0,0.0,0.0,0.0,0.0,3.1406,3.1336,3.1286,3.1286,3.1286,0.0,0.0,0.0,3.234,3.3014,3.3922,3.4954,3.618,3.8743,4.1277,4.211,4.3463,4.5499,4.9008,4.9877,5.1608,5.7406,5.7367,5.7157,5.9979,6.2969,6.4994,6.4994,6.6131,6.6999,6.6999,6.6999,6.6999,6.6999,6.6999,6.6999,6.6999,6.6999,6.6999,6.6999,6.6999,6.6999,6.6999,6.6999,6.6999,6.6999,6.6999,6.6999,6.6999,6.6999,6.6999,6.6999,6.6999,6.6999,6.6999,6.6999,6.6999,6.6999,6.6999,6.6999,6.6999,6.6999,6.6999,6.6999,6.6999,6.6999,6.6999,6.6999,6.6999,6.6999,0.0,0.0,0.0,0.0,0.0,0.0,0.0,0.0,0.0,0.0,0.0,2.2157,2.2694,2.2744,2.2844,2.307,2.2778,2.2732,2.3065,2.3095,2.3221,2.3471,2.3828,2.4356,2.5118,2.6047,2.701,2.8097,0.0,0.0,0.0,2.9841,3.0597,0.0,0.0,0.0,0.0,0.0,0.0,0.0,0.0,3.0846,0.0,0.0,0.0,0.0,0.0,3.216,3.1863,3.1863,3.1637,3.1486,3.2039,0.0,0.0,0.0,3.3668,3.47,3.6734,3.9044,4.1078,4.1959,4.319,4.5096,4.8708,4.9705,5.1504,5.734,5.7766,5.7965,6.0882,6.306,6.4545,6.4934,6.5832,6.658,6.6939,6.6999,6.6999,6.6999,6.6999,6.6999,6.6999,6.6999,6.6999,6.6999,6.6999,6.6999,6.6999,6.6999,6.6999,6.6999,6.6999,6.6999,6.6999,6.6999,6.6999,6.6999,6.6999,6.6999,6.6999,6.6999,6.6999,6.6999,6.6999,6.6999,6.6999,6.6999,6.6999,6.6999,6.6999,6.6999,6.6999,6.6999,6.6999,6.6999,0.0,0.0,0.0,0.0,0.0,0.0,0.0,0.0,0.0,0.0,0.0,2.2659,2.307,0.0,0.0,0.0,2.2717,2.2463,2.2463,2.2869,2.3095,2.3095,2.3537,2.4089,2.4791,2.5611,2.6683,2.7896,0.0,0.0,2.9578,2.9729,3.0507,0.0,3.1938,0.0,0.0,0.0,0.0,0.0,3.1711,3.1952,0.0,0.0,0.0,0.0,0.0,0.0,3.2466,3.2591,3.2265,3.1888,3.2315,3.2441,0.0,0.0,0.0,3.4801,3.6985,3.8919,4.0526,4.1532,4.2688,4.4561,4.8271,4.9498,5.1366,5.6743,5.7959,5.8774,6.1146,6.278,6.3977,6.4635,6.5443,6.6191,6.667,6.6879,6.6999,6.6999,6.6999,6.6999,6.6999,6.6999,6.6999,6.6999,6.6999,6.6999,6.6999,6.6999,6.6999,6.6999,6.6999,6.6999,6.6999,6.6999,6.6999,6.6999,6.6999,6.6999,6.6999,6.6999,6.6999,6.6999,6.6999,6.6999,6.6999,6.6999,6.6999,6.6999,6.6999,6.6999,6.6999,6.6999,6.6999,6.6999,0.0,0.0,0.0,0.0,0.0,0.0,0.0,0.0,0.0,0.0,0.0,2.307,2.3095,2.3095,2.3095,2.3095,2.1635,2.0735,2.0735,2.2218,2.3095,2.3095,2.312,0.0,2.4791,2.4867,2.5695,0.0,0.0,0.0,2.8957,2.9528,3.0105,3.0688,3.121,3.1738,3.2269,0.0,0.0,0.0,0.0,3.1952,0.0,0.0,0.0,0.0,0.0,0.0,0.0,3.3646,3.3467,3.3014,3.304,3.3065,3.3065,0.0,0.0,0.0,3.6281,3.809,3.9873,4.045,4.1831,4.4128,4.8162,4.9993,5.2012,5.6275,5.8148,5.9287,6.0057,6.182,6.3347,6.3947,6.5144,6.6011,6.6071,6.661,6.6999,6.6999,6.6999,6.6999,6.6999,6.6999,6.6999,6.6999,6.6999,6.6999,6.6999,6.6999,6.6999,6.6999,6.6999,6.6999,6.6999,6.6999,6.6999,6.6999,6.6999,6.6999,6.6999,6.6999,6.6999,6.6999,6.6999,6.6999,6.6999,6.6999,6.6999,6.6999,6.6999,6.6999,6.6999,6.6999,6.6999,6.6999,0.0,0.0,0.0,0.0,0.0,0.0,0.0,0.0,0.0,0.0,0.0,0.0,0.0,0.0,0.0,2.4173,2.3347,2.2781,2.2781,2.2976,2.3095,2.3095,2.3095,2.3622,2.4791,2.4816,0.0,0.0,0.0,2.8047,2.8888,2.9132,2.9534,3.0131,3.1009,3.1687,3.224,3.2842,0.0,0.0,0.0,0.0,0.0,0.0,0.0,0.0,0.0,0.0,0.0,3.3947,3.3771,3.3545,3.3215,3.309,3.309,3.309,3.3746,3.4653,3.5581,3.7186,3.8919,4.0173,4.148,4.3539,4.7534,4.9437,5.1416,5.5115,5.7274,5.8653,5.9338,6.1104,6.266,6.3347,6.4156,6.4874,6.5293,6.5951,6.637,6.637,6.6729,6.6999,6.6999,6.6999,6.6999,6.6999,6.6999,6.6999,6.6999,6.6999,6.6999,6.6999,6.6999,6.6999,6.6999,6.6999,6.6999,6.6999,6.6999,6.6999,6.6999,6.6999,6.6999,6.6999,6.6999,6.6999,6.6999,6.6999,6.6999,6.6999,6.6999,6.6999,6.6999,6.6999,6.6999,6.6999,0.0,0.0,0.0,0.0,0.0,0.0,0.0,0.0,0.0,0.0,0.0,0.0,0.0,0.0,0.0,2.4377,2.4322,2.4129,2.3859,2.3558,2.3396,2.3396,2.3221,2.3622,2.4791,0.0,0.0,0.0,0.0,0.0,0.0,0.0,2.9208,2.9854,3.0909,0.0,0.0,0.0,0.0,3.3348,0.0,0.0,3.4432,0.0,0.0,0.0,0.0,0.0,0.0,0.0,0.0,0.0,0.0,0.0,0.0,0.0,0.0,0.0,3.5004,3.6789,3.8728,4.0236,4.193,4.4177,4.7658,4.9316,5.1095,5.448,5.6226,5.7483,5.856,6.0057,6.1463,6.2599,6.3288,6.3917,6.4545,6.5233,6.5652,6.5652,6.6251,6.667,6.667,6.6849,6.6999,6.6999,6.6999,0.0,6.6999,6.6999,6.6999,6.6999,6.6999,6.6999,6.6999,6.6999,6.6999,6.6999,6.6999,6.6999,6.6999,6.6999,6.6999,6.6999,6.6999,6.6999,6.6999,6.6999,6.6999,6.6999,6.6999,6.6999,6.6999,6.6999,6.6999,6.6999,0.0,0.0,0.0,0.0,0.0,0.0,0.0,0.0,0.0,0.0,0.0,0.0,0.0,0.0,0.0,2.3709,2.4386,2.4476,2.3644,2.386,2.4029,2.4029,2.3446,2.3672,2.4816,0.0,0.0,0.0,0.0,0.0,0.0,0.0,2.9208,0.0,3.0909,3.1406,3.1482,0.0,3.342,3.3809,0.0,3.3553,3.5392,0.0,0.0,0.0,3.7034,3.6884,0.0,3.643,0.0,0.0,0.0,0.0,0.0,0.0,0.0,0.0,0.0,0.0,0.0,4.0502,4.3052,4.5925,4.8575,4.9701,5.1141,5.4419,5.5149,5.5777,5.7666,5.859,5.9697,6.1702,6.2599,6.3257,6.3857,6.4516,6.4964,6.4964,6.5562,6.5981,6.5981,6.655,6.6939,6.6969,6.6969,6.6969,6.6999,6.6999,6.6999,6.6999,6.6999,6.6999,6.6999,6.6999,6.6999,6.6999,6.6999,6.6999,6.6999,6.6999,6.6999,6.6999,6.6999,6.6999,6.6999,6.6999,6.6999,6.6999,6.6999,6.6999,6.6999,6.6999,6.6999,6.6999,0.0,0.0,0.0,0.0,0.0,2.603,2.603,2.6691,0.0,0.0,0.0,0.0,0.0,0.0,0.0,0.0,2.6344,2.5945,2.5699,2.4994,2.4566,2.4566,2.4415,2.4666,2.536,0.0,0.0,0.0,0.0,0.0,0.0,0.0,0.0,0.0,3.0909,3.1406,3.1486,3.3018,0.0,0.0,3.4858,3.56,0.0,0.0,0.0,0.0,0.0,3.7688,3.7487,0.0,3.6884,3.6533,0.0,0.0,0.0,0.0,0.0,0.0,3.5132,0.0,0.0,0.0,0.0,0.0,4.7698,4.9359,5.0739,5.2638,5.4192,5.5359,5.5897,5.6915,5.8141,5.9668,6.0894,6.1882,6.254,6.3199,6.3767,6.4216,6.4845,6.5263,6.5263,6.5443,6.5772,0.0,6.6281,6.649,6.6969,6.6999,6.6999,6.6999,6.6999,6.6999,6.6999,6.6999,6.6999,6.6999,6.6999,6.6999,6.6999,6.6999,6.6999,6.6999,6.6999,6.6999,6.6999,6.6999,6.6999,6.6999,6.6999,6.6999,6.6999,6.6999,6.6999,6.6999,0.0,0.0,2.5268,2.5762,2.6381,2.6927,2.7135,2.7896,2.843,0.0,0.0,0.0,0.0,0.0,0.0,0.0,2.7871,2.7412,2.7185,2.613,2.5511,2.5511,2.5042,2.5042,2.5586,2.5385,0.0,0.0,0.0,0.0,0.0,0.0,0.0,0.0,0.0,0.0,0.0,0.0,0.0,0.0,3.5907,0.0,0.0,3.8391,3.8843,0.0,0.0,0.0,3.9295,3.8768,3.8115,0.0,0.0,0.0,0.0,0.0,0.0,0.0,0.0,0.0,0.0,0.0,0.0,0.0,0.0,4.9467,5.0562,5.1924,5.3114,5.4102,5.467,5.5628,5.6645,5.7723,5.877,5.9967,6.1463,6.2032,6.2391,6.275,6.3647,6.4216,6.4216,6.4665,6.5144,6.5532,6.5562,6.5892,6.655,6.6849,6.6999,6.6999,6.6999,6.6999,6.6999,6.6999,6.6999,6.6999,6.6999,6.6999,6.6999,6.6999,6.6999,6.6999,6.6999,6.6999,6.6999,6.6999,6.6999,6.6999,6.6999,6.6999,6.6999,6.6999,6.6999,6.6999,0.0,0.0,2.6113,2.7135,2.7412,2.7645,2.8222,2.8731,2.9088,0.0,0.0,0.0,0.0,0.0,0.0,0.0,0.0,2.8881,2.8423,2.7361,2.6776,2.6776,2.5686,2.5293,2.5762,2.5259,2.5485,0.0,0.0,0.0,0.0,0.0,0.0,0.0,3.116,3.1738,0.0,0.0,0.0,3.5734,3.6334,3.7538,0.0,0.0,4.0124,0.0,4.1152,4.1302,4.1227,4.075,3.9572,0.0,0.0,0.0,0.0,0.0,3.5054,0.0,0.0,0.0,0.0,0.0,0.0,0.0,0.0,4.9673,5.0458,5.1738,5.2037,5.2486,5.3743,5.4521,5.5204,5.5863,5.6492,5.7782,6.0388,6.0835,6.0924,6.0984,6.2091,6.2898,6.2898,6.3977,6.4695,6.4785,6.4904,6.5263,6.5862,6.652,6.6879,6.6879,6.6939,6.6999,6.6999,6.6999,6.6999,6.6999,6.6999,6.6999,6.6999,6.6999,6.6999,6.6999,6.6999,6.6999,6.6999,6.6999,6.6999,6.6999,6.6999,6.6999,6.6999,6.6999,6.6999,6.6999,2.6223,2.6658,2.7035,2.7261,2.8021,2.8781,2.9377,2.991,3.0412,0.0,0.0,0.0,0.0,0.0,0.0,0.0,0.0,0.0,3.0111,2.9057,2.843,2.843,2.7394,2.6859,2.6984,2.6432,2.6273,2.6499,0.0,0.0,0.0,0.0,0.0,0.0,0.0,0.0,0.0,0.0,0.0,3.691,3.7462,0.0,3.9597,4.0149,4.0675,4.1177,4.1277,4.1302,4.1275,4.1202,4.065,3.9923,0.0,0.0,0.0,0.0,0.0,0.0,0.0,0.0,0.0,0.0,0.0,0.0,0.0,4.9007,4.9696,5.0428,5.1026,5.1624,5.2456,5.3144,5.3827,5.4491,5.5149,5.6286,5.8384,5.9159,5.9697,6.0206,6.1014,6.1493,6.1493,6.2211,6.2899,6.3408,6.4425,6.5054,6.5174,6.5832,6.6191,6.6191,6.67,6.6999,6.6999,6.6999,6.6999,6.6999,6.6999,6.6999,6.6999,6.6999,6.6999,6.6999,6.6999,6.6999,6.6999,6.6999,6.6999,6.6999,6.6999,6.6999,6.6999,6.6999,6.6999,6.6999,2.6801,2.711,2.7462,2.7996,2.8781,2.9553,3.0105,3.0884,0.0,0.0,0.0,0.0,0.0,0.0,0.0,0.0,0.0,0.0,3.1009,3.0211,2.976,2.976,2.8699,2.8097,2.8097,2.757,2.7311,2.7311,0.0,0.0,0.0,0.0,0.0,0.0,0.0,0.0,0.0,0.0,3.6309,3.7663,3.8517,0.0,4.0199,4.1028,4.1505,4.1781,4.2057,4.2158,4.2158,4.2158,4.1781,0.0,0.0,4.0299,3.9898,0.0,3.8442,3.8316,0.0,0.0,0.0,4.1718,0.0,0.0,0.0,0.0,4.8977,4.9613,5.0249,5.0817,5.1146,5.2037,5.2815,5.3144,5.3773,5.4521,5.5508,5.7064,5.8231,5.856,5.9488,0.0,6.0116,6.1014,6.1882,6.254,6.3498,6.4186,6.4515,6.5443,6.6011,6.6011,6.664,6.6999,6.6999,6.6999,6.6999,6.6999,6.6999,6.6999,6.6999,6.6999,6.6999,6.6999,6.6999,6.6999,6.6999,6.6999,6.6999,6.6999,6.6999,6.6999,6.6999,6.6999,6.6999,6.6999,2.7361,2.7537,2.7921,2.8907,2.9559,3.0181,3.0814,3.1642,0.0,0.0,0.0,0.0,0.0,0.0,0.0,0.0,0.0,0.0,0.0,3.1436,3.1085,3.1085,2.9885,2.9183,2.9082,2.853,2.8204,2.8097,0.0,0.0,0.0,0.0,0.0,0.0,0.0,0.0,0.0,0.0,0.0,3.8442,0.0,4.0425,4.0927,4.1833,4.2338,4.2562,4.3115,4.3288,4.3288,4.3288,4.3039,4.2537,4.1856,4.1403,0.0,0.0,0.0,0.0,0.0,0.0,0.0,0.0,0.0,4.55,0.0,0.0,0.0,0.0,0.0,0.0,0.0,0.0,0.0,0.0,0.0,0.0,0.0,5.4725,0.0,5.6526,0.0,0.0,5.853,5.9877,6.1044,6.1852,6.251,6.3138,6.3617,6.4904,6.5682,6.5802,6.646,6.6879,6.6999,6.6999,6.6999,6.6999,6.6999,6.6999,6.6999,6.6999,6.6999,6.6999,6.6999,6.6999,6.6999,6.6999,6.6999,6.6999,6.6999,6.6999,6.6999,6.6999,6.6999,6.6999,2.7996,2.838,2.8932,2.9578,3.0156,3.0839,3.1842,3.2118,0.0,0.0,0.0,0.0,0.0,0.0,0.0,0.0,0.0,0.0,3.4327,0.0,3.2813,3.2813,3.126,3.0161,2.9704,2.9107,2.858,2.8097,0.0,0.0,0.0,0.0,0.0,0.0,3.2717,0.0,0.0,0.0,3.8417,0.0,4.1255,4.1934,0.0,4.2162,4.2788,4.3689,4.4242,4.4414,4.4414,0.0,4.4364,4.4166,0.0,4.3087,4.3112,0.0,0.0,0.0,0.0,0.0,0.0,0.0,4.5654,0.0,0.0,0.0,0.0,4.8289,0.0,0.0,0.0,0.0,0.0,0.0,0.0,0.0,4.9965,5.2001,5.3862,5.4461,0.0,0.0,0.0,5.8231,5.9847,6.1134,6.1822,6.2241,6.2301,6.3528,6.4515,6.5084,6.5742,6.64,6.6999,6.6999,6.6999,6.6999,6.6999,6.6999,6.6999,6.6999,6.6999,6.6999,6.6999,6.6999,6.6999,6.6999,6.6999,6.6999,6.6999,6.6999,6.6999,6.6999,6.6999,6.6999,2.9202,2.9277,2.9704,3.0577,3.1185,3.1813,3.2591,3.3498,0.0,0.0,0.0,0.0,0.0,0.0,0.0,0.0,0.0,3.5703,0.0,0.0,0.0,3.4048,3.2742,3.1788,3.121,3.0658,3.0231,3.0005,3.0231,0.0,0.0,0.0,0.0,0.0,3.3144,0.0,3.5608,0.0,3.8843,0.0,0.0,0.0,0.0,4.314,4.3589,4.4288,4.4514,4.4589,4.4589,0.0,4.4589,0.0,0.0,0.0,0.0,0.0,0.0,0.0,0.0,0.0,0.0,0.0,0.0,0.0,4.8201,0.0,4.7967,0.0,0.0,0.0,0.0,0.0,0.0,0.0,4.9636,0.0,0.0,0.0,5.1612,0.0,0.0,0.0,0.0,0.0,0.0,0.0,6.0206,6.0864,6.2032,6.2959,6.3767,6.4425,6.5473,6.6131,6.643,6.6789,6.6999,6.6999,6.6999,6.6999,6.6999,6.6999,6.6999,6.6999,6.6999,6.6999,6.6999,6.6999,6.6999,6.6999,6.6999,6.6999,6.6999,6.6999,6.6999,6.6999,3.0583,0.0,3.0532,3.1461,3.1938,3.2516,3.3395,3.4801,3.5857,0.0,0.0,0.0,3.7889,3.7889,0.0,0.0,3.7537,3.7235,0.0,0.0,3.5882,3.5203,3.4248,0.0,3.2466,3.2064,3.1687,3.1406,3.1406,3.1482,0.0,0.0,0.0,0.0,0.0,3.5029,3.6309,0.0,0.0,4.1053,4.2185,4.3391,4.4493,4.4493,4.4744,4.5091,4.5392,4.5493,4.5493,4.5493,4.5493,0.0,4.5141,0.0,0.0,0.0,0.0,0.0,4.4781,0.0,0.0,0.0,0.0,0.0,0.0,0.0,0.0,0.0,0.0,0.0,0.0,0.0,0.0,0.0,0.0,0.0,0.0,0.0,0.0,0.0,0.0,0.0,0.0,0.0,0.0,0.0,0.0,5.9727,6.1194,6.2241,6.3109,6.3707,6.5054,6.5832,6.6011,6.667,6.6999,6.6999,6.6999,6.6999,6.6999,6.6999,6.6999,6.6999,6.6999,6.6999,6.6999,6.6999,6.6999,6.6999,6.6999,6.6999,6.6999,6.6999,6.6999,6.6999,3.2039,3.1712,3.1512,3.2089,3.2194,3.2746,3.4402,3.5629,3.6733,0.0,0.0,0.0,0.0,0.0,0.0,0.0,0.0,3.9371,3.8843,0.0,3.7437,3.6381,3.5732,3.4678,0.0,3.3065,3.2512,3.1406,3.1406,3.1662,0.0,0.0,0.0,0.0,0.0,3.6384,3.804,3.9722,4.1078,4.2235,4.3313,4.4744,4.6225,0.0,4.625,4.6401,4.7431,0.0,0.0,4.7807,4.7807,0.0,0.0,0.0,0.0,0.0,0.0,0.0,0.0,0.0,0.0,4.9938,0.0,0.0,0.0,0.0,4.9067,0.0,0.0,0.0,0.0,0.0,0.0,0.0,0.0,0.0,0.0,0.0,0.0,0.0,0.0,0.0,0.0,0.0,0.0,0.0,0.0,0.0,5.9189,6.1044,6.2421,6.3108,6.4366,6.5323,6.6011,6.667,6.6999,6.6999,6.6999,6.6999,6.6999,6.6999,6.6999,6.6999,6.6999,6.6999,6.6999,6.6999,6.6999,6.6999,6.6999,6.6999,6.6999,6.6999,6.6999,6.6999,0.0,0.0,3.2587,3.2763,3.3093,3.3897,3.5577,3.7411,3.8693,0.0,0.0,0.0,0.0,4.075,4.075,0.0,0.0,4.0675,4.0499,3.9947,0.0,0.0,0.0,3.6384,0.0,3.4703,3.4151,3.3043,3.3043,3.2989,0.0,0.0,0.0,0.0,0.0,3.6434,0.0,0.0,0.0,0.0,0.0,4.5698,4.6772,0.0,0.0,4.7405,4.7782,4.7908,0.0,4.7908,4.7908,4.7832,4.7481,4.738,4.7154,4.605,4.7461,0.0,0.0,0.0,5.0631,5.1345,0.0,0.0,0.0,0.0,0.0,0.0,0.0,0.0,0.0,0.0,0.0,0.0,0.0,0.0,0.0,0.0,0.0,0.0,0.0,0.0,0.0,0.0,0.0,0.0,0.0,0.0,0.0,6.0595,6.1762,6.2421,6.3677,6.4665,6.5323,6.6011,6.655,6.6999,6.6999,6.6999,6.6999,6.6999,6.6999,6.6999,6.6999,6.6999,6.6999,6.6999,6.6999,6.6999,6.6999,6.6999,6.6999,6.6999,6.6999,6.6999,3.314,3.3266,3.337,3.337,3.417,3.5276,3.6758,3.8542,0.0,0.0,4.1178,0.0,4.1879,0.0,4.1904,0.0,4.1904,4.1904,4.1904,4.1404,0.0,3.9798,3.9195,0.0,0.0,0.0,3.5556,3.4452,3.4299,3.3997,3.3671,0.0,0.0,0.0,0.0,3.7137,3.8969,0.0,4.1555,0.0,0.0,4.6677,0.0,0.0,4.8033,4.8812,0.0,4.8937,4.9113,4.9113,4.9508,4.9942,4.947,4.9775,5.0037,4.8916,5.027,5.193,5.0919,5.1582,0.0,5.2835,5.2088,0.0,5.1816,0.0,0.0,0.0,0.0,0.0,0.0,0.0,0.0,0.0,0.0,0.0,0.0,0.0,0.0,0.0,0.0,0.0,0.0,0.0,0.0,0.0,0.0,0.0,0.0,0.0,6.0805,6.1732,6.2989,6.4096,6.4994,6.5652,6.634,6.6999,6.6999,6.6999,6.6999,6.6999,6.6999,6.6999,6.6999,6.6999,6.6999,6.6999,6.6999,6.6999,6.6999,6.6999,6.6999,6.6999,6.6999,6.6999,3.3291,3.3643,3.4048,3.4098,3.5426,3.6833,0.0,0.0,4.0401,0.0,4.2263,4.2462,4.2989,4.3065,4.309,4.309,4.309,4.309,4.309,4.2562,0.0,0.0,4.0876,3.9797,3.8165,0.0,0.0,0.0,3.5054,3.4778,3.4753,0.0,0.0,0.0,3.7009,0.0,4.0524,4.1127,4.2356,4.4066,4.5698,4.7682,4.964,4.9737,5.0122,5.065,5.06,5.0993,5.1572,5.1572,5.262,5.3715,5.2567,5.3302,5.4368,5.3177,5.3867,5.4861,5.4198,5.4626,5.5119,5.4461,5.3773,0.0,0.0,0.0,5.2067,0.0,0.0,0.0,0.0,0.0,0.0,0.0,0.0,0.0,0.0,0.0,0.0,0.0,0.0,0.0,0.0,0.0,0.0,0.0,0.0,0.0,0.0,0.0,5.9727,6.1074,6.2361,6.3677,6.4994,6.5622,6.6311,6.6999,6.6999,6.6999,6.6999,6.6999,6.6999,6.6999,6.6999,6.6999,6.6999,6.6999,6.6999,6.6999,6.6999,6.6999,6.6999,6.6999,6.6999,6.6999,3.4324,3.5077,3.6004,0.0,3.7287,3.7965,0.0,0.0,0.0,0.0,4.2889,4.3438,4.3564,4.3966,4.4192,4.4192,4.4192,0.0,0.0,0.0,0.0,4.2585,4.206,4.118,3.9898,3.932,0.0,3.7363,3.6409,3.5732,3.5282,3.5282,0.0,0.0,0.0,0.0,4.0575,4.1982,4.3765,4.5748,4.6547,4.8203,0.0,0.0,5.2937,5.4026,5.3198,5.3827,5.5037,5.5037,5.529,5.5607,5.5306,5.5502,5.5698,5.4982,5.5477,5.6102,5.5552,5.6003,5.6466,5.5863,5.5204,5.4551,0.0,0.0,0.0,0.0,0.0,0.0,0.0,0.0,0.0,0.0,0.0,0.0,0.0,0.0,0.0,0.0,0.0,0.0,0.0,0.0,0.0,0.0,0.0,0.0,0.0,0.0,0.0,6.1074,6.1912,6.3199,6.4964,6.5174,6.5862,6.6999,6.6999,6.6999,6.6999,6.6999,6.6999,6.6999,6.6999,6.6999,6.6999,6.6999,6.6999,6.6999,6.6999,6.6999,6.6999,6.6999,6.6999,6.6999,3.5531,0.0,0.0,3.8868,0.0,0.0,4.0299,4.1605,0.0,4.2864,4.3639,0.0,4.4518,4.4819,4.5095,4.5317,4.5317,0.0,4.5317,0.0,0.0,4.412,4.3341,4.2487,4.1605,4.0827,0.0,3.9094,0.0,0.0,3.701,3.701,3.7312,0.0,0.0,4.0199,4.1354,4.3291,4.507,4.6813,4.8564,0.0,0.0,5.4389,5.641,5.8022,5.7704,5.7531,5.7467,5.7467,5.7992,5.852,5.8238,5.8467,5.8719,5.8116,5.8262,5.8566,5.827,5.829,5.8261,5.7629,5.6944,5.6286,5.5628,5.473,5.4067,0.0,0.0,0.0,0.0,0.0,0.0,0.0,0.0,0.0,0.0,0.0,0.0,0.0,0.0,0.0,0.0,0.0,0.0,0.0,0.0,0.0,0.0,0.0,0.0,6.1016,6.1463,6.275,6.4964,6.4994,6.5652,6.6999,6.6999,6.6999,6.6999,6.6999,6.6999,6.6999,6.6999,6.6999,6.6999,6.6999,6.6999,6.6999,6.6999,6.6999,6.6999,6.6999,6.6999,6.6999,0.0,0.0,0.0,0.0,0.0,0.0,0.0,4.2559,0.0,4.394,0.0,4.5041,4.5648,4.5773,4.5999,4.6476,0.0,4.6527,4.6527,4.5999,4.5698,4.5698,4.4618,4.379,4.3341,4.213,4.1277,0.0,0.0,0.0,3.912,3.912,3.9371,0.0,0.0,0.0,0.0,4.5067,4.6631,4.8049,5.1167,5.3223,5.4661,5.7406,5.9773,6.1722,6.2547,6.1505,5.9794,5.9794,6.0739,6.1854,6.1274,6.1733,6.2361,6.1764,6.1465,6.1373,6.1373,6.0805,6.0086,5.9518,5.886,5.8201,5.7513,5.6436,5.5538,5.5448,5.4486,5.3588,0.0,0.0,0.0,0.0,0.0,0.0,0.0,0.0,0.0,0.0,0.0,0.0,0.0,0.0,0.0,0.0,0.0,0.0,0.0,0.0,0.0,6.1014,6.1076,6.2362,6.4964,0.0,6.5652,6.6999,6.6999,6.6999,6.6999,6.6999,6.6999,6.6999,6.6999,6.6999,6.6999,6.6999,6.6999,6.6999,6.6999,6.6999,6.6999,6.6999,6.6999,6.6999,0.0,0.0,0.0,0.0,0.0,4.3162,4.4543,4.4141,4.4016,4.507,4.5673,4.6225,4.6747,4.723,4.7531,4.7631,4.7631,0.0,0.0,0.0,0.0,4.6823,4.5773,4.5146,4.5045,4.3489,4.2663,0.0,0.0,0.0,4.0224,4.0224,0.0,0.0,0.0,0.0,4.6656,4.7689,0.0,5.1413,5.3296,5.5383,5.7579,5.951,6.1106,6.2514,6.4004,6.4306,6.3947,6.3947,6.4128,6.4367,6.4249,6.4338,6.4456,6.4336,6.3588,6.2748,6.2748,6.1852,6.0894,6.0777,6.0266,5.9578,5.889,5.8171,5.7453,5.6885,5.6192,5.5504,5.4965,0.0,0.0,0.0,0.0,0.0,0.0,0.0,0.0,0.0,0.0,0.0,0.0,0.0,0.0,0.0,0.0,0.0,0.0,0.0,0.0,0.0,6.1076,0.0,0.0,0.0,6.5652,6.6999,6.6999,6.6999,6.6999,6.6999,6.6999,6.6999,6.6999,6.6999,6.6999,6.6999,6.6999,6.6999,6.6999,6.6999,6.6999,6.6999,6.6999,6.6999,0.0,0.0,0.0,0.0,0.0,0.0,0.0,4.61,4.6024,4.6301,4.7079,4.7807,4.836,4.8887,4.9339,4.964,4.9665,4.954,4.9238,4.8987,4.8554,4.8008,4.7179,0.0,4.6351,4.4995,4.4321,4.4321,0.0,0.0,0.0,0.0,0.0,4.2551,0.0,4.7704,0.0,0.0,0.0,5.3601,5.6525,5.8396,5.974,6.2425,6.3822,6.4472,6.5619,6.6041,6.5981,6.5622,6.5503,6.5503,6.5503,6.5263,6.4994,6.4994,6.4575,6.4096,6.4096,6.3617,6.296,6.2301,6.1882,6.1401,6.0386,5.9638,5.8949,5.8291,5.7633,5.6885,5.5923,5.4905,0.0,0.0,0.0,0.0,0.0,0.0,0.0,0.0,0.0,0.0,0.0,0.0,0.0,0.0,0.0,0.0,0.0,0.0,0.0,0.0,0.0,0.0,0.0,0.0,0.0,6.6999,6.6999,6.6999,6.6999,6.6999,6.6999,6.6999,6.6999,6.6999,6.6999,6.6999,6.6999,6.6999,6.6999,6.6999,6.6999,6.6999,6.6999,6.6999,0.0,4.5351,0.0,0.0,4.6997,0.0,4.8506,4.9148,4.9055,4.78,4.8831,4.9761,4.9956,5.0677,5.1172,5.1314,5.1306,5.1096,5.0619,5.0594,5.0218,4.9371,4.8761,4.8184,4.7626,4.6577,4.5949,0.0,0.0,0.0,0.0,0.0,0.0,0.0,0.0,0.0,0.0,0.0,5.4926,5.6136,5.9761,6.1461,6.2135,6.4932,6.6101,6.6281,6.6819,6.6999,6.6909,6.64,6.6221,6.6221,6.6221,6.5862,6.5413,6.5413,6.5323,6.5203,6.5203,6.5114,6.4755,6.3737,6.3498,6.3139,6.1822,6.1104,6.0505,5.9697,5.889,5.8022,5.7,5.6137,0.0,0.0,0.0,0.0,0.0,0.0,0.0,0.0,0.0,0.0,0.0,0.0,0.0,0.0,0.0,0.0,0.0,0.0,0.0,0.0,0.0,6.2272,6.4755,0.0,6.5652,6.6999,6.6999,6.6999,6.6999,6.6999,6.6999,6.6999,6.6999,6.6999,6.6999,6.6999,6.6999,6.6999,6.6999,6.6999,6.6999,6.6999,6.6999,6.6999,0.0,0.0,0.0,0.0,0.0,0.0,5.3651,5.4369,5.35,4.9862,5.1258,5.2236,5.1245,5.2524,5.2874,5.1439,5.1306,5.128,5.1197,5.1197,5.1147,5.1079,5.0494,4.9916,4.9364,4.8259,4.7456,0.0,0.0,4.6035,0.0,0.0,0.0,0.0,0.0,0.0,0.0,5.6219,5.7945,6.0282,6.2145,6.395,6.5561,6.5861,6.637,6.6909,6.6969,6.6999,6.6969,6.6909,6.6909,6.6909,6.6909,6.6849,6.6819,6.6819,6.637,6.5922,6.5922,6.5443,6.4964,6.4845,6.4815,6.4515,6.3199,6.2868,6.2479,6.1194,5.9907,5.8979,5.886,5.7782,5.6705,0.0,0.0,0.0,0.0,0.0,0.0,0.0,0.0,0.0,0.0,0.0,0.0,0.0,0.0,0.0,0.0,0.0,0.0,6.0114,0.0,6.2061,6.4066,6.4695,6.5652,6.6999,6.6999,6.6999,6.6999,6.6999,6.6999,6.6999,6.6999,6.6999,6.6999,6.6999,6.6999,6.6999,6.6999,6.6999,6.6999,6.6999,6.6999,6.6999,0.0,0.0,0.0,0.0,0.0,0.0,0.0,5.667,5.6647,5.5456,5.5758,5.5885,5.5451,5.6677,5.7272,5.6581,5.6515,5.6515,5.6515,5.5482,5.5061,5.5376,5.3123,5.2419,5.3615,5.1852,5.1354,0.0,0.0,0.0,0.0,5.078,0.0,0.0,0.0,5.6759,5.8431,5.9961,6.1229,6.2293,6.4099,6.5323,6.6041,6.646,6.6759,6.6999,6.6999,6.6999,6.6999,6.6999,6.6999,6.6999,6.6999,6.6999,6.6999,6.6999,6.6819,6.661,6.661,6.64,6.6101,6.5682,6.5592,6.5353,6.4455,6.4246,6.3887,6.257,6.1224,6.0296,6.0296,5.9219,5.8231,0.0,0.0,0.0,0.0,0.0,0.0,0.0,0.0,0.0,0.0,0.0,0.0,0.0,0.0,0.0,0.0,0.0,0.0,6.0024,0.0,6.2212,6.4575,6.4874,6.5652,6.6999,6.6999,6.6999,6.6999,6.6999,6.6999,6.6999,6.6999,6.6999,6.6999,6.6999,6.6999,6.6999,6.6999,6.6999,6.6999,6.6999,6.6999,6.6999,5.5851,0.0,5.7018,0.0,5.7756,5.8297,5.9148,5.974,6.0308,6.0765,6.0592,5.9962,5.8788,5.9886,6.0546,6.0028,5.9995,5.9995,5.9995,5.8781,5.8268,5.8625,5.6312,0.0,5.7079,5.5383,5.5003,5.601,5.4871,0.0,0.0,5.3561,5.525,0.0,5.9189,6.0176,6.1102,6.2689,6.3588,6.4066,6.5443,6.6131,6.634,6.6819,6.6999,6.6999,6.6999,6.6999,6.6999,6.6999,6.6999,6.6999,6.6999,6.6999,6.6999,6.6999,6.6999,6.6999,6.6999,6.6999,6.6879,6.64,6.6311,6.6131,6.5443,6.5293,6.4964,6.3887,6.26,6.1702,6.1702,6.0595,5.9697,5.9697,0.0,0.0,0.0,0.0,0.0,0.0,0.0,0.0,0.0,0.0,0.0,0.0,0.0,0.0,0.0,0.0,0.0,0.0,0.0,0.0,0.0,6.4904,6.5652,6.6999,6.6999,6.6999,6.6999,6.6999,6.6999,6.6999,6.6999,6.6999,6.6999,6.6999,6.6999,6.6999,6.6999,6.6999,6.6999,6.6999,6.6999,6.6999,6.0898,6.1556,6.2005,6.2005,6.3051,6.3888,6.3918,6.4486,6.4905,6.4934,6.5502,6.4406,6.0408,6.1472,6.1785,6.0125,5.9995,5.9995,5.9995,5.9995,5.9963,0.0,0.0,5.9631,5.909,5.8384,5.7775,5.7286,0.0,0.0,5.3832,5.4757,5.6915,6.0086,6.0775,6.1822,6.3108,6.3707,6.4755,6.5981,6.6011,6.64,6.6969,6.6999,6.6999,6.6999,6.6999,6.6999,6.6999,6.6999,6.6999,6.6999,6.6999,6.6999,6.6999,6.6999,6.6999,6.6999,6.6999,6.6999,6.6999,6.6969,6.6969,6.6819,6.6131,6.6011,6.5802,6.5114,6.3947,6.3078,6.3078,6.1972,6.1104,6.1104,0.0,0.0,0.0,0.0,0.0,0.0,0.0,5.6402,5.6974,0.0,0.0,0.0,0.0,0.0,0.0,0.0,0.0,6.0057,6.1373,0.0,6.4006,6.4665,6.5652,6.6999,6.6999,6.6999,6.6999,6.6999,6.6999,6.6999,6.6999,6.6999,6.6999,6.6999,6.6999,6.6999,6.6999,6.6999,6.6999,6.6999,6.6999,6.6999,6.3049,6.3617,6.4067,6.4067,6.4396,6.4815,6.5293,6.5562,6.5862,6.6311,6.655,6.6183,6.4898,6.5269,6.5362,0.0,6.4744,6.4744,0.0,6.3642,6.3281,6.4067,6.1804,6.1333,6.3074,6.1798,6.1566,6.255,0.0,0.0,0.0,6.0878,6.1762,6.278,6.3439,6.3977,6.4455,6.5084,6.5622,6.6041,6.649,6.6819,6.6999,6.6999,6.6999,6.6999,6.6999,6.6999,6.6999,6.6999,6.6999,6.6999,6.6999,6.6999,6.6999,6.6999,6.6999,6.6999,6.6999,6.6999,6.6999,6.6999,6.6999,6.6939,6.6729,6.634,6.5951,6.5742,6.5024,6.4425,6.4425,6.3348,6.245,6.245,6.1343,0.0,0.0,0.0,0.0,0.0,0.0,5.7393,0.0,5.6735,0.0,0.0,0.0,0.0,0.0,0.0,0.0,0.0,6.1403,0.0,6.4665,6.4874,6.5652,6.6999,6.6999,6.6999,6.6999,6.6999,6.6999,6.6999,6.6999,6.6999,6.6999,6.6999,6.6999,6.6999,6.6999,6.6999,6.6999,6.6999,6.6999,6.6999,6.4395,6.4934,6.5383,6.5383,6.5562,6.5892,6.6311,6.637,6.652,6.6939,6.6999,6.6999,6.6999,6.6999,0.0,6.6999,6.6999,6.6999,6.6999,6.595,6.5619,6.634,6.4304,6.3944,6.5712,6.4474,0.0,6.5383,6.4695,6.4186,6.3827,6.4216,6.4395,6.4425,6.5054,6.5383,6.5413,6.6101,6.637,6.64,6.6819,6.6999,6.6999,6.6999,6.6999,6.6999,6.6999,6.6999,6.6999,6.6999,6.6999,6.6999,6.6999,6.6999,6.6999,6.6999,6.6999,6.6999,6.6999,6.6999,6.6999,6.6999,6.6999,6.6999,6.6999,6.667,6.637,6.637,6.5862,6.5383,6.5383,6.4515,6.3797,6.3797,6.272,6.1852,6.1852,0.0,0.0,0.0,0.0,0.0,0.0,5.859,5.859,0.0,0.0,0.0,0.0,0.0,0.0,6.0805,6.2121,0.0,6.4994,6.5233,6.5922,6.6999,6.6999,6.6999,6.6999,6.6999,6.6999,6.6999,6.6999,6.6999,6.6999,6.6999,6.6999,6.6999,6.6999,6.6999,6.6999,6.6999,6.6999,6.6999,6.5144,6.5622,6.6071,0.0,6.658,0.0,6.6999,6.6999,6.6999,6.6999,6.6999,6.6999,6.6999,6.6999,6.6999,6.6999,0.0,0.0,0.0,6.6999,6.6999,6.6999,6.6999,6.6999,6.6999,6.64,6.6071,6.6071,6.5443,6.5144,6.5144,6.5144,6.5144,6.5174,6.5802,6.6071,6.6131,6.6729,6.6999,6.6999,6.6999,6.6999,6.6999,6.6999,6.6999,6.6999,6.6999,6.6999,6.6999,6.6999,6.6999,6.6999,6.6999,6.6999,6.6999,6.6999,6.6999,6.6999,6.6999,6.6999,6.6999,6.6999,6.6999,6.6999,6.6999,6.6999,6.6999,6.6999,6.649,6.6071,6.6071,6.5503,6.5084,6.5084,6.4036,6.3227,6.3227,6.2121,6.1313,0.0,0.0,0.0,0.0,6.1076,6.1076,0.0,0.0,0.0,0.0,0.0,6.0864,6.2121,6.3348,6.4366,6.5054,6.5712,6.634,6.6999,6.6999,6.6999,6.6999,6.6999,6.6999,6.6999,6.6999,6.6999,6.6999,6.6999,6.6999,6.6999,6.6999,6.6999,6.6999,6.6999,6.6999,6.6999,0.0,0.0,6.6759,6.6759,6.6879,6.6999,6.6999,6.6999,6.6999,6.6999,6.6999,6.6999,6.6999,6.6999,6.6999,6.6999,6.6999,6.6999,6.6999,6.6999,6.6999,6.6999,6.6999,6.6999,6.6999,6.6849,6.6759,6.6759,6.661,6.652,6.652,6.652,6.652,6.652,6.67,6.6759,6.6759,6.6939,6.6999,6.6999,6.6999,6.6999,6.6999,6.6999,6.6999,6.6999,6.6999,6.6999,6.6999,6.6999,6.6999,6.6999,6.6999,6.6999,6.6999,6.6999,6.6999,6.6999,6.6999,6.6999,6.6999,6.6999,6.6999,6.6999,6.6999,6.6999,6.6999,6.6999,6.6879,6.6759,6.6759,6.6221,6.5742,6.5742,6.5054,6.4545,6.4545,6.3857,6.3139,0.0,6.2181,6.1672,6.1136,6.1076,6.1076,0.0,0.0,0.0,0.0,6.221,6.2539,6.2868,6.3588,6.4575,6.5772,6.5922,6.634,6.6999,6.6999,6.6999,6.6999,6.6999,6.6999,6.6999,6.6999,6.6999,6.6999,6.6999,6.6999,6.6999,6.6999,6.6999,6.6999,6.6999,6.6999,6.6999,6.6999,6.6999,6.6999,6.6999,6.6999,6.6999,6.6999,6.6999,6.7089,6.7419,6.7479,6.7567,6.7867,6.7897,6.7897,6.7897,6.7358,6.6999,6.6999,6.6999,6.6999,6.6999,6.6999,6.6999,6.6999,6.6999,6.6999,6.6999,6.6999,6.6999,6.6999,6.6999,6.6999,6.6999,6.6999,6.6999,6.6999,6.6999,6.6999,6.6999,6.6999,6.7178,6.7479,6.7479,6.7627,6.7897,6.7897,6.7897,6.7867,6.7537,6.7479,6.7419,6.7089,6.6999,6.6999,6.6999,6.6999,6.6999,6.6999,6.6999,6.6999,6.6999,6.6999,6.6999,6.6999,6.6999,6.6999,6.6999,6.6999,6.6999,6.6999,6.67,6.646,6.646,6.5861,6.5443,6.5443,6.4904,6.4336,6.4006,6.3647,6.3259,6.29,6.263,6.257,6.2841,6.26,0.0,6.3408,6.3767,6.3827,6.3527,6.4425,6.5263,6.6011,6.6311,6.664,6.6999,6.6999,6.6999,6.6999,6.6999,6.6999,6.6999,6.6999,6.6999,6.6999,6.6999,6.6999,6.6999,6.6999,6.6999,6.6999,6.6999,6.6999,6.6999,6.6999,6.6999,6.7029,6.7119,6.7148,6.7178,6.7268,6.7298,6.7508,6.8077,6.8167,6.8377,6.8944,6.9004,6.9004,6.9004,6.7956,6.7298,6.7298,6.7298,6.7298,6.7298,6.7298,6.7238,6.7148,6.7029,6.6999,6.6999,6.6999,6.6999,6.6999,6.6999,6.7029,6.7148,6.7148,6.7208,6.7298,6.7298,6.7298,6.7298,6.7298,6.7627,6.8167,6.8167,6.8495,6.9004,6.9004,6.9004,6.8914,6.8347,6.8167,6.8047,6.7389,6.7148,6.7119,6.7029,6.6999,6.6999,6.6999,6.6999,6.6999,6.6999,6.6999,6.6999,6.6999,6.6999,6.6999,6.6999,6.6999,6.6999,6.6999,6.6999,6.6999,6.6999,6.652,6.6161,6.6161,6.5562,6.5144,6.5144,6.5054,6.4994,6.4994,6.4515,6.4395,6.4964,6.4456,6.4425,6.4964,6.5084,6.4874,6.4306,6.5413,6.6071,6.6161,6.67,6.6999,6.6999,6.6999,6.6999,6.6999,6.6999,6.6999,6.6999,6.6999,6.6999,6.6999,6.6999,6.6999,6.6999,6.6999,6.6999,6.6999,6.6999,6.6999,6.6999,6.6999,6.6999,6.7178,6.7748,6.7838,6.8047,6.8585,6.8704,6.8734,6.8824,6.8824,6.8884,6.9004,6.9004,6.9004,6.9004,6.8824,6.8704,6.8704,6.8704,6.8704,6.8704,6.8704,6.8405,6.7868,6.7299,6.6999,6.6999,6.6999,6.6999,6.6999,6.6999,6.7329,6.7838,6.7838,6.8167,6.8704,6.8704,6.8704,6.8704,6.8704,6.8764,6.8824,6.8824,6.8914,6.9004,6.9004,6.9004,6.8974,6.8884,6.8824,6.8734,6.8077,6.7838,6.7748,6.7179,6.6999,6.6999,6.6999,6.6999,6.6999,6.6999,6.6999,6.6999,6.6999,6.6999,6.6999,6.6999,6.6999,6.6999,6.6999,6.6999,6.6999,6.6999,6.6909,6.6849,6.6849,6.6281,6.5832,6.5832,6.5323,6.4994,6.4994,6.4904,6.4874,6.4994,6.4904,6.4874,6.4994,6.5532,6.5802,6.5712,6.5892,6.6281,6.6819,6.6939,6.6999,6.6999,6.6999,6.6999,6.6999,6.6999,6.6999,6.6999,6.6999,6.6999,6.6999,6.6999,6.6999,6.6999,6.6999,6.6999,6.6999,6.6999,6.6999,6.6999,6.8076,6.8076,6.8166,6.8465,6.8556,6.8645,6.8944,6.9004,6.9123,6.9482,6.9542,6.9662,6.9991,7.0021,7.0021,7.0021,7.0021,7.0021,7.0021,6.9393,6.9004,6.9004,6.9004,6.8854,6.8525,6.8226,6.8076,6.8076,6.8076,6.8076,6.8076,6.8076,6.8226,6.8556,6.8556,6.8704,6.9004,6.9004,6.9004,6.9004,6.9004,6.9213,6.9542,6.9542,6.9722,7.0021,7.0021,7.0021,6.9961,6.9632,6.9542,6.9423,6.8734,6.8556,6.8437,6.7748,6.7268,6.6999,6.6999,6.6999,6.6999,6.6999,6.6999,6.6999,6.6999,6.6999,6.6999,6.6999,6.6999,6.6999,6.6999,6.6999,6.6999,6.6999,6.6999,6.6999,6.6999,6.6729,6.655,6.655,6.6281,6.6071,6.6071,6.5772,6.5712,6.6071,6.5742,6.5682,6.6071,6.637,6.655,6.655,6.655,6.67,6.6999,6.6999,6.6999,6.6999,6.6999,6.6999,6.6999,6.6999,6.6999,6.6999,6.6999,6.6999,6.6999,6.6999,6.6999,6.6999,6.6999,6.6999,6.6999,6.6999,6.6999,6.6999,6.9004,6.9004,6.9064,6.9213,6.9243,6.9273,6.9423,6.9453,6.9632,7.0141,7.0201,7.038,7.0859,7.0889,7.0889,7.0889,7.0889,7.0889,7.0889,6.9991,6.9453,6.9453,6.9303,6.9243,6.9243,6.9064,6.9004,6.9004,6.9004,6.9004,6.9004,6.9004,6.9093,6.9243,6.9243,6.9303,6.9453,6.9453,6.9453,6.9453,6.9453,6.9752,7.0201,7.0201,7.05,7.0889,7.0889,7.0889,7.0829,7.035,7.0201,7.0081,6.9423,6.9243,6.9093,6.8437,6.7778,6.7178,6.7029,6.6999,6.6999,6.6999,6.6999,6.6999,6.6999,6.6999,6.6999,6.6999,6.6999,6.6999,6.6999,6.6999,6.6999,6.6999,6.6999,6.6999,6.6999,6.6999,6.6999,6.6999,6.6999,6.6999,6.6999,6.652,6.646,6.6939,6.652,6.646,6.6969,6.6999,6.6999,6.6999,6.6999,6.6999,6.6999,6.6999,6.6999,6.6999,6.6999,6.6999,6.6999,6.6999,6.6999,6.6999,6.6999,6.6999,6.6999,6.6999,6.6999,6.6999,6.6999,6.6999,6.6999,6.6999,6.6999,6.6999,6.9004,6.9004,6.9183,6.9844,6.9933,7.0111,7.0679,7.0769,7.0769,7.0829,7.0829,7.0859,7.0889,7.0889,7.0889,7.0889,7.0889,7.0889,7.0889,7.0829,7.0769,7.0769,7.0201,6.9933,6.9933,6.9303,6.9004,6.9004,6.9004,6.9004,6.9004,6.9004,6.9333,6.9933,6.9933,7.0231,7.0769,7.0769,7.0769,7.0769,7.0769,7.0799,7.0829,7.0829,7.0859,7.0889,7.0889,7.0889,7.0889,7.0859,7.0829,7.0739,7.0111,6.9933,6.9782,6.9123,6.8435,6.7808,6.7179,6.6999,6.6999,6.6999,6.6999,6.6999,6.6999,6.6999,6.6999,6.6999,6.6999,6.6999,6.6999,6.6999,6.6999,6.6999,6.6999,6.6999,6.6999,6.6999,6.6999,6.6999,6.6999,6.6999,6.6999,6.6939,6.6939,6.6999,6.6939,6.6939,6.6999,6.6999,6.6999,6.6999,6.6999,6.6999,6.6999,6.6999,6.6999,6.6999,6.6999,6.6999,6.6999,6.6999,6.6999,6.6999,6.6999,6.6999,6.6999,6.6999,6.6999,6.6999,6.6999,6.6999,6.6999,6.6999,6.6999,6.6999,7.0171,7.0171,7.026,7.05,7.056,7.062,7.0859,7.0889,7.0889,7.0889,7.0889,7.0889,7.0889,7.0889,7.0889,7.0889,7.0889,7.0889,7.0889,7.0889,7.0889,7.0889,7.0679,7.056,7.056,7.032,7.0171,7.0171,7.0171,7.0171,7.0171,7.0171,7.032,7.056,7.056,7.0679,7.0889,7.0889,7.0889,7.0889,7.0889,7.0889,7.0889,7.0889,7.0889,7.0889,7.0889,7.0889,7.0889,7.0889,7.0889,7.0859,7.062,7.056,7.044,6.9782,6.8856,6.7958,6.7688,6.7329,6.6999,6.6999,6.6999,6.6999,6.6999,6.6999,6.6999,6.6999,6.6999,6.6999,6.6999,6.6999,6.6999,6.6999,6.6999,6.6999,6.6999,6.6999,6.6999,6.6999,6.6999,6.6999,6.6999,6.6999,6.6999,6.6999,6.6999,6.6999,6.6999,6.6999,6.6999,6.6999,6.6999,6.6999,6.6999,6.6999,6.6999,6.6999,6.6999,6.6999,6.6999,6.6999,6.6999,6.6999,6.6999,6.6999,6.6999,6.6999,6.6999,6.6999,6.6999,6.6999,6.6999,6.6999,6.6999,6.6999,7.0889,7.0889,7.0889,7.0889,7.0889,7.0889,7.0889,7.0889,7.0889,7.0889,7.0889,7.0889,7.0889,7.0889,7.0889,7.0889,7.0889,7.0889,7.0889,7.0889,7.0889,7.0889,7.0889,7.0889,7.0889,7.0889,7.0889,7.0889,7.0889,7.0889,7.0889,7.0889,7.0889,7.0889,7.0889,7.0889,7.0889,7.0889,7.0889,7.0889,7.0889,7.0889,7.0889,7.0889,7.0889,7.0889,7.0889,7.0889,7.0889,7.0889,7.0889,7.0889,7.0889,7.0889,7.0769,7.0171,6.9365,6.8556,6.8107,6.7658,6.7238,6.7029,6.6999,6.6999,6.6999,6.6999,6.6999,6.6999,6.6999,6.6999,6.6999,6.6999,6.6999,6.6999,6.6999,6.6999,6.6999,6.6999,6.6999,6.6999,6.6999,6.6999,6.6999,6.6999,6.6999,6.6999,6.6999,6.6999,6.6999,6.6999,6.6999,6.6999,6.6999,6.6999,6.6999,6.6999,6.6999,6.6999,6.6999,6.6999,6.6999,6.6999,6.6999,6.6999,6.6999,6.6999,6.6999,6.6999,6.6999,6.6999,6.6999,6.6999,6.6999,6.6999,6.6999,6.6999,7.0889,7.0889,7.0889,7.0889,7.0889,7.0889,7.0889,7.0889,7.0889,7.0889,7.0889,7.0889,7.0889,7.0889,7.0889,7.0889,7.0889,7.0889,7.0889,7.0889,7.0889,7.0889,7.0889,7.0889,7.0889,7.0889,7.0889,7.0889,7.0889,7.0889,7.0889,7.0889,7.0889,7.0889,7.0889,7.0889,7.0889,7.0889,7.0889,7.0889,7.0889,7.0889,7.0889,7.0889,7.0889,7.0889,7.0889,7.0889,7.0889,7.0889,7.0889,7.0889,7.0889,7.0889,7.0769,7.0171,7.0023,6.9724,6.8377,6.8017,6.7838,6.7179,6.6999,6.6999,6.6999,6.6999,6.6999,6.6999,6.6999,6.6999,6.6999,6.6999,6.6999,6.6999,6.6999,6.6999,6.6999,6.6999,6.6999,6.6999,6.6999,6.6999,6.6999,6.6999,6.6999,6.6999,6.6999,6.6999,6.6999,6.6999,6.6999,6.6999,6.6999,6.6999,6.6999,6.6999,6.6999,6.6999,6.6999,6.6999,6.6999,6.6999,6.6999,6.6999,6.6999,6.6999,6.6999,6.6999,6.6999,6.6999,6.6999,6.6999,6.6999,6.6999,6.6999,6.6999,7.0889,7.0889,7.0889,7.0889,7.0889,7.0889,7.0889,7.0889,7.0889,7.0889,7.0889,7.0889,7.0889,7.0889,7.0889,7.0889,7.0889,7.0889,7.0889,7.0889,7.0889,7.0889,7.0889,7.0889,7.0889,7.0889,7.0889,7.0889,7.0889,7.0889,7.0889,7.0889,7.0889,7.0889,7.0889,7.0889,7.0889,7.0889,7.0889,7.0889,7.0889,7.0889,7.0889,7.0889,7.0889,7.0889,7.0889,7.0889,7.0889,7.0889,7.0889,7.0889,7.0889,7.0889,7.0859,7.0679,7.032,6.9901,6.9514,6.8736,6.7838,6.7179,6.6999,6.6999,6.6999,6.6999,6.6999,6.6999,6.6999,6.6999,6.6999,6.6999,6.6999,6.6999,6.6999,6.6999,6.6999,6.6999,6.6999,6.6999,6.6999,6.6999,6.6999,6.6999,6.6999,6.6999,6.6999,6.6999,6.6999,6.6999,6.6999,6.6999,6.6999,6.6999,6.6999,6.6999,6.6999,6.6999,6.6999,6.6999,6.6999,6.6999,6.6999,6.6999,6.6999,6.6999,6.6999,6.6999,6.6999,6.6999,6.6999,6.6999,6.6999,6.6999,6.6999,6.6999,7.0889,7.0889,7.0889,7.0889,7.0889,7.0889,7.0889,7.0889,7.0889,7.0889,7.0889,7.0889,7.0889,7.0889,7.0889,7.0889,7.0889,7.0889,7.0889,7.0889,7.0889,7.0889,7.0889,7.0889,7.0889,7.0889,7.0889,7.0889,7.0889,7.0889,7.0889,7.0889,7.0889,7.0889,7.0889,7.0889,7.0889,7.0889,7.0889,7.0889,7.0889,7.0889,7.0889,7.0889,7.0889,7.0889,7.0889,7.0889,7.0889,7.0889,7.0889,7.0889,7.0889,7.0889,7.0889,7.0889,7.0649,7.029,7.0051,6.9424,6.8586,6.7628,6.7178,6.6999,6.6999,6.6999,6.6999,6.6999,6.6999,6.6999,6.6999,6.6999,6.6999,6.6999,6.6999,6.6999,6.6999,6.6999,6.6999,6.6999,6.6999,6.6999,6.6999,6.6999,6.6999,6.6999,6.6999,6.6999,6.6999,6.6999,6.6999,6.6999,6.6999,6.6999,6.6999,6.6999,6.6999,6.6999,6.6999,6.6999,6.6999,6.6999,6.6999,6.6999,6.6999,6.6999,6.6999,6.6999,6.6999,6.6999,6.6999,6.6999,6.6999,6.6999,6.6999,6.6999,7.0889,7.0889,7.0889,7.0889,7.0889,7.0889,7.0889,7.0889,7.0889,7.0889,7.0889,7.0889,7.0889,7.0889,7.0889,7.0889,7.0889,7.0889,7.0889,7.0889,7.0889,7.0889,7.0889,7.0889,7.0889,7.0889,7.0889,7.0889,7.0889,7.0889,7.0889,7.0889,7.0889,7.0889,7.0889,7.0889,7.0889,7.0889,7.0889,7.0889,7.0889,7.0889,7.0889,7.0889,7.0889,7.0889,7.0889,7.0889,7.0889,7.0889,7.0889,7.0889,7.0889,7.0889,7.0889,7.0889,7.0889,7.0769,7.0201,7.0021,6.9724,6.8496,6.7628,6.7059,6.6999,6.6999,6.6999,6.6999,6.6999,6.6999,6.6999,6.6999,6.6999,6.6999,6.6999,6.6999,6.6999,6.6999,6.6999,6.6999,6.6999,6.6999,6.6999,6.6999,6.6999,6.6999,6.6999,6.6999,6.6999,6.6999,6.6999,6.6999,6.6999,6.6999,6.6999,6.6999,6.6999,6.6999,6.6999,6.6999,6.6999,6.6999,6.6999,6.6999,6.6999,6.6999,6.6999,6.6999,6.6999,6.6999,6.6999,6.6999,6.6999,6.6999,6.6999,6.6999,7.0889,7.0889,7.0889,7.0889,7.0889,7.0889,7.0889,7.0889,7.0889,7.0889,7.0889,7.0889,7.0889,7.0889,7.0889,7.0889,7.0889,7.0889,7.0889,7.0889,7.0889,7.0889,7.0889,7.0889,7.0889,7.0889,7.0889,7.0889,7.0889,7.0889,7.0889,7.0889,7.0889,7.0889,7.0889,7.0889,7.0889,7.0889,7.0889,7.0889,7.0889,7.0889,7.0889,7.0889,7.0889,7.0889,7.0889,7.0889,7.0889,7.0889,7.0889,7.0889,7.0889,7.0889,7.0889,7.0889,7.0889,7.0859,7.0739,7.032,6.9871,6.9634,6.8676,6.7658,6.7119,6.6999,6.6999,6.6999,6.6999,6.6999,6.6999,6.6999,6.6999,6.6999,6.6999,6.6999,6.6999,6.6999,6.6999,6.6999,6.6999,6.6999,6.6999,6.6999,6.6999,6.6999,6.6999,6.6999,6.6999,6.6999,6.6999,6.6999,6.6999,6.6999,6.6999,6.6999,6.6999,6.6999,6.6999,6.6999,6.6999,6.6999,6.6999,6.6999,6.6999,6.6999,6.6999,6.6999,6.6999,6.6999,6.6999,6.6999,6.6999,6.6999,6.6999,6.6999,7.0889,7.0889,7.0889,7.0889,7.0889,7.0889,7.0889,7.0889,7.0889,7.0889,7.0889,7.0889,7.0889,7.0889,7.0889,7.0889,7.0889,7.0889,7.0889,7.0889,7.0889,7.0889,7.0889,7.0889,7.0889,7.0889,7.0889,7.0889,7.0889,7.0889,7.0889,7.0889,7.0889,7.0889,7.0889,7.0889,7.0889,7.0889,7.0889,7.0889,7.0889,7.0889,7.0889,7.0889,7.0889,7.0889,7.0889,7.0889,7.0889,7.0889,7.0889,7.0889,7.0889,7.0889,7.0889,7.0889,7.0889,7.0889,7.0889,7.0649,7.032,7.0051,6.9484,6.8706,6.7718,6.7239,6.6999,6.6999,6.6999,6.6999,6.6999,6.6999,6.6999,6.6999,6.6999,6.6999,6.6999,6.6999,6.6999,6.6999,6.6999,6.6999,6.6999,6.6999,6.6999,6.6999,6.6999,6.6999,6.6999,6.6999,6.6999,6.6999,6.6999,6.6999,6.6999,6.6999,6.6999,6.6999,6.6999,6.6999,6.6999,6.6999,6.6999,6.6999,6.6999,6.6999,6.6999,6.6999,6.6999,6.6999,6.6999,6.6999,6.6999,6.6999,6.6999,6.6999,7.0889,7.0889,7.0889,7.0889,7.0889,7.0889,7.0889,7.0889,7.0889,7.0889,7.0889,7.0889,7.0889,7.0889,7.0889,7.0889,7.0889,7.0889,7.0889,7.0889,7.0889,7.0889,7.0889,7.0889,7.0889,7.0889,7.0889,7.0889,7.0889,7.0889,7.0889,7.0889,7.0889,7.0889,7.0889,7.0889,7.0889,7.0889,7.0889,7.0889,7.0889,7.0889,7.0889,7.0889,7.0889,7.0889,7.0889,7.0889,7.0889,7.0889,7.0889,7.0889,7.0889,7.0889,7.0889,7.0889,7.0889,7.0889,7.0889,7.0889,7.0769,7.026,7.0083,6.9724,6.8616,6.7748,6.7119,6.6999,6.6999,6.6999,6.6999,6.6999,6.6999,6.6999,6.6999,6.6999,6.6999,6.6999,6.6999,6.6999,6.6999,6.6999,6.6999,6.6999,6.6999,6.6999,6.6999,6.6999,6.6999,6.6999,6.6999,6.6999,6.6999,6.6999,6.6999,6.6999,6.6999,6.6999,6.6999,6.6999,6.6999,6.6999,6.6999,6.6999,6.6999,6.6999,6.6999,6.6999,6.6999,6.6999,6.6999,6.6999,6.6999,6.6999,6.6999,6.6999,7.0889,7.0889,7.0889,7.0889,7.0889,7.0889,7.0889,7.0889,7.0889,7.0889,7.0889,7.0889,7.0889,7.0889,7.0889,7.0889,7.0889,7.0889,7.0889,7.0889,7.0889,7.0889,7.0889,7.0889,7.0889,7.0889,7.0889,7.0889,7.0889,7.0889,7.0889,7.0889,7.0889,7.0889,7.0889,7.0889,7.0889,7.0889,7.0889,7.0889,7.0889,7.0889,7.0889,7.0889,7.0889,7.0889,7.0889,7.0889,7.0889,7.0889,7.0889,7.0889,7.0889,7.0889,7.0889,7.0889,7.0889,7.0889,7.0889,7.0889,7.0889,7.0799,7.038,6.9963,6.9784,6.8766,6.7718,6.7119,6.6999,6.6999,6.6999,6.6999,6.6999,6.6999,6.6999,6.6999,6.6999,6.6999,6.6999,6.6999,6.6999,6.6999,6.6999,6.6999,6.6999,6.6999,6.6999,6.6999,6.6999,6.6999,6.6999,6.6999,6.6999,6.6999,6.6999,6.6999,6.6999,6.6999,6.6999,6.6999,6.6999,6.6999,6.6999,6.6999,6.6999,6.6999,6.6999,6.6999,6.6999,6.6999,6.6999,6.6999,6.6999,6.6999,6.6999,6.6999,7.0889,7.0889,7.0889,7.0889,7.0889,7.0889,7.0889,7.0889,7.0889,7.0889,7.0889,7.0889,7.0889,7.0889,7.0889,7.0889,7.0889,7.0889,7.0889,7.0889,7.0889,7.0889,7.0889,7.0889,7.0889,7.0889,7.0889,7.0889,7.0889,7.0889,7.0889,7.0889,7.0889,7.0889,7.0889,7.0889,7.0889,7.0889,7.0889,7.0889,7.0889,7.0889,7.0889,7.0889,7.0889,7.0889,7.0889,7.0889,7.0889,7.0889,7.0889,7.0889,7.0889,7.0889,7.0889,7.0889,7.0889,7.0889,7.0889,7.0889,7.0889,7.0889,7.0709,7.041,7.0083,6.9544,6.8826,6.7778,6.7238,6.6999,6.6999,6.6999,6.6999,6.6999,6.6999,6.6999,6.6999,6.6999,6.6999,6.6999,6.6999,6.6999,6.6999,6.6999,6.6999,6.6999,6.6999,6.6999,6.6999,6.6999,6.6999,6.6999,6.6999,6.6999,6.6999,6.6999,6.6999,6.6999,6.6999,6.6999,6.6999,6.6999,6.6999,6.6999,6.6999,6.6999,6.6999,6.6999,6.6999,6.6999,6.6999,6.6999,6.6999,6.6999,6.6999,6.6999]}]]